     2.11           OBSERVATION DATA    G (GPS)             RINEX VERSION / TYPE
teqc 2010Oct21 OPUS Account 20111027 18:36:37UTC            PGM / RUN BY / DATE
R 1381                                                      MARKER NAME
2141                                                        MARKER NUMBER
CSMIDDLETON NGS                                             OBSERVER / AGENCY
4624K01647 TRIMBLE NETR5 4.41                               REC # / TYPE / VERS
12694052 TRM41249.00 NONE                                   ANT # / TYPE
  -762323.7479 -5548389.1824  3041951.4238                  APPROX POSITION XYZ
        2.0040        0.0000        0.0000                  ANTENNA: DELTA H/E/N
     1     1                                                WAVELENGTH FACT L1/2
     5    L1    L2    C1    P1    P2                        # / TYPES OF OBSERV
    15                                                      LEAP SECONDS
  2011     8    18     0     0    0.0000000     GPS         TIME OF FIRST OBS
                                                            END OF HEADER
 11  8 18  0  0  0.0000000  0  8G12G04G17G10G05G28G09G02
 116677715.89517  90917823.12317  22203044.727                    22203052.020
 109899136.43718  85635838.16956  20913091.234                    20913099.086
 119012280.10617  92737034.46617  22647295.625                    22647303.793
 110863437.71318  86387216.37456  21096597.117                    21096605.020
 121168132.96417  94416816.42017  23057520.961                    23057530.258
 127460706.44216  99320077.16252  24254977.891                    24254990.121
 120221798.41517  93679414.74454  22877459.703                    22877468.727
 108849836.26418  84818188.74556  20713418.102                    20713423.227
 11  8 18  0  0 30.0000000  0  8G12G04G17G10G05G28G09G02
 116597459.048 7  90855285.359 7  22187772.086                    22187779.289
 109964400.425 8  85686693.21046  20925510.773                    20925517.945
 119057209.677 7  92772044.476 7  22655845.961                    22655853.648
 110828215.582 8  86359770.59646  21089894.250                    21089902.254
 121065625.577 7  94336940.656 7  23038013.875                    23038023.258
 127562309.152 6  99399247.91342  24274312.375                    24274324.008
 120285322.328 7  93728913.87344  22889548.313                    22889556.871
 108831194.469 8  84803662.68646  20709870.344                    20709875.398
 11  8 18  0  1  0.0000000  0  8G12G04G17G10G05G28G09G02
 116517488.936 7  90792971.033 7  22172554.297                    22172562.004
 110029929.215 8  85737754.58946  20937979.938                    20937987.547
 119102260.443 7  92807148.930 7  22664418.836                    22664427.207
 110793561.871 8  86332767.74646  21083299.727                    21083308.184
 120963251.603 7  94257168.826 7  23018532.766                    23018542.203
 127664107.604 6  99478571.17542  24293684.039                    24293696.215
 120349203.997 6  93778691.78044  22901704.180                    22901712.840
 108812897.808 8  84789405.56346  20706388.820                    20706393.926
 11  8 18  0  1 30.0000000  0  7G12G04G17G10G05G09G02
 116437808.330 7  90730882.286 7  22157391.523                    22157398.926
 110095720.809 8  85789020.74946  20950500.063                    20950507.816
 119147433.075 7  92842348.340 7  22673014.539                    22673023.488
 110759478.582 8  86306209.37246  21076814.258                    21076822.105
 120861014.368 7  94177503.542 7  22999077.734                    22999087.320
 120413440.519 7  93828746.18144  22913928.188                    22913936.898
 108794945.817 8  84775417.00646  20702972.930                    20702978.176
 11  8 18  0  2  0.0000000  0  7G12G04G17G10G05G09G02
 116358421.357 7  90669022.358 7  22142284.813                    22142292.367
 110161774.624 8  85840491.24046  20963069.336                    20963076.695
 119192729.621 7  92877644.320 7  22681634.227                    22681642.793
 110725969.274 8  86280098.25446  21070437.555                    21070445.488
 120758918.409 7  94097948.361 7  22979649.688                    22979658.992
 120478030.265 7  93879075.82944  22926219.172                    22926228.051
 108777339.408 8  84761697.74146  20699622.219                    20699627.578
 11  8 18  0  2 30.0000000  0  7G12G04G17G10G05G09G02
 116279328.413 7  90607391.541 7  22127234.211                    22127241.082
 110228085.758 8  85892162.23646  20975688.117                    20975695.813
 119238148.760 7  92913035.809 7  22690277.172                    22690285.434
 110693033.366 8  86254433.94446  21064170.070                    21064178.078
 120656964.181 7  94018503.607 7  22960248.109                    22960257.703
 120542967.532 7  93929676.26844  22938576.633                    22938585.520
 108760075.275 8  84748245.18146  20696336.961                    20696342.113
 11  8 18  0  3  0.0000000  0  7G12G04G17G10G05G09G02
 116200532.249 7  90545991.982 7  22112239.344                    22112246.762
 110294652.113 8  85944032.10546  20988355.094                    20988363.160
 119283691.175 7  92948523.369 7  22698943.320                    22698951.930
 110660672.778 8  86229217.92346  21058011.875                    21058020.035
 120555154.861 7  93939171.783 7  22940874.984                    22940883.832
 120608249.559 7  93980545.33744  22950999.039                    22951008.539
 108743152.969 8  84735058.98346  20693116.961                    20693122.289
 11  8 18  0  3 30.0000000  0  7G12G04G17G10G05G09G02
 116122035.514 7  90484825.744 7  22097301.758                    22097309.184
 110361471.470 8  85996099.11146  21001070.453                    21001078.254
 119329357.709 7  92984107.642 7  22707634.117                    22707642.391
 110628889.466 7  86204451.73346  21051963.219                    21051971.477
 120453493.940 7  93859955.607 7  22921528.922                    22921538.199
 120673872.914 7  94031680.37544  22963486.969                    22963495.926
 108726572.008 8  84722138.75646  20689961.352                    20689966.855
 11  8 18  0  4  0.0000000  0  7G12G04G17G10G05G09G02
 116043840.791 7  90423894.849 7  22082422.117                    22082429.180
 110428541.595 8  86048361.52946  21013833.383                    21013841.715
 119375148.743 7  93019788.922 7  22716348.227                    22716356.113
 110597685.278 8  86180136.80946  21046025.633                    21046033.516
 120351984.167 7  93780857.193 7  22902211.930                    22902221.340
 120739834.461 7  94083078.91744  22976039.133                    22976048.379
 108710331.326 8  84709483.69546  20686870.813                    20686876.801
 11  8 18  0  4 30.0000000  0  7G12G04G17G10G05G09G02
 115965950.532 7  90363201.184 7  22067599.719                    22067606.965
 110495859.916 8  86100817.34246  21026644.031                    21026651.727
 119421064.834 7  93055567.648 7  22725085.961                    22725094.332
 110567061.663 8  86156274.27746  21040198.344                    21040206.617
 120250628.355 7  93701878.754 7  22882924.227                    22882934.324
 120806130.770 7  94134738.32944  22988654.148                    22988664.059
 108694430.014 8  84697093.07046  20683845.266                    20683850.621
 11  8 18  0  5  0.0000000  0  7G12G04G17G10G05G09G02
 115888367.458 7  90302746.888 7  22052836.234                    22052843.031
 110563424.180 8  86153464.79346  21039501.195                    21039508.629
 119467106.474 7  93091444.201 7  22733846.859                    22733854.637
 110537020.013 8  86132865.22046  21034481.383                    21034489.496
 120149429.506 7  93623022.616 7  22863666.852                    22863675.816
 120872758.470 7  94186655.96344  23001333.578                    23001342.637
 108678867.263 8  84684966.26546  20680883.906                    20680888.922
 11  8 18  0  5 30.0000000  0  7G12G04G17G10G05G09G02
 115811094.118 7  90242533.934 7  22038131.328                    22038138.563
 110631232.007 8  86206302.04046  21052404.266                    21052412.262
 119513274.642 7  93127419.358 7  22742632.484                    22742640.070
 110507562.111 8  86109911.04246  21028875.641                    21028883.910
 120048391.122 7  93544291.517 7  22844440.164                    22844449.301
 120939714.357 6  94238829.31144  23014074.875                    23014084.117
 108663642.674 8  84673102.95646  20677986.031                    20677991.633
 11  8 18  0  6  0.0000000  0  7G12G04G17G10G05G09G02
 115734133.302 7  90182564.499 7  22023486.398                    22023493.883
 110699281.427 8  86259327.53546  21065353.836                    21065361.395
 119559570.146 7  93163493.735 6  22751442.563                    22751450.469
 110478690.030 8  86087413.33646  21023381.898                    21023389.516
 119947515.717 7  93465687.419 7  22825244.227                    22825252.918
 121006995.311 7  94291255.96044  23026878.070                    23026887.629
 108648755.450 8  84661502.53746  20675153.477                    20675158.801
 11  8 18  0  6 30.0000000  0  7G12G04G17G10G05G09G02
 115657487.893 7  90122840.833 7  22008901.422                    22008908.473
 110767570.439 8  86312539.72446  21078348.656                    21078356.609
 119605993.693 7  93199667.901 6  22760276.953                    22760284.203
 110450405.713 8  86065373.63546  21017999.445                    21018007.281
 119846806.707 7  93387212.974 7  22806079.789                    22806088.418
 121074598.234 7  94343933.50044  23039742.367                    23039751.602
 108634205.137 8  84650164.63546  20672384.563                    20672389.797
 11  8 18  0  7  0.0000000  0  7G12G04G17G10G05G09G02
 115581159.965 7  90063364.554 7  21994376.313                    21994383.836
 110836096.198 8  86365936.40146  21091388.977                    21091396.754
 119652545.301 7  93235941.849 7  22769134.820                    22769142.750
 110422709.899 8  86043792.50646  21012729.266                    21012736.828
 119746266.726 7  93308870.249 7  22786947.531                    22786956.371
 121142519.440 7  94396859.04244  23052667.828                    23052676.988
 108619990.231 8  84639088.10446  20669679.219                    20669684.672
 11  8 18  0  7 30.0000000  0  7G12G04G17G10G05G09G02
 115505152.215 7  90004137.764 7  21979912.320                    21979919.848
 110904856.428 8  86419515.77346  21104473.594                    21104481.590
 119699226.031 7  93272316.404 7  22778018.156                    22778026.523
 110395604.517 8  86022671.46046  21007570.844                    21007578.676
 119645898.923 7  93230661.670 7  22767848.313                    22767857.117
 121210755.812 7  94450030.18044  23065652.172                    23065661.633
 108606110.164 8  84628272.48646  20667038.438                    20667043.617
 11  8 18  0  8  0.0000000  0  8G12G04G17G10G05G30G09G02
 115429466.791 7  89945162.138 7  21965510.234                    21965517.305
 110973848.533 8  86473275.83446  21117602.328                    21117610.004
 119746036.271 7  93308791.876 7  22786925.719                    22786933.590
 110369090.711 8  86002011.37846  21002525.250                    21002533.223
 119545705.736 7  93152589.163 7  22748781.602                    22748790.563
 128012293.52816  99749882.02552  24359934.281                    24359941.164
 121279303.711 7  94503444.06844  23078696.625                    23078706.648
 108592563.525 8  84617716.68946  20664460.211                    20664465.742
 11  8 18  0  8 30.0000000  0  8G12G04G17G10G05G30G09G02
 115354107.005 7  89886440.235 7  21951170.008                    21951176.711
 111043070.810 8  86527215.24946  21130774.648                    21130782.379
 119792976.780 7  93345368.854 7  22795857.992                    22795866.402
 110343170.641 8  85981813.95246  20997593.430                    20997600.902
 119445690.980 7  93074655.715 7  22729749.563                    22729758.141
 127906500.378 6  99667445.82343  24339802.570                    24339810.406
 121348160.354 7  94557098.54244  23091799.898                    23091809.172
 108579350.314 8  84607420.69846  20661946.297                    20661951.242
 11  8 18  0  9  0.0000000  0  8G12G04G17G10G05G30G09G02
 115279075.326 8  89827974.005 7  21936891.969                    21936898.859
 111112520.920 8  86581332.19946  21143990.938                    21143998.395
 119840048.115 7  93382047.786 6  22804816.016                    22804823.629
 110317845.228 8  85962079.89546  20992773.672                    20992781.918
 119345857.233 7  92996863.292 7  22710751.414                    22710760.230
 127800869.880 6  99585136.37843  24319701.859                    24319710.816
 121417322.007 7  94610990.69844  23104960.578                    23104970.500
 108566469.194 8  84597383.46846  20659495.164                    20659500.328
 11  8 18  0  9 30.0000000  0  8G12G04G17G10G05G30G09G02
 115204374.045 7  89769765.233 7  21922676.719                    21922683.793
 111182196.338 8  86635624.71846  21157249.578                    21157257.059
 119887250.985 7  93418829.211 6  22813797.617                    22813805.785
 110293116.116 8  85942810.49146  20988067.719                    20988075.680
 119246207.511 7  92919214.265 7  22691788.281                    22691797.977
 127695404.857 6  99502955.91743  24299632.203                    24299641.914
 121486785.280 7  94665117.87544  23118179.555                    23118188.664
 108553919.275 8  84587604.33946  20657106.656                    20657111.836
 11  8 18  0 10  0.0000000  0  8G12G04G17G10G05G30G09G02
 115130005.657 7  89711815.836 7  21908524.680                    21908531.645
 111252094.594 8  86690090.87146  21170550.516                    21170558.391
 119934586.084 7  93455713.673 6  22822805.570                    22822813.656
 110268984.547 8  85924006.69046  20983475.727                    20983483.871
 119146744.740 7  92841710.913 7  22672861.883                    22672870.445
 127590107.856 6  99420906.35043  24279595.367                    24279604.027
 121556546.811 7  94719477.47344  23131454.570                    23131463.934
 108541699.848 8  84578082.72646  20654781.117                    20654786.543
 11  8 18  0 10 30.0000000  0  8G12G04G17G10G05G30G09G02
 115055972.983 8  89654128.045 7  21894437.008                    21894444.063
 111322213.934 8  86744729.31645  21183894.430                    21183902.156
 119982053.513 7  93492701.235 7  22831837.523                    22831846.496
 110245452.107 8  85905669.75346  20978997.664                    20979005.824
 119047472.372 7  92764355.931 7  22653970.672                    22653979.668
 127484981.713 6  99338989.95743  24259590.008                    24259599.523
 121626603.409 7  94774066.99644  23144785.313                    23144795.395
 108529809.868 8  84568817.83146  20652518.625                    20652524.035
 11  8 18  0 11  0.0000000  0  8G12G04G17G10G05G30G09G02
 114982278.629 8  89596703.874 7  21880412.953                    21880419.934
 111392551.651 7  86799537.90846  21197278.547                    21197286.965
 120029654.756 7  93529793.065 7  22840895.766                    22840905.082
 110222520.154 8  85887800.72346  20974633.844                    20974641.836
 118948393.014 7  92687151.348 7  22635116.570                    22635125.313
 127380029.288 6  99257208.90443  24239618.281                    24239627.414
 121696951.525 7  94828883.64744  23158173.078                    23158182.078
 108518248.773 8  84559809.21146  20650318.852                    20650323.871
 11  8 18  0 11 30.0000000  0  8G12G04G17G10G05G30G09G02
 114908925.353 7  89539545.487 7  21866454.781                    21866461.453
 111463105.802 8  86854515.16546  21210705.063                    21210712.703
 120077390.213 7  93566989.471 7  22849980.391                    22849989.082
 110200189.919 8  85870400.55846  20970384.586                    20970392.340
 118849509.615 7  92610099.443 7  22616299.195                    22616308.262
 127275253.242 6  99175565.28443  24219680.180                    24219689.234
 121767587.719 7  94883924.81044  23171613.953                    23171624.242
 108507015.489 8  84551056.01846  20648180.883                    20648186.426
 11  8 18  0 12  0.0000000  0  8G12G04G17G10G05G30G09G02
 114835915.199 7  89482654.472 7  21852560.977                    21852568.246
 111533874.047 8  86909659.24146  21224171.883                    21224179.473
 120125260.266 7  93604290.778 7  22859089.492                    22859098.617
 110178462.647 8  85853470.24346  20966249.891                    20966258.004
 118750825.173 7  92533202.569 7  22597520.531                    22597529.164
 127170656.442 6  99094061.34643  24199776.063                    24199784.781
 121838508.844 7  94939187.98044  23185110.516                    23185119.957
 108496109.080 8  84542557.54146  20646105.391                    20646110.988
 11  8 18  0 12 30.0000000  0  8G12G04G17G10G05G30G09G02
 114763251.127 7  89426033.128 7  21838733.602                    21838740.723
 111604854.321 8  86964968.54246  21237678.648                    21237686.941
 120173265.417 7  93641697.337 7  22868224.609                    22868233.031
 110157340.012 8  85837011.06646  20962230.703                    20962238.574
 118652343.113 7  92456463.406 7  22578779.422                    22578788.707
 127066241.706 6  99012699.28643  24179906.867                    24179915.855
 121909711.837 7  94994670.79244  23198659.859                    23198669.539
 108485528.819 8  84534313.20346  20644092.172                    20644097.359
 11  8 18  0 13  0.0000000  0  8G12G04G17G10G05G30G09G02
 114690935.459 7  89369683.278 7  21824972.250                    21824979.840
 111676044.174 8  87020441.13546  21251225.797                    21251233.246
 120221406.291 7  93679209.662 6  22877386.133                    22877394.227
 110136822.776 8  85821023.62846  20958326.375                    20958334.324
 118554066.013 7  92379883.935 7  22560078.391                    22560087.105
 126962011.676 6  98931481.18143  24160071.969                    24160081.199
 121981192.761 7  95050370.16644  23212262.242                    23212271.988
 108475273.451 8  84526322.02546  20642140.609                    20642145.941
 11  8 18  0 13 30.0000000  0  8G12G04G17G10G05G30G09G02
 114618970.843 7  89313606.976 7  21811278.211                    21811285.391
 111747441.401 8  87076075.34145  21264812.359                    21264820.168
 120269683.836 7  93716828.480 6  22886572.953                    22886580.266
 110116912.119 8  85805508.85046  20954537.266                    20954544.938
 118455996.704 7  92303466.383 7  22541416.336                    22541424.855
 126857969.018 6  98850409.02843  24140273.336                    24140282.145
 122052948.558 7  95106283.70744  23225916.609                    23225926.367
 108465342.283 8  84518583.46346  20640250.766                    20640256.402
 11  8 18  0 14  0.0000000  0  8G12G04G17G10G05G30G09G02
 114547359.708 7  89257806.137 7  21797650.750                    21797657.707
 111819043.514 8  87131869.19546  21278437.586                    21278445.242
 120318098.726 7  93754554.332 7  22895785.266                    22895794.527
 110097609.407 8  85790467.78446  20950864.438                    20950871.699
 118358138.400 7  92227213.234 7  22522794.570                    22522803.039
 126754116.674 6  98769485.19643  24120511.031                    24120519.754
 122124975.712 7  95162408.72844  23239623.031                    23239632.785
 108455734.465 8  84511096.87546  20638422.742                    20638427.586
 11  8 18  0 14 30.0000000  0  8G12G04G17G10G05G30G09G02
 114476104.983 7  89202283.007 7  21784091.891                    21784098.414
 111890848.741 8  87187821.31046  21292101.547                    21292109.777
 120366651.175 7  93792387.355 7  22905025.352                    22905033.738
 110078916.151 8  85775901.63746  20947307.031                    20947314.664
 118260494.179 7  92151126.930 7  22504213.438                    22504222.156
 126650457.592 6  98688711.96743  24100784.711                    24100793.887
 122197271.052 7  95218742.69544  23253380.766                    23253390.230
 108446448.971 8  84503861.44346  20636655.477                    20636661.105
 11  8 18  0 15  0.0000000  0  9G12G04G17G10G05G30G25G09G02
 114405208.994 7  89147039.431 7  21770600.422                    21770607.848
 111962854.430 8  87243929.64146  21305803.922                    21305812.289
 120415341.824 7  93830328.075 7  22914291.266                    22914299.340
 110060832.915 8  85761810.81546  20943866.156                    20943874.039
 118163066.966 7  92075209.709 7  22485673.414                    22485681.629
 126546994.126 6  98608091.15042  24081095.883                    24081105.262
 129571769.39516 100965061.88216  24656694.422                    24656704.617
 122269830.785 7  95275282.68844  23267188.383                    23267197.859
 108437484.549 8  84496876.19446  20634949.492                    20634954.836
 11  8 18  0 15 30.0000000  0  9G12G04G17G10G05G30G25G09G02
 114334674.031 7  89092077.176 7  21757177.898                    21757184.945
 112035058.730 8  87300192.72346  21319543.836                    21319551.848
 120464171.344 7  93868377.012 7  22923582.484                    22923590.965
 110043361.006 8  85748196.36246  20940541.117                    20940548.777
 118065859.765 7  91999463.919 7  22467175.352                    22467183.883
 126443729.050 6  98527624.88742  24061445.352                    24061454.621
 129468513.200 6 100884602.535 6  24637045.109                    24637056.648
 122342651.631 7  95332026.15343  23281046.109                    23281054.563
 108428840.471 8  84490140.56446  20633304.758                    20633309.781
 11  8 18  0 16  0.0000000  0  9G12G04G17G10G05G30G25G09G02
 114264502.565 7  89037398.165 7  21743824.367                    21743831.477
 112107459.262 8  87356608.72345  21333321.180                    21333329.152
 120513140.670 7  93906534.889 6  22932901.008                    22932909.723
 110026501.537 8  85735059.13146  20937332.523                    20937340.781
 117968875.443 7  91923891.818 7  22448719.523                    22448728.387
 126340665.483 6  98447315.69142  24041833.336                    24041841.523
 129365361.773 6 100804224.857 6  24617416.063                    24617427.875
 122415730.205 6  95388970.41444  23294952.172                    23294961.500
 108420515.704 8  84483653.74346  20631720.805                    20631725.906
 11  8 18  0 16 30.0000000  0  9G12G04G17G10G05G30G25G09G02
 114194697.501 7  88983004.665 7  21730541.250                    21730548.438
 112180053.594 7  87413175.72745  21347135.609                    21347143.715
 120562250.177 7  93944801.997 7  22942246.594                    22942255.051
 110010255.484 8  85722399.88046  20934241.320                    20934248.910
 117872117.107 7  91848495.804 7  22430307.016                    22430315.445
 126237806.040 6  98367165.55143  24022259.703                    24022267.559
 129262317.372 6 100723930.607 6  24597807.023                    24597819.664
 122489063.077 7  95446112.86044  23308907.141                    23308916.035
 108412509.169 8  84477414.89346  20630197.008                    20630202.449
 11  8 18  0 17  0.0000000  0  9G12G04G17G10G05G30G25G09G02
 114125261.012 7  88928898.353 7  21717327.781                    21717334.855
 112252839.610 7  87469892.10045  21360986.133                    21360994.379
 120611500.579 7  93983178.889 7  22951618.633                    22951627.535
 109994623.874 7  85710219.42446  20931266.648                    20931274.129
 117775587.398 7  91773277.939 7  22411937.828                    22411947.215
 126135153.578 6  98287176.64843  24002725.836                    24002734.656
 129159382.540 6 100643721.704 6  24578219.680                    24578231.203
 122562647.016 7  95503450.92943  23322909.031                    23322918.965
 108404819.882 8  84471423.25446  20628733.891                    20628739.211
 11  8 18  0 17 30.0000000  0  9G12G04G17G10G05G30G25G09G02
 114056195.735 8  88875081.319 7  21704185.141                    21704192.488
 112325815.645 8  87526756.54046  21374872.750                    21374881.414
 120660892.372 7  94021665.960 7  22961017.391                    22961026.500
 109979607.924 8  85698518.70646  20928408.867                    20928416.582
 117679289.594 7  91698240.787 7  22393613.117                    22393621.797
 126032711.042 6  98207351.32643  23983231.453                    23983240.391
 129056560.091 6 100563600.359 6  24558653.180                    24558664.855
 122636478.684 7  95560982.06944  23336959.227                    23336968.863
 108397447.246 8  84465678.34346  20627330.727                    20627335.992
 11  8 18  0 18  0.0000000  0  9G12G04G17G10G05G30G25G09G02
 113987504.487 8  88821555.719 7  21691113.430                    21691120.723
 112398979.014 8  87583766.95445  21388795.563                    21388803.430
 120710426.501 7  94060263.968 7  22970443.781                    22970452.500
 109965208.391 8  85687298.30946  20925669.281                    20925676.711
 117583226.535 7  91623386.531 7  22375332.641                    22375341.730
 125930480.846 6  98127691.51543  23963777.469                    23963786.391
 128953852.003 7 100483568.165 6  24539108.641                    24539119.777
 122710554.334 6  95618703.26844  23351055.469                    23351064.555
 108390389.838 8  84460179.08146  20625987.250                    20625992.957
 11  8 18  0 18 30.0000000  0  9G12G04G17G10G05G30G25G09G02
 113919189.283 7  88768323.137 7  21678113.906                    21678120.852
 112472327.744 8  87640921.80145  21402753.492                    21402761.059
 120760103.049 7  94098972.928 7  22979897.078                    22979905.301
 109951426.333 8  85676559.07046  20923046.320                    20923053.891
 117487401.496 7  91548717.755 7  22357098.141                    22357106.523
 125828466.243 6  98048199.67043  23944365.203                    23944374.121
 128851261.189 6 100403627.329 6  24519586.281                    24519597.270
 122784870.995 6  95676612.29643  23365197.680                    23365206.824
 108383647.054 8  84454924.97446  20624704.695                    20624709.875
 11  8 18  0 19  0.0000000  0  9G12G04G17G10G05G30G25G09G02
 113851252.750 7  88715385.626 7  21665185.227                    21665192.797
 112545859.522 8  87698219.29445  21416746.078                    21416754.082
 120809922.564 7  94137793.282 7  22989377.227                    22989385.734
 109938262.374 8  85666301.45946  20920541.219                    20920549.195
 117391817.433 7  91474236.741 7  22338908.961                    22338916.617
 125726669.667 6  97968877.70343  23924993.977                    23925002.656
 128748789.728 7 100323779.488 6  24500086.586                    24500097.617
 122859424.990 6  95734706.26544  23379384.297                    23379394.270
 108377217.431 8  84449914.88746  20623481.000                    20623486.250
 11  8 18  0 19 30.0000000  0  9G12G04G17G10G05G30G25G09G02
 113783697.391 7  88662745.105 7  21652330.664                    21652337.277
 112619572.194 8  87755657.73145  21430773.148                    21430780.957
 120859886.110 7  94176725.870 7  22998885.547                    22998893.676
 109925717.609 8  85656526.34246  20918154.164                    20918161.980
 117296476.663 7  91399945.318 7  22320765.867                    22320774.254
 125625094.106 6  97889727.99543  23905664.039                    23905673.352
 128646440.390 7 100244026.834 6  24480609.297                    24480621.117
 122934212.879 6  95792982.47844  23393616.531                    23393626.160
 108371100.017 8  84445148.08046  20622317.352                    20622322.531
 11  8 18  0 20  0.0000000  0  9G12G04G17G10G05G30G25G09G02
 113716525.766 8  88610403.620 7  21639548.055                    21639555.258
 112693463.777 8  87813235.58445  21444833.828                    21444842.137
 120909994.461 7  94215771.297 7  23008420.383                    23008429.262
 109913792.692 8  85647234.21546  20915884.641                    20915892.645
 117201382.682 7  91325846.185 7  22302670.148                    22302678.660
 125523742.345 6  97810752.63743  23886377.242                    23886386.809
 128544215.695 6 100164371.301 6  24461156.797                    24461168.125
 123009231.312 7  95851438.35844  23407891.992                    23407902.102
 108365294.278 8  84440624.13646  20621212.195                    20621217.176
 11  8 18  0 20 30.0000000  0  9G12G04G17G10G05G30G25G09G02
 113649740.662 8  88558363.313 7  21626839.211                    21626846.277
 112767532.346 8  87870951.34945  21458929.180                    21458936.867
 120960247.885 7  94254929.760 6  23017983.094                    23017991.914
 109902489.145 8  85638426.28346  20913734.109                    20913741.363
 117106538.774 7  91251941.916 7  22284621.953                    22284630.355
 125422617.644 6  97731954.18443  23867133.563                    23867142.992
 128442118.365 6 100084815.012 6  24441727.992                    24441738.969
 123084477.328 7  95910071.54944  23422210.820                    23422220.434
 108359799.482 8  84436342.48946  20620166.914                    20620171.621
 11  8 18  0 21  0.0000000  0  9G12G04G17G10G05G30G25G09G02
 113583343.846 8  88506625.546 7  21614204.313                    21614211.211
 112841775.179 8  87928802.89445  21473056.906                    21473064.480
 121010646.709 7  94294201.525 7  23027573.297                    23027582.258
 109891806.867 8  85630102.44646  20911701.117                    20911708.785
 117011947.112 7  91178234.191 7  22266622.008                    22266630.406
 125321722.122 6  97653334.35943  23847934.547                    23847943.176
 128340150.403 6 100005359.530 6  24422325.188                    24422335.918
 123159946.850 7  95968878.91344  23436572.227                    23436581.426
 108354613.313 8  84432301.33246  20619179.266                    20619185.043
 11  8 18  0 21 30.0000000  0  9G12G04G17G10G05G30G25G09G02
 113517338.066 7  88455192.501 7  21601643.711                    21601650.945
 112916190.320 8  87986788.70145  21487217.547                    21487225.613
 121061191.844 7  94333587.287 7  23037191.758                    23037201.012
 109881746.697 8  85622263.38246  20909786.500                    20909794.207
 116917611.248 7  91104725.803 7  22248669.922                    22248678.496
 125221058.902 6  97574895.48943  23828779.227                    23828787.430
 128238314.558 6  99926007.014 6  24402945.953                    24402956.875
 123235636.557 6  96027857.85044  23450975.742                    23450985.184
 108349735.501 8  84428500.45346  20618251.430                    20618256.754
 11  8 18  0 22  0.0000000  0  9G12G04G17G10G05G30G25G09G02
 113451726.142 7  88404066.344 7  21589158.305                    21589165.223
 112990776.001 8  88044907.40245  21501410.906                    21501418.934
 121111883.987 7  94373087.620 6  23046838.461                    23046847.434
 109872310.136 8  85614910.24346  20907990.859                    20907998.438
 116823534.045 7  91031418.969 7  22230768.117                    22230776.188
 125120631.070 6  97496640.05443  23809668.273                    23809676.582
 128136613.685 6  99846759.619 6  24383592.508                    24383603.523
 123311543.273 7  96087005.87344  23465420.438                    23465430.141
 108345165.371 8  84424939.32346  20617381.539                    20617386.863
 11  8 18  0 22 30.0000000  0  9G12G04G17G10G05G30G25G09G02
 113386510.229 8  88353248.769 7  21576747.398                    21576755.195
 113065529.630 8  88103156.96645  21515636.148                    21515643.844
 121162723.622 7  94412702.873 6  23056513.367                    23056521.875
 109863497.515 8  85608043.29346  20906313.695                    20906321.188
 116729718.169 7  90958315.752 7  22212915.570                    22212923.410
 125020441.228 6  97418570.07343  23790602.469                    23790611.078
 128035049.966 6  99767619.137 6  24364265.977                    24364276.840
 123387663.518 7  96146320.28844  23479905.656                    23479915.602
 108340901.309 8  84421616.68746  20616570.547                    20616575.445
 11  8 18  0 23  0.0000000  0  9G12G04G17G10G05G30G25G09G02
 113321692.641 7  88302741.567 7  21564413.477                    21564420.414
 113140449.445 8  88161536.03545  21529892.273                    21529900.613
 121213711.231 7  94452433.430 6  23066216.539                    23066224.332
 109855309.289 8  85601662.88246  20904755.945                    20904763.145
 116636166.673 7  90885418.554 7  22195112.695                    22195121.191
 124920492.054 6  97340687.60643  23771582.461                    23771591.453
 127933625.866 6  99688587.409 6  24344965.141                    24344976.430
 123463993.887 7  96205798.43044  23494430.484                    23494440.563
 108336942.228 8  84418531.70246  20615817.195                    20615822.082
 11  8 18  0 23 30.0000000  0  9G12G04G17G10G05G30G25G09G02
 113257276.169 7  88252546.916 7  21552155.500                    21552162.504
 113215533.160 8  88220042.81345  21544180.656                    21544188.754
 121264847.576 7  94492279.896 6  23075946.734                    23075955.137
 109847746.140 8  85595769.55046  20903316.758                    20903324.520
 116542882.570 7  90812729.721 7  22177361.063                    22177369.984
 124820786.547 6  97262995.04043  23752609.695                    23752618.059
 127832344.106 6  99609666.602 6  24325691.508                    24325703.387
 123540530.918 7  96265437.61344  23508995.219                    23509004.973
 108333287.208 8  84415683.64546  20615121.250                    20615126.766
 11  8 18  0 24  0.0000000  0  9G12G04G17G10G05G30G25G09G02
 113193262.978 8  88202666.510 7  21539974.352                    21539981.145
 113290778.865 8  88278675.80945  21558499.477                    21558507.320
 121316133.015 7  94532242.523 6  23085706.148                    23085714.895
 109840808.377 7  85590363.52046  20901996.234                    20902003.809
 116449868.669 7  90740251.424 7  22159661.484                    22159669.730
 124721327.488 6  97185494.45943  23733683.336                    23733691.414
 127731207.198 7  99530858.638 6  24306446.086                    24306457.320
 123617271.317 7  96325235.23844  23523599.031                    23523607.836
 108329935.219 8  84413071.72246  20614483.695                    20614489.086
 11  8 18  0 24 30.0000000  0  9G12G04G17G10G05G30G25G09G02
 113129655.203 7  88153102.016 7  21527869.898                    21527877.055
 113366184.274 8  88337433.25345  21572848.789                    21572856.652
 121367568.280 7  94572321.909 6  23095494.125                    23095502.430
 109834496.785 8  85585445.41646  20900794.695                    20900803.039
 116357128.086 7  90667986.098 7  22142013.063                    22142021.496
 124622117.715 6  97108188.21743  23714803.484                    23714812.867
 127630217.608 7  99452165.461 6  24287227.781                    24287239.305
 123694211.438 7  96385188.50544  23538240.219                    23538249.809
 108326885.180 8  84410695.08346  20613903.195                    20613908.266
 11  8 18  0 25  0.0000000  0  9G12G04G17G10G05G30G25G09G02
 113066455.676 8  88103855.623 7  21515843.336                    21515849.980
 113441747.436 8  88396313.62245  21587227.789                    21587235.621
 121419153.961 7  94612518.479 6  23105310.906                    23105319.188
 109828812.225 8  85581015.91046  20899713.398                    20899721.449
 116264663.801 7  90595936.076 7  22124417.797                    22124425.770
 124523160.236 6  97031078.51843  23695972.727                    23695981.598
 127529378.045 6  99373589.202 6  24268039.023                    24268050.703
 123771347.982 7  96445294.83944  23552917.852                    23552927.965
 108324136.083 8  84408552.94146  20613379.805                    20613384.859
 11  8 18  0 25 30.0000000  0  9G12G04G17G10G05G30G25G09G02
 113003666.580 8  88054929.056 7  21503894.797                    21503902.438
 113517466.028 8  88455315.10945  21601636.375                    21601644.430
 121470890.441 7  94652832.592 6  23115155.836                    23115164.129
 109823755.140 7  85577075.35146  20898750.914                    20898758.793
 116172478.948 7  90524103.790 7  22106875.922                    22106883.586
 124424457.554 7  96954167.43043  23677190.500                    23677199.324
 127428690.858 7  99295131.676 6  24248879.539                    24248890.520
 123848677.584 7  96505551.57243  23567633.234                    23567643.727
 108321686.583 8  84406644.25146  20612914.086                    20612918.949
 11  8 18  0 26  0.0000000  0  9G12G04G17G10G05G30G25G09G02
 112941290.476 8  88006324.293 7  21492025.297                    21492032.184
 113593338.404 8  88514436.42145  21616075.063                    21616082.883
 121522778.587 7  94693264.872 6  23125030.070                    23125038.508
 109819326.064 8  85573624.13646  20897908.367                    20897915.844
 116080575.840 7  90452491.043 7  22089387.250                    22089395.461
 124326012.771 7  96877457.26543  23658457.086                    23658465.453
 127328158.872 6  99216795.081 6  24229748.336                    24229759.879
 123926196.884 7  96565956.14744  23582385.930                    23582394.938
 108319536.023 8  84404968.50746  20612504.742                    20612509.754
 11  8 18  0 26 30.0000000  0  9G12G04G17G10G05G30G25G09G02
 112879329.860 7  87958043.293 7  21480234.648                    21480242.176
 113669362.283 8  88573675.78645  21630541.734                    21630549.879
 121574819.067 7  94733815.845 6  23134932.555                    23134940.742
 109815525.277 7  85570662.51346  20897184.875                    20897193.086
 115988957.721 7  90381100.365 7  22071952.094                    22071960.746
 124227828.867 7  96800950.43843  23639772.867                    23639781.957
 127227784.734 7  99138581.478 6  24210647.875                    24210659.242
 124003902.319 6  96626505.75444  23597172.703                    23597182.109
 108317683.289 8  84403524.82646  20612152.313                    20612157.359
 11  8 18  0 27  0.0000000  0  9G12G04G17G10G05G30G25G09G02
 112817786.821 8  87910087.673 7  21468523.266                    21468530.078
 113745535.424 8  88633031.44945  21645037.555                    21645045.215
 121627012.322 7  94774485.865 6  23144864.195                    23144873.125
 109812353.054 8  85568190.67546  20896581.188                    20896588.547
 115897627.214 7  90309933.800 7  22054572.898                    22054580.852
 124129908.335 7  96724648.80343  23621139.656                    23621148.051
 127127570.758 7  99060492.687 6  24191577.867                    24191588.914
 124081790.575 7  96687197.80544  23611993.844                    23612003.785
 108316126.913 8  84402312.07546  20611855.977                    20611860.785
 11  8 18  0 27 30.0000000  0  9G12G04G17G10G05G30G25G09G02
 112756663.820 8  87862459.366 7  21456892.258                    21456898.984
 113821856.079 8  88692502.06445  21659560.227                    21659568.285
 121679358.836 7  94815275.305 6  23154825.711                    23154834.371
 109809810.169 7  85566209.22146  20896096.859                    20896104.945
 115806587.188 7  90238993.591 7  22037248.484                    22037257.148
 124032254.226 7  96648554.77643  23602556.953                    23602565.105
 127027519.696 6  98982530.854 6  24172539.086                    24172549.559
 124159858.287 7  96748029.70244  23626849.477                    23626859.957
 108314865.894 8  84401329.47246  20611615.781                    20611621.113
 11  8 18  0 28  0.0000000  0  9G12G04G17G10G05G30G25G09G02
 112695963.139 8  87815160.136 7  21445341.117                    21445348.234
 113898322.000 8  88752085.87045  21674111.703                    21674119.328
 121731859.064 7  94856184.550 6  23164816.305                    23164825.273
 109807896.807 8  85564718.30446  20895733.273                    20895741.113
 115715840.862 7  90168282.221 7  22019980.273                    22019988.469
 123934869.129 6  96572670.40844  23584025.055                    23584033.004
 126927633.941 6  98904697.856 6  24153531.266                    24153542.375
 124238101.991 7  96808998.72344  23641739.359                    23641749.523
 108313898.973 8  84400576.03446  20611431.898                    20611436.922
 11  8 18  0 28 30.0000000  0  9G12G04G17G10G05G30G25G09G02
 112635687.103 8  87768191.811 7  21433870.391                    21433878.012
 113974931.190 8  88811781.31445  21688689.547                    21688697.832
 121784513.500 7  94897213.936 6  23174836.117                    23174844.703
 109806613.134 8  85563718.05246  20895488.828                    20895496.160
 115625391.318 7  90097802.124 7  22002767.727                    22002776.152
 123837756.023 7  96496997.93244  23565544.375                    23565553.102
 126827916.248 7  98826995.806 6  24134555.352                    24134566.816
 124316518.197 6  96870102.17943  23656661.547                    23656671.590
 108313225.273 8  84400051.08346  20611303.680                    20611308.730
 11  8 18  0 29  0.0000000  0  9G12G04G17G10G05G30G25G09G02
 112575838.062 8  87721556.217 7  21422482.094                    21422489.332
 114051681.776 8  88871586.93845  21703295.008                    21703302.922
 121837323.007 7  94938364.134 6  23184885.797                    23184894.820
 109805959.568 8  85563208.80646  20895364.391                    20895372.246
 115535241.050 7  90027555.219 7  21985612.703                    21985620.922
 123740917.741 7  96421539.63543  23547117.250                    23547125.656
 126728369.232 6  98749426.746 6  24115613.102                    24115623.496
 124395103.497 7  96931337.42244  23671616.148                    23671625.238
 108312843.655 8  84399753.72346  20611231.242                    20611236.230
 11  8 18  0 29 30.0000000  0  9G12G04G17G10G05G30G25G09G02
 112516418.725 8  87675255.464 7  21411175.320                    21411181.910
 114128571.782 8  88931501.20145  21717926.281                    21717934.512
 121890288.027 7  94979635.535 6  23194964.102                    23194973.531
 109805936.736 8  85563191.04246  20895359.836                    20895367.469
 115445393.211 7  89957543.988 7  21968515.414                    21968523.867
 123644357.271 7  96346297.79743  23528742.219                    23528750.723
 126628995.584 6  98671992.798 6  24096702.164                    24096713.543
 124473854.646 7  96992701.88343  23686602.039                    23686611.133
 108312753.166 8  84399683.22246  20611213.664                    20611219.023
 11  8 18  0 30  0.0000000  0  9G12G04G17G10G05G30G25G09G02
 112457431.302 8  87629291.267 7  21399950.219                    21399956.996
 114205599.096 7  88991522.45145  21732584.164                    21732592.242
 121943409.182 7  95021028.597 6  23205074.039                    23205081.676
 109806544.583 8  85563664.71646  20895475.945                    20895483.473
 115355850.546 7  89887770.553 7  21951476.156                    21951484.000
 123548077.440 6  96271274.63143  23510419.969                    23510428.766
 126529797.873 7  98594695.974 6  24077825.148                    24077836.383
 124552768.268 6  97054192.95743  23701618.883                    23701628.328
 108312952.656 8  84399838.67246  20611251.906                    20611257.086
 11  8 18  0 30 30.0000000  0  9G12G04G17G10G05G30G25G09G02
 112398878.241 8  87583665.544 7  21388807.852                    21388814.477
 114282761.991 7  89051649.35745  21747268.172                    21747276.074
 121996687.100 7  95062543.801 6  23215212.125                    23215220.215
 109807783.482 8  85564630.11446  20895711.391                    20895719.137
 115266616.051 7  89818237.246 7  21934495.313                    21934503.605
 123452081.160 7  96196472.44743  23492153.656                    23492161.258
 126430778.813 7  98517538.339 6  24058983.039                    24058993.250
 124631841.002 6  97115808.01343  23716665.766                    23716675.344
 108313441.217 8  84400219.37646  20611344.867                    20611350.188
 11  8 18  0 31  0.0000000  0  9G12G04G17G10G05G30G25G09G02
 112340760.845 7  87538379.293 7  21377747.859                    21377754.953
 114360058.108 8  89111880.06145  21761976.961                    21761984.941
 122050121.997 7  95104181.336 6  23225380.391                    23225389.020
 109809653.099 8  85566086.98246  20896067.250                    20896074.645
 115177692.188 7  89748945.996 7  21917573.398                    21917581.688
 123356370.837 7  96121893.02243  23473939.664                    23473947.813
 126331940.543 7  98440521.599 6  24040174.484                    24040184.891
 124711069.017 7  97177544.08643  23731742.047                    23731752.121
 108314216.889 8  84400823.79246  20611492.344                    20611497.367
 11  8 18  0 31 30.0000000  0  9G12G04G17G10G05G30G25G09G02
 112283082.107 7  87493434.873 7  21366772.563                    21366779.418
 114437485.602 8  89172213.15745  21776711.094                    21776718.527
 122103714.681 7  95145941.817 6  23235578.773                    23235587.648
 109812153.997 7  85568035.75346  20896543.648                    20896550.695
 115089082.119 7  89679899.246 7  21900711.992                    21900719.965
 123260949.606 7  96047538.89943  23455781.766                    23455789.273
 126233286.119 7  98363648.109 6  24021400.953                    24021411.703
 124790449.194 6  97239398.72844  23746847.844                    23746857.523
 108315279.044 8  84401651.44246  20611694.852                    20611699.848
 11  8 18  0 32  0.0000000  0  9G12G04G17G10G05G30G25G09G02
 112225844.088 8  87448833.853 7  21355880.031                    21355887.313
 114515042.471 7  89232647.05345  21791469.352                    21791477.625
 122157465.624 7  95187825.644 6  23245807.273                    23245815.617
 109815286.457 8  85570476.65146  20897139.078                    20897146.961
 115000788.650 7  89611099.206 7  21883909.742                    21883918.055
 123165820.314 6  95973412.20744  23437679.352                    23437686.875
 126134817.996 7  98286919.823 6  24002662.938                    24002674.137
 124869978.365 6  97301369.41943  23761981.438                    23761991.695
 108316626.541 8  84402701.44046  20611951.313                    20611956.105
 11  8 18  0 32 30.0000000  0  9G12G04G17G10G05G30G25G09G02
 112169049.216 7  87404578.148 7  21345072.352                    21345079.664
 114592726.936 7  89293180.37245  21806251.969                    21806260.645
 122211375.394 7  95229833.187 6  23256065.875                    23256074.270
 109819050.602 8  85573409.77446  20897855.492                    20897863.188
 114912814.731 7  89542548.143 7  21867168.742                    21867176.828
 123070985.759 7  95899515.20544  23419632.406                    23419640.469
 126036538.904 7  98210338.817 6  23983961.570                    23983972.145
 124949653.130 6  97363453.60944  23777142.695                    23777153.055
 108318258.376 8  84403973.00046  20612261.641                    20612266.535
 11  8 18  0 33  0.0000000  0  9G12G04G17G10G05G30G25G09G02
 112112699.811 8  87360669.566 7  21334349.484                    21334356.715
 114670537.023 8  89353811.57145  21821059.164                    21821067.543
 122265444.467 7  95271964.868 7  23266354.453                    23266363.758
 109823446.308 7  85576835.01646  20898692.031                    20898699.773
 114825163.289 7  89474248.376 7  21850489.406                    21850497.367
 122976448.854 7  95825850.13044  23401642.258                    23401650.793
 125938451.353 7  98133907.066 6  23965295.133                    23965306.148
 125029469.872 7  97425648.40744  23792332.258                    23792341.926
 108320173.264 7  84405465.11346  20612626.031                    20612630.984
 11  8 18  0 33 30.0000000  0  9G12G04G17G10G05G30G25G09G02
 112056798.224 7  87317109.933 7  21323711.828                    21323718.668
 114748470.603 8  89414539.01645  21835889.469                    21835897.250
 122319673.654 7  95314221.327 6  23276674.586                    23276683.227
 109828473.689 8  85580752.47446  20899648.641                    20899656.156
 114737836.972 7  89406201.945 7  21833871.836                    21833879.637
 122882212.393 7  95752419.15544  23383709.844                    23383718.316
 125840558.061 7  98057626.678 6  23946666.805                    23946677.473
 125109425.215 6  97487951.20543  23807547.219                    23807557.539
 108322370.014 8  84407176.85446  20613043.813                    20613048.965
 11  8 18  0 34  0.0000000  0  9G12G04G17G10G05G30G25G09G02
 112001346.481 7  87273900.809 7  21313159.617                    21313165.984
 114826526.014 8  89475361.38045  21850743.195                    21850751.469
 122374063.202 7  95356602.747 6  23287024.367                    23287032.563
 109834132.757 7  85585162.14946  20900725.414                    20900732.953
 114650838.614 7  89338411.070 7  21817316.203                    21817323.996
 122788279.378 7  95679224.63344  23365835.594                    23365843.844
 125742861.703 7  97981499.748 6  23928075.711                    23928086.938
 125189515.847 7  97550359.46843  23822788.555                    23822797.988
 108324847.590 7  84409107.43746  20613515.430                    20613520.402
 11  8 18  0 34 30.0000000  0  9G12G04G17G10G05G30G25G09G02
 111946346.531 8  87231043.749 7  21302693.695                    21302700.086
 114904700.988 7  89536276.91945  21865618.938                    21865627.383
 122428613.626 7  95399109.526 6  23297405.148                    23297413.434
 109840423.239 8  85590063.84046  20901922.594                    20901929.641
 114564170.856 7  89270877.807 7  21800823.984                    21800832.039
 122694652.142 6  95606268.36944  23348018.078                    23348027.258
 125645364.597 7  97905528.080 6  23909522.359                    23909533.480
 125269738.469 7  97612870.56344  23838053.805                    23838063.078
 108327604.509 7  84411255.68346  20614040.039                    20614044.855
 11  8 18  0 35  0.0000000  0  9G12G04G17G10G05G30G25G09G02
 111891801.180 8  87188540.913 7  21292313.969                    21292320.605
 114982994.019 7  89597284.44545  21880517.750                    21880526.070
 122483325.505 7  95441742.122 6  23307816.320                    23307825.250
 109847345.397 7  85595457.74046  20903240.016                    20903247.746
 114477836.780 7  89203604.559 7  21784395.172                    21784402.980
 122601334.078 7  95533553.05044  23330260.578                    23330269.293
 125548069.878 7  97829714.089 6  23891008.258                    23891018.859
 125350089.920 6  97675482.02143  23853343.984                    23853354.691
 108330640.216 8  84413621.17346  20614617.414                    20614622.563
 11  8 18  0 35 30.0000000  0  9G12G04G17G10G05G30G25G09G02
 111837712.049 7  87146393.560 7  21282020.984                    21282027.867
 115061402.936 7  89658382.27345  21895438.484                    21895446.832
 122538199.361 7  95484500.919 6  23318257.828                    23318267.188
 109854898.930 8  85601343.62546  20904676.961                    20904684.344
 114391839.345 7  89136593.629 7  21768030.508                    21768038.152
 122508327.725 6  95461080.58544  23312561.852                    23312570.898
 125450979.820 7  97754059.563 7  23872532.469                    23872543.102
 125430566.234 6  97738190.79144  23868658.086                    23868668.277
 108333953.119 8  84416202.66346  20615247.969                    20615252.766
 11  8 18  0 36  0.0000000  0  9G12G04G17G10G05G30G25G09G02
 111784081.714 7  87104603.724 7  21271815.500                    21271822.133
 115139925.931 8  89719569.00045  21910380.984                    21910388.953
 122593236.088 7  95527386.626 6  23328731.188                    23328740.582
 109863084.000 8  85607721.62046  20906234.414                    20906242.590
 114306180.962 7  89069846.891 7  21751730.109                    21751737.848
 122415636.082 6  95388853.39743  23294923.953                    23294932.238
 125354097.292 7  97678566.780 6  23854096.016                    23854107.383
 125511164.518 6  97800994.62643  23883995.328                    23884005.438
 108337542.450 8  84418999.55146  20615930.805                    20615936.137
 11  8 18  0 36 30.0000000  0  9G12G04G17G10G05G30G25G09G02
 111730912.573 7  87063173.248 7  21261697.852                    21261704.305
 115218561.296 8  89780843.28445  21925345.195                    21925353.250
 122648435.629 7  95570399.191 6  23339235.055                    23339245.059
 109871900.427 8  85614591.57446  20907912.367                    20907919.875
 114220864.578 7  89003366.655 7  21735494.594                    21735502.809
 122323262.040 7  95316873.65444  23277344.805                    23277353.941
 125257425.022 7  97603237.795 6  23835699.648                    23835710.672
 125591881.380 6  97863890.82843  23899355.586                    23899365.914
 108341406.814 8  84422010.74446  20616666.625                    20616671.242
 11  8 18  0 37  0.0000000  0  9G12G04G17G10G05G30G25G09G02
 111678206.187 7  87022103.360 7  21251668.125                    21251674.551
 115297306.940 8  89842203.50645  21940329.578                    21940338.273
 122703798.684 7  95613539.174 7  23349770.883                    23349780.883
 109881347.970 8  85621953.31946  20909710.258                    20909717.684
 114135893.097 7  88937155.173 7  21719325.234                    21719333.203
 122231208.164 7  95245143.41644  23259827.875                    23259836.473
 125160965.368 7  97528074.478 6  23817344.586                    23817354.883
 125672713.156 6  97926876.57944  23914737.508                    23914747.844
 108345544.748 8  84425235.12146  20617453.984                    20617458.859
 11  8 18  0 37 30.0000000  0  9G12G04G17G10G05G30G25G09G02
 111625964.694 7  86981395.720 7  21241727.070                    21241733.418
 115376160.870 8  89903648.10645  21955335.055                    21955343.000
 122759325.597 7  95656806.860 6  23360337.672                    23360346.813
 109891426.194 8  85629806.49146  20911628.086                    20911635.160
 114051269.039 7  88871214.414 7  21703221.664                    21703229.832
 122139477.340 7  95173664.90744  23242372.023                    23242380.465
 125064720.994 7  97453078.905 7  23799029.266                    23799040.270
 125753656.715 6  97989949.39544  23930140.109                    23930151.137
 108349955.117 8  84428671.76546  20618293.070                    20618298.203
 11  8 18  0 38  0.0000000  0  9G12G04G17G10G05G30G25G09G02
 111574190.247 7  86941052.013 7  21231874.281                    21231881.367
 115455121.398 7  89965175.78245  21970360.930                    21970368.930
 122815016.965 6  95700202.689 6  23370935.602                    23370944.332
 109902135.155 8  85638151.14246  20913665.859                    20913673.590
 113966995.117 7  88805546.471 7  21687185.344                    21687193.273
 122048072.264 7  95102440.24744  23224978.781                    23224986.754
 124968694.595 7  97378253.164 7  23780755.898                    23780767.414
 125834708.511 6  98053106.56243  23945563.992                    23945574.680
 108354636.956 8  84432319.96646  20619184.141                    20619189.234
 11  8 18  0 38 30.0000000  0  9G12G04G17G10G05G30G25G09G02
 111522884.803 8  86901073.752 7  21222111.281                    21222118.109
 115534186.316 7  90026784.79045  21985406.094                    21985414.496
 122870872.881 7  95743726.742 6  23381564.328                    23381573.875
 109913474.281 8  85646986.84746  20915823.477                    20915830.984
 113883073.787 7  88740153.275 7  21671215.234                    21671223.383
 121956995.586 7  95031471.48044  23207647.086                    23207655.336
 124872888.549 7  97303599.129 6  23762524.727                    23762535.895
 125915865.164 6  98116345.43643  23961008.000                    23961018.375
 108359588.456 8  84436178.29446  20620126.258                    20620131.559
 11  8 18  0 39  0.0000000  0  9G12G04G17G10G05G30G25G09G02
 111472051.118 7  86861463.094 7  21212437.781                    21212444.840
 115613354.277 7  90088474.08345  22000471.219                    22000479.961
 122926894.641 7  95787380.001 6  23392225.180                    23392233.957
 109925443.832 8  85656313.78946  20918100.891                    20918108.707
 113799508.739 7  88675037.722 7  21655313.070                    21655320.863
 121866250.511 7  94960761.10344  23190378.672                    23190387.449
 124777305.978 7  97229119.227 6  23744335.531                    23744346.965
 125997123.591 6  98179663.60943  23976470.797                    23976481.281
 108364809.423 8  84440246.60146  20621119.336                    20621124.801
 11  8 18  0 39 30.0000000  0  9G12G04G17G10G05G30G25G09G02
 111421691.128 7  86822221.545 7  21202854.664                    21202861.641
 115692623.508 7  90150242.30045  22015555.742                    22015563.836
 122983082.576 7  95831162.796 6  23402917.391                    23402925.770
 109938043.392 8  85666131.63645  20920498.953                    20920506.629
 113716302.247 7  88610201.545 7  21639479.766                    21639487.527
 121775840.165 7  94890311.54244  23173173.813                    23173182.570
 124681949.719 7  97154815.672 6  23726190.563                    23726201.324
 126078480.700 6  98243058.67243  23991953.031                    23991963.195
 108370298.764 8  84444524.01646  20622164.664                    20622169.520
 11  8 18  0 40  0.0000000  0  9G12G04G17G10G05G30G25G09G02
 111371806.733 8  86783350.588 7  21193362.359                    21193369.242
 115771991.895 7  90212087.77445  22030659.102                    22030667.785
 123039436.730 7  95875075.095 6  23413641.680                    23413650.109
 109951272.349 8  85676439.92946  20923016.250                    20923024.473
 113633456.911 7  88545646.794 7  21623714.500                    21623722.039
 121685766.825 7  94820124.58343  23156033.578                    23156041.594
 124586822.155 7  97080690.310 6  23708088.563                    23708099.410
 126159932.850 6  98306527.78043  24007453.516                    24007462.836
 108376054.405 8  84449008.94346  20623259.164                    20623264.887
 11  8 18  0 40 30.0000000  0  9G12G04G17G10G05G30G25G09G02
 111322400.068 8  86744851.878 7  21183960.266                    21183967.035
 115851457.836 7  90274009.26145  22045781.117                    22045789.172
 123095958.100 7  95919117.679 6  23424396.422                    23424405.512
 109965130.490 8  85687238.49046  20925653.242                    20925660.984
 113550975.315 7  88481375.477 7  21608018.852                    21608026.859
 121596033.430 7  94750202.52743  23138957.961                    23138965.574
 124491925.958 7  97006745.245 6  23690030.000                    23690041.063
 126241476.723 6  98370068.36743  24022970.281                    24022980.145
 108382075.686 8  84453700.86646  20624405.172                    20624410.371
 11  8 18  0 41  0.0000000  0  9G12G04G17G10G05G30G25G09G02
 111273473.582 8  86706727.352 7  21174649.797                    21174656.656
 115931019.737 8  90336005.54845  22060921.625                    22060929.613
 123152646.818 6  95963290.659 6  23435184.125                    23435193.488
 109979617.493 8  85698527.06646  20928410.047                    20928417.246
 113468860.835 7  88417390.218 7  21592393.031                    21592400.703
 121506643.053 7  94680547.74944  23121946.758                    23121954.789
 124397264.096 7  96932982.782 6  23672016.703                    23672027.305
 126323109.119 6  98433677.94443  24038503.641                    24038514.418
 108388361.616 8  84458599.01246  20625601.398                    20625606.648
 11  8 18  0 41 30.0000000  0  9G12G04G17G10G05G30G25G09G02
 111225028.467 8  86668977.914 7  21165431.078                    21165437.820
 116010675.406 7  90398074.88445  22076079.078                    22076087.383
 123209503.200 7  96007594.307 6  23446003.617                    23446012.551
 109994732.769 8  85710305.21546  20931286.586                    20931294.359
 113387115.960 7  88353692.963 7  21576837.281                    21576844.895
 121417598.007 7  94611162.05944  23105001.984                    23105010.809
 124302838.803 7  96859404.663 6  23654047.492                    23654058.371
 126404826.637 7  98497353.86643  24054054.422                    24054064.906
 108394910.464 8  84463702.02946  20626847.703                    20626852.961
 11  8 18  0 42  0.0000000  0  9G12G04G17G10G05G30G25G09G02
 111177067.063 8  86631605.382 7  21156304.297                    21156310.844
 116090423.273 7  90460216.04845  22091254.898                    22091263.176
 123266528.093 7  96052029.259 6  23456855.016                    23456863.953
 110010476.097 8  85722572.75246  20934282.414                    20934289.930
 113305742.794 7  88290285.364 7  21561352.102                    21561360.469
 121328901.503 7  94542047.92144  23088123.844                    23088132.152
 124208653.076 7  96786013.220 6  23636125.148                    23636135.543
 126486626.043 6  98561093.57943  24069620.281                    24069630.828
 108401721.526 8  84469009.36746  20628143.828                    20628149.211
 11  8 18  0 42 30.0000000  0  9G12G04G17G10G05G30G25G09G02
 111129591.454 8  86594611.405 7  21147269.953                    21147276.551
 116170261.323 7  90522427.50145  22106447.328                    22106455.559
 123323721.708 7  96096595.668 6  23467739.320                    23467748.289
 110026846.721 8  85735329.09946  20937397.578                    20937405.125
 113224744.460 8  88227169.832 7  21545939.188                    21545946.676
 121240556.056 7  94473207.39744  23071312.344                    23071320.742
 124114709.432 7  96712810.440 6  23618247.609                    23618258.566
 126568504.086 7  98624894.55643  24085201.148                    24085211.641
 108408793.285 8  84474519.85246  20629489.664                    20629494.508
 11  8 18  0 43  0.0000000  0  9G12G04G17G10G05G30G25G09G02
 111082603.701 8  86557997.562 7  21138328.672                    21138335.695
 116250188.098 7  90584708.07845  22121657.055                    22121665.516
 123381084.659 7  96141294.036 6  23478654.938                    23478663.871
 110043844.220 8  85748573.90946  20940631.508                    20940639.543
 113144123.571 7  88164348.417 7  21530597.461                    21530605.348
 121152564.626 7  94404642.66643  23054568.109                    23054576.336
 124021010.645 7  96639798.444 6  23600418.344                    23600427.957
 126650457.381 6  98688754.18143  24100796.422                    24100806.625
 108416124.741 8  84480232.69946  20630884.320                    20630889.563
 11  8 18  0 43 30.0000000  0  9G12G04G17G10G05G30G25G09G02
 111036106.110 8  86521765.681 7  21129480.352                    21129487.148
 116330201.834 7  90647056.42245  22136883.352                    22136891.309
 123438617.520 7  96186124.777 6  23489602.695                    23489611.457
 110061468.032 8  85762306.75446  20943986.188                    20943993.465
 113063882.860 8  88101823.244 7  21515327.992                    21515336.039
 121064929.954 7  94336355.93844  23037892.047                    23037900.266
 123927559.395 7  96566979.366 6  23582634.867                    23582644.875
 126732482.750 6  98752670.02743  24116405.398                    24116415.523
 108423714.816 8  84486147.07046  20632328.727                    20632333.832
 11  8 18  0 44  0.0000000  0  9G12G04G17G10G05G30G25G09G02
 110990099.776 8  86485916.589 7  21120725.883                    21120732.367
 116410300.499 7  90709470.93245  22152125.734                    22152133.867
 123496320.472 7  96231088.063 6  23500583.336                    23500592.199
 110079717.435 8  85776527.07546  20947458.359                    20947466.117
 112984024.689 7  88039596.143 7  21500131.430                    21500138.992
 120977654.518 7  94268349.14744  23021283.219                    23021291.578
 123834357.999 7  96494354.962 6  23564899.109                    23564909.277
 126814576.546 7  98816639.10943  24132027.938                    24132037.762
 108431561.589 8  84492261.45046  20633821.961                    20633827.055
 11  8 18  0 44 30.0000000  0  9G12G04G17G10G05G30G25G09G02
 110944587.402 8  86450452.404 7  21112064.734                    21112071.836
 116490482.803 7  90771950.62745  22167383.703                    22167391.953
 123554193.933 7  96276184.203 6  23511596.875                    23511605.176
 110098592.099 8  85791234.60146  20951050.414                    20951057.789
 112904552.313 7  87977669.673 7  21485008.438                    21485015.840
 120890741.570 7  94200624.82144  23004744.875                    23004753.191
 123741409.697 7  96421927.807 6  23547210.688                    23547221.922
 126896735.793 6  98880659.20143  24147662.047                    24147672.461
 108439664.819 8  84498575.67546  20635363.969                    20635368.910
 11  8 18  0 45  0.0000000  0  9G12G04G17G10G05G30G25G09G02
 110899570.487 8  86415374.280 7  21103498.602                    21103505.629
 116570746.843 8  90834493.99545  22182657.609                    22182665.492
 123612238.472 6  96321413.630 6  23522642.219                    23522651.078
 110118091.220 8  85806428.73146  20954760.617                    20954768.516
 112825467.955 8  87916045.556 7  21469959.023                    21469966.480
 120804193.776 7  94133185.03544  22988275.352                    22988283.645
 123648716.972 7  96349699.786 6  23529572.516                    23529582.715
 126978957.208 6  98944727.76243  24163308.688                    24163319.047
 108448023.160 8  84505088.68746  20636954.742                    20636959.543
 11  8 18  0 45 30.0000000  0  9G12G04G17G10G05G30G25G09G02
 110855050.737 8  86380683.583 7  21095026.641                    21095033.352
 116651090.440 7  90897099.37845  22197946.211                    22197954.832
 123670454.278 7  96366776.581 6  23533720.320                    23533729.414
 110138213.801 8  85822108.66046  20958589.945                    20958597.539
 112746773.792 8  87854725.479 7  21454984.008                    21454991.523
 120718013.372 7  94066031.49144  22971875.523                    22971884.117
 123556282.065 7  96277672.670 7  23511983.008                    23511993.086
 127061237.266 6  99008841.98143  24178965.883                    24178976.469
 108456634.286 8  84511798.66846  20638593.391                    20638598.488
 11  8 18  0 46  0.0000000  0  9G12G04G17G10G05G30G25G09G02
 110811030.433 8  86346382.055 7  21086650.070                    21086656.793
 116731512.391 7  90959765.78545  22213250.070                    22213258.535
 123728841.932 7  96412273.402 6  23544830.570                    23544839.578
 110158959.543 8  85838274.17446  20962537.547                    20962545.473
 112668472.942 8  87793711.879 7  21440083.555                    21440091.379
 120632203.582 7  93999166.79344  22955546.742                    22955554.824
 123464108.033 7  96205848.835 6  23494442.445                    23494452.914
 127143573.045 6  99072999.59143  24194634.258                    24194644.461
 108465497.990 8  84518705.45946  20640279.750                    20640285.160
 11  8 18  0 46 30.0000000  0  9G12G04G17G10G05G30G25G09G02
 110767511.398 8  86312471.125 7  21078368.344                    21078375.430
 116812010.954 7  91022491.91045  22228568.539                    22228576.945
 123787401.950 7  96457904.516 6  23555974.430                    23555983.570
 110180328.000 8  85854924.93146  20966603.875                    20966611.551
 112590567.856 8  87733006.660 7  21425258.961                    21425266.469
 120546767.144 7  93932592.97344  22939288.383                    22939296.875
 123372197.614 7  96134230.389 6  23476952.164                    23476962.605
 127225961.266 6  99137198.13443  24210311.297                    24210322.234
 108474613.101 8  84525808.14946  20642014.313                    20642020.035
 11  8 18  0 47  0.0000000  0  9G12G04G17G10G05G30G25G09G02
 110724495.413 8  86278952.206 7  21070182.641                    21070189.813
 116892584.528 7  91085276.48345  22243901.203                    22243909.863
 123846134.672 6  96503670.235 6  23567150.781                    23567160.234
 110202318.110 8  85872060.08346  20970788.586                    20970796.137
 112513061.143 8  87672611.866 7  21410509.922                    21410517.539
 120461706.578 7  93866312.08444  22923102.617                    22923110.324
 123280553.307 7  96062819.335 7  23459512.992                    23459523.805
 127308398.424 6  99201434.76343  24225999.094                    24226009.875
 108483978.090 8  84533105.56546  20643797.063                    20643801.840
 11  8 18  0 47 30.0000000  0  9G12G04G17G10G05G30G25G09G02
 110681984.448 8  86245826.791 7  21062093.008                    21062099.871
 116973231.303 7  91148118.09445  22259247.547                    22259255.957
 123905040.674 7  96549570.941 6  23578360.820                    23578369.961
 110224929.216 8  85889679.13346  20975091.672                    20975099.043
 112435955.517 8  87612529.606 7  21395837.016                    21395844.848
 120377024.864 7  93800326.38144  22906987.539                    22906996.148
 123189177.939 7  95991617.805 6  23442124.352                    23442134.676
 127390881.355 6  99265707.05643  24241695.094                    24241705.949
 108493592.044 8  84540596.96746  20645625.977                    20645631.090
 11  8 18  0 48  0.0000000  0  9G12G04G17G10G05G30G25G09G02
 110639980.646 8  86213096.577 7  21054100.445                    21054107.238
 117053949.919 7  91211015.67245  22274608.328                    22274616.516
 123964120.137 7  96595606.859 6  23589602.836                    23589612.293
 110248160.338 8  85907781.31346  20979512.180                    20979518.930
 112359253.609 8  87552761.930 7  21381241.008                    21381249.215
 120292724.806 7  93734638.08744  22890945.789                    22890953.941
 123098074.253 7  95920627.986 6  23424787.688                    23424798.617
 127473407.031 6  99330012.64743  24257399.469                    24257410.430
 108503453.799 8  84548281.47246  20647502.492                    20647507.957
 11  8 18  0 48 30.0000000  0  9G12G04G17G10G05G30G25G09G02
 110598485.608 8  86180762.799 7  21046203.773                    21046210.348
 117134738.444 7  91273967.74345  22289981.867                    22289990.055
 124023373.642 7  96641778.409 6  23600878.805                    23600887.637
 110272011.319 8  85926366.49646  20984050.703                    20984058.555
 112282957.871 8  87493310.745 7  21366722.688                    21366730.195
 120208809.039 7  93669249.24544  22874977.039                    22874985.184
 123007244.926 7  95849851.949 6  23407503.875                    23407514.156
 127555972.042 6  99394348.88843  24273111.461                    24273122.547
 108513562.050 8  84556158.03546  20649426.102                    20649431.063
 11  8 18  0 49  0.0000000  0  9G12G04G17G10G05G30G25G09G02
 110557500.624 8  86148826.469 7  21038404.992                    21038411.543
 117215595.236 7  91336972.98845  22305368.000                    22305376.703
 124082801.504 7  96688085.802 6  23612187.758                    23612196.434
 110296480.417 8  85945433.33346  20988706.969                    20988714.902
 112207070.478 8  87434177.763 7  21352281.742                    21352289.438
 120125279.927 7  93604161.68044  22859082.250                    22859090.258
 122916692.293 7  95779291.521 6  23390272.461                    23390282.313
 127638573.062 6  99458713.18443  24288829.539                    24288840.488
 108523915.091 8  84564225.35246  20651396.367                    20651402.078
 11  8 18  0 49 30.0000000  0  9G12G04G17G10G05G30G25G09G02
 110517028.131 8  86117289.475 7  21030703.023                    21030709.582
 117296518.739 7  91400030.22845  22320767.398                    22320775.590
 124142403.977 6  96734529.271 6  23623529.281                    23623538.465
 110321566.850 8  85964981.21046  20993480.891                    20993488.160
 112131594.303 8  87375365.187 7  21337918.883                    21337926.707
 120042140.427 7  93539377.71444  22843260.891                    22843268.871
 122826419.217 7  95708948.921 6  23373093.813                    23373103.902
 127721207.102 6  99523103.22643  24304554.898                    24304565.695
 108534512.059 8  84572482.74046  20653413.109                    20653417.867
 11  8 18  0 50  0.0000000  0  9G12G04G17G10G05G30G25G09G02
 110477069.086 8  86086152.575 7  21023098.766                    21023105.941
 117377507.016 7  91463137.92745  22336179.008                    22336187.594
 124202181.719 6  96781109.315 6  23634905.672                    23634913.379
 110347269.867 8  85985009.53546  20998372.289                    20998379.609
 112056531.490 8  87316874.735 7  21323634.648                    21323642.598
 119959393.068 7  93474899.31844  22827514.281                    22827523.402
 122736428.274 7  95638826.180 6  23355969.008                    23355979.430
 127803870.760 6  99587516.31243  24320285.367                    24320296.215
 108545351.482 8  84580929.04246  20655475.469                    20655480.551
 11  8 18  0 50 30.0000000  0  9G12G04G17G10G05G30G25G09G02
 110437625.872 8  86055417.635 7  21015592.883                    21015600.285
 117458559.001 7  91526295.31445  22351602.820                    22351610.809
 124262134.777 6  96827825.925 6  23646313.359                    23646322.473
 110373588.979 8  86005517.93946  21003380.242                    21003387.742
 111981884.909 8  87258708.601 7  21309430.125                    21309437.730
 119877040.979 7  93410728.93144  22811843.133                    22811851.594
 122646722.452 7  95568925.591 6  23338898.625                    23338909.055
 127886560.992 6  99651950.16943  24336020.609                    24336031.414
 108556432.883 8  84589563.89946  20657584.531                    20657589.801
 11  8 18  0 51  0.0000000  0  9G12G04G17G10G05G30G25G09G02
 110398699.999 8  86025085.796 7  21008185.625                    21008192.492
 117539673.023 7  91589501.00844  22367038.281                    22367046.590
 124322263.454 6  96874679.393 6  23657756.055                    23657765.191
 110400522.704 7  86026505.26646  21008505.992                    21008513.559
 111907657.158 8  87200868.841 7  21295304.734                    21295312.465
 119795086.758 7  93346868.55344  22796247.984                    22796256.184
 122557304.359 7  95499249.214 6  23321882.539                    23321893.141
 127969274.744 6  99716402.32043  24351760.992                    24351771.707
 108567754.811 8  84598386.19146  20659738.570                    20659743.844
 11  8 18  0 51 30.0000000  0  9G12G04G17G10G05G30G25G09G02
 110360293.195 8  85995158.438 7  21000877.281                    21000884.223
 117620847.241 7  91652753.60645  22382485.234                    22382493.746
 124382568.384 7  96921670.199 6  23669231.750                    23669240.625
 110428070.225 8  86047970.87946  21013747.875                    21013755.203
 111833850.376 8  87143357.110 7  21281259.875                    21281267.426
 119713532.788 7  93283320.06544  22780728.773                    22780737.035
 122468176.458 7  95429798.934 6  23304922.820                    23304932.684
 128052008.548 7  99780870.11443  24367504.664                    24367515.840
 108579315.795 8  84607394.74246  20661938.828                    20661943.773
 11  8 18  0 52  0.0000000  0  9G12G04G17G10G05G30G25G09G02
 110322407.484 8  85965637.121 7  20993667.883                    20993674.582
 117702080.128 7  91716051.91844  22397944.219                    22397951.668
 124443049.900 6  96968798.621 6  23680740.586                    23680749.754
 110456230.713 8  86069914.13446  21019106.250                    21019113.930
 111760467.329 8  87086175.553 7  21267295.320                    21267303.324
 119632381.916 7  93220085.66944  22765286.516                    22765294.305
 122379341.587 7  95360576.994 7  23288018.313                    23288027.836
 128134759.483 7  99845351.26943  24383252.273                    24383262.227
 108591114.897 8  84616588.84946  20664184.195                    20664188.801
 11  8 18  0 52 30.0000000  0  9G12G04G17G10G05G30G25G09G02
 110285043.567 8  85936522.404 7  20986557.547                    20986564.629
 117783369.904 7  91779394.58745  22413412.336                    22413420.871
 124503708.250 6  97016064.842 6  23692283.875                    23692292.336
 110485002.623 8  86092333.81046  21024582.000                    21024589.402
 111687509.912 8  87029325.645 7  21253412.172                    21253419.938
 119551636.507 7  93157167.21544  22749920.797                    22749928.793
 122290802.054 7  95291585.201 6  23271168.828                    23271179.133
 128217523.910 7  99909842.95743  24399001.633                    24399012.102
 108603150.317 8  84625967.09246  20666474.336                    20666479.676
 11  8 18  0 53  0.0000000  0  9G12G04G17G10G05G30G25G09G02
 110248204.048 8  85907816.298 7  20979547.484                    20979554.203
 117864715.322 7  91842780.59145  22428891.633                    22428900.316
 124564544.024 6  97063469.302 6  23703860.680                    23703869.293
 110514385.215 8  86115229.34946  21030173.063                    21030180.656
 111614980.906 8  86972809.585 7  21239610.461                    21239618.305
 119471299.530 7  93094567.02444  22734633.500                    22734641.125
 122202560.910 7  95222825.917 7  23254377.195                    23254387.500
 128300298.986 7  99974342.96543  24414752.836                    24414764.195
 108615421.476 8  84635529.03146  20668809.375                    20668814.949
 11  8 18  0 53 30.0000000  0  9G12G04G17G10G05G30G25G09G02
 110211890.487 8  85879520.031 7  20972637.305                    20972643.914
 117946114.798 7  91906208.73144  22444381.625                    22444389.836
 124625557.420 7  97111012.187 6  23715471.438                    23715480.211
 110544377.481 8  86138599.95046  21035880.500                    21035887.668
 111542882.925 8  86916629.375 7  21225890.547                    21225898.043
 119391373.594 7  93032287.13244  22719423.703                    22719431.797
 122114620.810 7  95154301.207 7  23237642.352                    23237653.266
 128383081.817 6 100038848.98343  24430506.242                    24430516.566
 108627927.105 8  84645273.68046  20671189.031                    20671194.242
 11  8 18  0 54  0.0000000  0  9G12G04G17G10G05G30G25G09G02
 110176103.987 8  85851634.469 7  20965827.227                    20965834.148
 118027566.741 7  91969677.75744  22459881.414                    22459889.785
 124686748.642 6  97158693.663 6  23727114.891                    23727123.934
 110574977.899 8  86162444.44546  21041703.125                    21041711.371
 111471218.231 8  86860786.795 7  21212253.406                    21212260.945
 119311861.250 7  92970329.50244  22704293.055                    22704300.938
 122026984.284 7  95086013.033 7  23220965.539                    23220976.480
 128465868.788 6 100103358.21943  24446259.500                    24446270.559
 108640665.891 8  84655199.99746  20673613.555                    20673618.191
 11  8 18  0 54 30.0000000  0  9G12G04G17G10G05G30G25G09G02
 110140846.366 8  85824161.003 7  20959117.820                    20959124.973
 118109069.609 7  92033186.46344  22475390.961                    22475399.180
 124748118.007 6  97206513.928 6  23738792.719                    23738802.215
 110606185.365 8  86186761.95846  21047642.203                    21047649.816
 111399989.030 8  86805283.563 7  21198698.523                    21198706.184
 119232765.181 7  92908696.25844  22689241.227                    22689249.746
 121939654.013 7  95017963.534 7  23204347.477                    23204357.953
 128548656.916 6 100167868.38443  24462013.813                    24462024.984
 108653636.320 8  84665306.80546  20676081.594                    20676086.641
 11  8 18  0 55  0.0000000  0  9G12G04G17G10G05G30G25G09G02
 110106119.265 8  85797100.939 7  20952509.414                    20952516.027
 118190622.028 7  92096733.77544  22490909.836                    22490917.895
 124809666.021 6  97254473.395 6  23750506.070                    23750514.898
 110637999.272 8  86211552.03046  21053696.422                    21053703.684
 111329197.553 8  86750121.409 7  21185227.703                    21185235.051
 119154087.949 7  92847389.36044  22674270.008                    22674278.184
 121852632.608 7  94950154.712 7  23187787.773                    23187798.262
 128631443.027 6 100232376.90043  24477767.648                    24477777.996
 108666837.490 8  84675593.42546  20678593.258                    20678598.613
 11  8 18  0 55 30.0000000  0  9G12G04G17G10G05G30G25G09G02
 110071924.465 8  85770455.644 7  20946002.367                    20946009.133
 118272222.455 7  92160318.51444  22506437.570                    22506446.215
 124871393.070 7  97302572.417 6  23762252.023                    23762261.238
 110670418.206 8  86236813.54646  21059865.242                    21059872.699
 111258846.847 8  86695302.716 7  21171840.055                    21171847.988
 119075832.403 7  92786411.08544  22659378.156                    22659386.098
 121765923.045 7  94882588.867 6  23171287.492                    23171298.250
 128714224.119 6 100296881.52543  24493520.844                    24493531.309
 108680268.391 8  84686059.05646  20681149.219                    20681154.566
 11  8 18  0 56  0.0000000  0  9G12G04G17G10G05G30G25G09G02
 110038263.267 8  85744226.152 7  20939596.695                    20939603.582
 118353869.513 7  92223939.57744  22521974.813                    22521983.316
 124933299.091 6  97350810.874 6  23774031.555                    23774040.836
 110703440.918 8  86262545.54646  21066148.766                    21066156.398
 111188938.987 8  86640829.091 7  21158537.148                    21158544.617
 118998001.092 7  92725763.35344  22644567.461                    22644575.137
 121679527.847 7  94815267.999 6  23154846.906                    23154857.594
 128796997.027 6 100361379.76442  24509271.320                    24509282.617
 108693927.620 8  84696702.60746  20683748.680                    20683753.844
 11  8 18  0 56 30.0000000  0  9G12G04G17G10G05G30G25G09G02
 110005137.287 8  85718413.697 7  20933293.281                    20933299.836
 118435561.740 7  92287595.85545  22537520.719                    22537528.637
 124995384.870 6  97399189.381 6  23785845.813                    23785855.496
 110737065.910 8  86288746.84045  21072547.898                    21072555.203
 111119475.964 8  86586702.102 7  21145318.766                    21145326.273
 118920596.496 7  92665448.12844  22629837.688                    22629845.418
 121593449.566 7  94748194.072 7  23138466.422                    23138477.000
 128879758.651 6 100425869.20043  24525021.406                    24525031.773
 108707814.405 8  84707523.47246  20686390.977                    20686396.430
 11  8 18  0 57  0.0000000  0  9G12G04G17G10G05G30G25G09G02
 109972547.598 8  85693019.149 7  20927091.438                    20927098.363
 118517297.289 7  92351285.87045  22553074.859                    22553083.211
 125057650.338 6  97447707.936 6  23797694.984                    23797704.270
 110771291.667 8  86315416.27345  21079061.078                    21079068.059
 111050460.224 8  86532923.640 7  21132185.711                    21132192.918
 118843620.947 7  92605467.22444  22615190.016                    22615197.828
 121507690.672 7  94681369.030 7  23122147.172                    23122157.367
 128962505.759 6 100490347.39942  24540767.031                    24540778.461
 108721926.543 8  84718519.93646  20689076.570                    20689081.445
 11  8 18  0 57 30.0000000  0  9G12G04G17G10G05G30G25G09G02
 109940495.757 8  85668043.690 7  20920992.414                    20920999.438
 118599074.792 7  92415008.61344  22568636.430                    22568644.422
 125120095.771 6  97496366.736 6  23809578.500                    23809587.309
 110806117.092 8  86342552.98545  21085687.664                    21085695.305
 110981894.173 8  86479495.582 7  21119137.656                    21119145.242
 118767077.221 7  92545822.83145  22600623.367                    22600632.477
 121422253.848 7  94614794.945 6  23105889.492                    23105899.469
 129045235.299 6 100554811.83942  24556510.633                    24556521.086
 108736263.308 8  84729691.43146  20691804.844                    20691810.121
 11  8 18  0 58  0.0000000  0  9G12G04G17G10G05G30G25G09G02
 109908983.896 8  85643488.988 7  20914995.563                    20915002.668
 118680892.972 7  92478763.03845  22584205.531                    22584213.703
 125182721.807 6  97545166.226 6  23821495.914                    23821504.840
 110841541.272 8  86370156.24246  21092428.813                    21092436.355
 110913780.227 8  86426419.822 7  21106175.969                    21106183.422
 118690968.138 7  92486517.08244  22586140.508                    22586148.523
 121337142.116 7  94548474.193 6  23089692.914                    23089703.113
 129127944.411 6 100619260.32442  24572249.422                    24572260.191
 108750823.946 8  84741037.38146  20694575.953                    20694581.105
 11  8 18  0 58 30.0000000  0  9G12G04G17G10G05G30G25G09G02
 109878012.783 8  85619355.657 7  20909102.367                    20909109.145
 118762750.381 7  92542548.02845  22599781.969                    22599790.656
 125245528.642 6  97594106.609 6  23833447.031                    23833456.539
 110877562.734 8  86398224.92846  21099282.836                    21099290.902
 110846120.418 8  86373697.934 7  21093300.633                    21093308.594
 118615295.837 7  92427551.70644  22571740.867                    22571748.445
 121252357.773 7  94482408.553 6  23073559.227                    23073569.230
 129210629.591 6 100683690.21643  24587983.359                    24587994.734
 108765606.886 8  84752556.55346  20697388.719                    20697394.012
 11  8 18  0 59  0.0000000  0  9G12G04G17G10G05G30G25G09G02
 109847584.165 8  85595645.041 7  20903311.852                    20903318.547
 118844645.662 7  92606362.50844  22615366.563                    22615375.359
 125308516.176 6  97643187.762 6  23845433.141                    23845442.484
 110914179.957 8  86426757.83346  21106251.156                    21106258.910
 110778917.156 8  86321331.793 7  21080512.438                    21080520.164
 118540063.200 7  92368928.90545  22557425.133                    22557432.297
 121167903.676 7  94416600.224 7  23057487.781                    23057497.809
 129293288.087 6 100748099.25443  24603714.023                    24603724.793
 108780611.074 8  84764248.13646  20700243.883                    20700249.469
 11  8 18  0 59 30.0000000  0  9G12G04G17G10G05G30G25G09G02
 109817699.261 8  85572358.100 7  20897624.820                    20897631.879
 118926577.258 7  92670205.28944  22630958.180                    22630965.875
 125371685.046 6  97692410.219 6  23857453.688                    23857462.840
 110951391.406 8  86455753.78245  21113332.477                    21113339.828
 110712172.483 8  86269322.997 7  21067811.313                    21067818.609
 118465272.576 7  92310650.54144  22543192.289                    22543200.082
 121083782.329 7  94351051.178 7  23041480.313                    23041490.020
 129375916.841 6 100812485.11343  24619437.516                    24619448.551
 108795835.398 8  84776111.24546  20703140.773                    20703146.379
 11  8 18  1  0  0.0000000  0  9G12G04G17G10G05G30G25G09G02
 109788359.423 8  85549495.886 7  20892041.914                    20892049.012
 119008543.621 7  92734075.18344  22646555.680                    22646563.949
 125435035.357 6  97741774.079 6  23869509.672                    23869518.555
 110989195.366 8  86485211.42245  21120525.867                    21120533.660
 110645888.664 8  86217673.295 7  21055197.680                    21055205.430
 118390926.326 7  92252718.44545  22529044.789                    22529052.742
 120999996.172 7  94285763.332 7  23025536.445                    23025546.332
 129458512.512 6 100876845.22343  24635154.984                    24635166.578
 108811278.094 8  84788144.51646  20706079.672                    20706084.664
 11  8 18  1  0 30.0000000  0  9G12G04G17G10G05G30G25G09G02
 109759566.109 8  85527059.540 7  20886562.586                    20886569.449
 119090543.447 7  92797971.13444  22662159.680                    22662168.742
 125498567.414 6  97791279.587 6  23881599.320                    23881608.215
 111027590.897 8  86515130.02645  21127832.711                    21127840.449
 110580067.884 8  86166384.417 7  21042672.352                    21042680.000
 118317027.210 7  92195134.73845  22514982.227                    22514989.820
 120916548.008 7  94220738.855 7  23009656.180                    23009666.531
 129541072.318 6 100941177.40743  24650865.328                    24650877.285
 108826938.334 8  84800347.30246  20709059.945                    20709064.617
 11  8 18  1  1  0.0000000  0  9G12G04G17G10G05G30G25G09G02
 109731320.554 8  85505050.009 7  20881187.711                    20881194.199
 119172575.547 7  92861892.24344  22677769.625                    22677777.750
 125562281.356 6  97840926.793 6  23893723.492                    23893732.977
 111066576.303 8  86545508.27446  21135251.203                    21135258.813
 110514712.579 8  86115458.250 7  21030236.063                    21030243.391
 118243577.657 7  92137901.36344  22501005.180                    22501012.887
 120833440.532 7  94155979.841 6  22993841.609                    22993851.473
 129623593.217 6 101005479.27143  24666568.883                    24666579.723
 108842815.137 8  84812718.84546  20712081.109                    20712086.164
 11  8 18  1  1 30.0000000  0  9G12G04G17G10G05G30G25G09G02
 109703624.684 8  85483468.813 7  20875917.477                    20875923.926
 119254638.683 7  92925837.55444  22693385.664                    22693393.895
 125626177.572 6  97890716.069 6  23905881.391                    23905891.469
 111106150.374 8  86576345.22445  21142782.047                    21142789.664
 110449824.885 8  86064896.440 7  21017887.656                    21017895.547
 118170580.271 7  92081020.31944  22487113.820                    22487121.898
 120750676.362 7  94091488.323 7  22978092.453                    22978101.988
 129706072.145 6 101069748.40843  24682264.586                    24682276.184
 108858907.201 8  84825258.11746  20715142.789                    20715148.195
 11  8 18  1  2  0.0000000  0  9G12G04G17G10G05G30G25G09G02
 109676478.988 8  85462316.316 7  20870751.914                    20870758.398
 119336730.835 7  92989805.44344  22709007.055                    22709015.395
 125690256.429 6  97940647.601 6  23918076.000                    23918085.766
 111146311.336 8  86607639.49845  21150424.117                    21150432.043
 110385406.704 8  86014700.498 7  21005629.836                    21005637.266
 118098037.179 7  92024493.25444  22473308.938                    22473317.422
 120668257.857 7  94027266.165 7  22962408.461                    22962418.086
 129788505.959 6 101133982.40343  24697951.773                    24697962.914
 108875212.953 8  84837963.90946  20718245.938                    20718250.934
 11  8 18  1  2 30.0000000  0  9G12G04G17G10G05G30G25G09G02
 109649884.462 8  85441593.317 7  20865691.039                    20865697.551
 119418851.113 7  93053795.27144  22724634.461                    22724642.723
 125754517.993 6  97990721.537 6  23930304.438                    23930314.824
 111187057.479 8  86639389.74146  21158178.227                    21158185.988
 110321460.427 8  85964872.253 7  20993461.367                    20993468.754
 118025950.967 7  91968322.20844  22459591.914                    22459599.828
 120586187.725 7  93963315.459 7  22946790.938                    22946800.945
 129870891.624 6 101198178.82543  24713628.305                    24713640.148
 108891731.679 8  84850835.65046  20721389.547                    20721394.930
 11  8 18  1  3  0.0000000  0  9G12G04G17G10G05G30G25G09G02
 109623843.264 8  85421301.472 7  20860735.383                    20860742.023
 119500998.142 7  93117805.93144  22740266.172                    22740275.191
 125818962.384 6  98040937.889 6  23942567.891                    23942577.438
 111228387.429 8  86671594.91346  21166042.773                    21166050.508
 110257987.891 8  85915413.172 7  20981382.492                    20981390.043
 117954324.238 7  91912509.19344  22445961.531                    22445969.559
 120504468.651 7  93899638.303 7  22931240.211                    22931250.078
 129953226.529 6 101262335.72143  24729296.578                    24729308.004
 108908462.221 8  84863872.44646  20724573.391                    20724578.344
 11  8 18  1  3 30.0000000  0  9G12G04G17G10G05G30G25G09G02
 109598356.222 8  85401441.441 7  20855885.438                    20855892.145
 119583170.635 7  93181836.43045  22755902.953                    22755911.910
 125883589.797 7  98091296.925 6  23954866.922                    23954875.496
 111270299.429 8  86704253.62346  21174018.625                    21174026.156
 110194991.363 8  85866325.005 7  20969394.773                    20969402.176
 117883159.396 7  91857056.09444  22432419.297                    22432427.504
 120423103.245 7  93836236.731 7  22915756.898                    22915766.922
 130035507.401 7 101326450.55643  24744954.289                    24744965.680
 108925403.215 8  84877073.23046  20727797.039                    20727802.324
 11  8 18  1  4  0.0000000  0  9G12G04G17G10G05G30G25G09G02
 109573424.342 8  85382014.007 7  20851140.961                    20851147.660
 119665367.035 7  93245885.55844  22771544.461                    22771552.992
 125948400.603 6  98141798.827 6  23967199.648                    23967208.789
 111312791.894 8  86737364.64545  21182104.492                    21182112.520
 110132472.950 8  85817609.382 7  20957498.023                    20957505.477
 117812458.767 7  91801964.71044  22418965.781                    22418974.129
 120342094.000 7  93773112.662 7  22900341.680                    22900351.480
 130117731.109 6 101390520.83143  24760600.492                    24760612.797
 108942553.456 8  84890437.06346  20731060.383                    20731065.703
 11  8 18  1  4 30.0000000  0  9G12G04G17G10G05G30G25G09G02
 109549048.891 8  85363020.159 7  20846502.367                    20846509.125
 119747586.214 7  93309952.42944  22787190.445                    22787198.832
 126013394.794 6  98192443.633 6  23979568.117                    23979577.457
 111355863.235 8  86770926.72945  21190300.664                    21190308.242
 110070434.985 8  85769268.144 7  20945692.586                    20945700.117
 117742224.780 7  91747236.93844  22405600.602                    22405608.453
 120261443.486 7  93710268.143 7  22884993.969                    22885004.293
 130199894.990 6 101454544.49243  24776235.820                    24776247.977
 108959911.810 8  84903963.05946  20734364.078                    20734369.000
 11  8 18  1  5  0.0000000  0  9G12G04G17G10G05G30G25G09G02
 109525230.830 8  85344460.639 7  20841970.250                    20841976.852
 119829826.576 7  93374035.80544  22802840.391                    22802848.895
 126078572.498 6  98243231.431 6  23991970.992                    23991980.172
 111399511.889 8  86804938.67845  21198607.242                    21198614.633
 110008878.751 8  85721302.287 8  20933978.609                    20933986.469
 117672459.696 7  91692874.54645  22392323.820                    22392332.641
 120181154.187 7  93647705.070 7  22869715.750                    22869725.254
 130281995.978 6 101518519.07843  24791860.094                    24791871.828
 108977476.872 8  84917650.13346  20737705.906                    20737711.309
 11  8 18  1  5 30.0000000  0  9G12G04G17G10G05G30G25G09G02
 109501972.116 8  85326336.976 7  20837543.828                    20837550.785
 119912087.338 7  93438135.05644  22818494.117                    22818502.371
 126143934.239 7  98294162.650 6  24004408.477                    24004417.551
 111443736.063 7  86839399.08845  21207022.445                    21207029.594
 109947806.686 8  85673713.701 8  20922357.328                    20922364.145
 117603166.147 7  91638879.58645  22379138.047                    22379146.719
 120101228.929 7  93585425.662 7  22854506.359                    22854516.109
 130364031.195 6 101582442.42643  24807469.383                    24807482.730
 108995247.986 8  84931497.75646  20741087.852                    20741093.094
 11  8 18  1  6  0.0000000  0  9G12G04G17G10G05G30G25G09G02
 109479273.218 8  85308649.531 7  20833224.242                    20833231.051
 119994366.870 7  93502248.98144  22834151.484                    22834159.895
 126209480.008 6  98345237.249 6  24016881.594                    24016891.270
 111488534.076 8  86874306.64745  21215547.359                    21215554.961
 109887221.052 8  85626504.144 8  20910827.852                    20910835.305
 117534346.432 7  91585253.84145  22366042.680                    22366050.719
 120021670.167 7  93523431.819 7  22839366.289                    22839376.250
 130445997.454 6 101646312.00643  24823068.586                    24823080.363
 109013223.719 8  84945504.82946  20744508.484                    20744513.586
 11  8 18  1  6 30.0000000  0  9G12G04G17G10G05G30G25G09G02
 109457134.986 8  85291398.970 7  20829012.008                    20829018.813
 120076663.842 7  93566376.46944  22849812.352                    22849820.770
 126275209.948 6  98396455.347 6  24029389.445                    24029398.656
 111533903.922 8  86909659.79145  21224180.875                    21224188.328
 109827123.611 8  85579675.003 8  20899391.555                    20899399.023
 117466002.771 7  91531999.04545  22353037.672                    22353045.461
 119942480.293 7  93461725.426 7  22824297.469                    22824307.141
 130527891.842 6 101710125.59742  24838652.133                    24838664.285
 109031402.668 8  84959670.24846  20747968.016                    20747973.176
 11  8 18  1  7  0.0000000  0  9G12G04G17G10G05G30G25G09G02
 109435558.764 8  85274586.336 7  20824905.906                    20824912.672
 120158977.136 7  93630516.68844  22865475.852                    22865484.363
 126341124.337 6  98447817.207 6  24041933.016                    24041942.121
 111579844.232 8  86945457.43845  21232922.930                    21232930.559
 109767516.325 8  85533227.797 7  20888048.906                    20888056.102
 117398137.594 7  91479117.09945  22340123.492                    22340130.563
 119863661.989 7  93400308.565 7  22809298.453                    22809308.227
 130609711.551 6 101773881.05943  24854222.867                    24854234.371
 109049783.934 8  84973993.31646  20751465.539                    20751470.992
 11  8 18  1  7 30.0000000  0  8G12G04G17G10G05G30G25G02
 109414545.959 8  85258212.733 7  20820907.430                    20820914.258
 120241305.706 7  93694668.80644  22881142.227                    22881150.547
 126407223.552 6  98499323.080 6  24054511.313                    24054520.230
 111626353.130 8  86981698.14945  21241773.484                    21241780.992
 109708401.366 8  85487164.221 8  20876799.750                    20876807.316
 117330753.378 7  91426609.93445  22327300.258                    22327308.090
 119785218.005 7  93339183.370 7  22794371.148                    22794381.305
 109068366.445 8  84988473.20346  20755002.297                    20755007.195
 11  8 18  1  8  0.0000000  0  8G12G04G17G10G05G30G25G02
 109394097.276 8  85242278.707 8  20817016.289                    20817023.406
 120323648.159 7  93758831.73344  22896811.813                    22896819.910
 126473507.644 6  98550973.037 6  24067124.422                    24067133.336
 111673428.908 8  87018380.58345  21250731.648                    21250739.129
 109649780.754 8  85441485.862 7  20865644.453                    20865651.613
 117263852.406 7  91374479.33845  22314569.375                    22314577.477
 119707150.779 8  93278351.759 7  22779515.750                    22779525.535
 109087149.065 8  85003109.01546  20758576.203                    20758581.270
 11  8 18  1  8 30.0000000  0  8G12G04G17G10G05G30G25G02
 109374213.887 8  85226785.174 7  20813232.461                    20813239.723
 120406003.268 7  93823004.53544  22912483.422                    22912491.844
 126539976.486 6  98602766.927 6  24079773.141                    24079781.715
 111721069.708 8  87055503.30545  21259797.352                    21259804.770
 109591656.226 8  85396194.061 7  20854583.688                    20854591.293
 117197437.005 7  91322727.10145  22301930.859                    22301938.805
 119629462.871 7  93217815.732 7  22764732.148                    22764742.461
 109106130.612 8  85017899.84446  20762188.234                    20762193.520
 11  8 18  1  9  0.0000000  0  8G12G04G17G10G05G30G25G02
 109354896.358 8  85211732.568 7  20809556.539                    20809563.230
 120488369.667 7  93887186.13644  22928157.117                    22928165.547
 126606630.315 6  98654704.974 5  24092455.867                    24092465.391
 111769273.598 8  87093064.77445  21268969.945                    21268977.621
 109534029.499 8  85351290.148 8  20843617.539                    20843624.777
 117131509.178 7  91271354.79045  22289385.219                    22289393.012
 119552156.556 7  93157577.049 7  22750021.047                    22750031.215
 109125309.795 8  85032844.67146  20765837.805                    20765843.309
 11  8 18  1  9 30.0000000  0  8G12G04G17G10G05G30G25G02
 109336145.623 8  85197121.613 7  20805988.352                    20805995.070
 120570745.984 7  93951375.44344  22943831.578                    22943841.836
 126673468.998 6  98706787.022 5  24105175.539                    24105184.402
 111818038.208 8  87131063.19645  21278250.039                    21278257.113
 109476902.495 8  85306775.619 8  20832746.797                    20832754.344
 117066071.069 7  91220364.08545  22276933.148                    22276940.871
 119475234.209 7  93097637.565 7  22735383.406                    22735393.414
 109144685.157 8  85047942.35546  20769524.797                    20769530.023
 11  8 18  1 10  0.0000000  0  8G12G04G17G10G05G30G25G02
 109317963.161 8  85182953.464 7  20802528.133                    20802534.875
 120653131.607 6  94015571.99244  22959509.719                    22959518.879
 126740492.975 6  98759013.441 6  24117930.500                    24117938.875
 111867362.619 8  87169497.82545  21287635.758                    21287643.211
 109420277.291 8  85262652.118 7  20821970.859                    20821978.633
 117001125.569 7  91169757.26245  22264573.656                    22264581.793
 119398698.981 7  93037999.732 7  22720819.227                    22720829.039
 109164256.367 8  85063192.65446  20773248.813                    20773254.180
 11  8 18  1 10 30.0000000  0  8G12G04G17G10G05G30G25G02
 109300348.974 8  85169228.134 7  20799175.984                    20799182.996
 120735524.626 6  94079774.30444  22975189.117                    22975197.898
 126807702.046 6  98811384.121 5  24130718.898                    24130728.270
 111917243.922 8  87208366.37745  21297127.719                    21297135.371
 109364155.312 8  85218920.740 8  20811291.305                    20811299.133
 116936674.015 7  91119535.30644  22252308.797                    22252316.668
 119322552.569 7  92978664.898 7  22706328.531                    22706339.215
 109184021.060 8  85078593.71546  20777010.242                    20777015.586
 11  8 18  1 11  0.0000000  0  8G12G04G17G10G05G30G25G02
 109283304.775 8  85155946.946 7  20795932.844                    20795939.574
 120817924.276 6  94143981.81044  22990868.961                    22990877.496
 126875096.521 6  98863899.288 6  24143544.281                    24143552.957
 111967680.860 8  87247667.89945  21306725.352                    21306733.203
 109308539.008 8  85175583.399 8  20800708.297                    20800715.703
 116872719.360 7  91069700.55145  22240139.313                    22240146.270
 119246798.078 7  92919635.476 7  22691913.141                    22691923.164
 109203979.127 8  85094145.46246  20780808.008                    20780813.211
 11  8 18  1 11 30.0000000  0  8G12G04G17G10G05G30G25G02
 109266831.048 8  85143110.279 7  20792798.000                    20792804.766
 120900329.334 6  94208193.49644  23006549.938                    23006559.242
 126942676.406 6  98916558.918 6  24156404.141                    24156413.918
 112018671.135 7  87287400.59245  21316428.445                    21316436.164
 109253429.637 8  85132641.055 7  20790220.836                    20790227.973
 116809263.433 7  91020254.42045  22228063.703                    22228071.660
 119171437.663 7  92860913.105 7  22677572.359                    22677582.367
 109224128.976 8  85109846.64346  20784642.500                    20784647.957
 11  8 18  1 12  0.0000000  0  8G12G04G17G10G05G30G25G02
 109250928.704 8  85130718.858 7  20789772.164                    20789778.656
 120982738.366 7  94272408.31544  23022232.477                    23022241.066
 127010442.014 6  98969363.260 6  24169299.578                    24169309.328
 112070212.891 7  87327562.99745  21326236.617                    21326244.371
 109198829.177 8  85090095.277 8  20779830.789                    20779838.074
 116746308.449 7  90971198.63745  22216083.555                    22216091.484
 119096473.835 7  92802499.769 7  22663306.977                    22663317.012
 109244469.490 8  85125696.40246  20788513.219                    20788518.344
 11  8 18  1 12 30.0000000  0  8G12G04G17G10G05G30G25G02
 109235598.583 8  85118773.308 7  20786854.914                    20786861.707
 121065150.670 7  94336625.64344  23037914.516                    23037923.625
 127078393.359 6  99022312.353 6  24182229.398                    24182240.332
 112122304.270 8  87368153.69545  21336149.648                    21336157.250
 109144739.404 8  85047947.431 8  20769538.070                    20769545.309
 116683856.695 7  90922534.98345  22204199.586                    22204207.258
 119021909.161 7  92744397.471 7  22649117.938                    22649128.102
 109264999.668 8  85141693.94246  20792420.031                    20792425.172
 11  8 18  1 13  0.0000000  0  8G12G04G17G10G05G30G25G02
 109220841.394 8  85107274.215 7  20784046.539                    20784053.371
 121147565.273 7  94400844.79844  23053598.297                    23053606.539
 127146530.637 6  99075406.298 6  24195196.680                    24195205.645
 112174943.453 8  87409171.24845  21346166.617                    21346174.090
 109091162.097 8  85006198.912 8  20759342.328                    20759349.648
 116621910.447 7  90874265.23245  22192411.891                    22192419.566
 118947746.267 7  92686608.265 7  22635005.367                    22635015.168
 109285718.986 8  85157838.86446  20796362.773                    20796367.703
 11  8 18  1 13 30.0000000  0  8G12G04G17G10G05G30G25G02
 109206657.679 8  85096221.974 7  20781347.680                    20781354.359
 121229980.541 7  94465064.45844  23069281.211                    23069289.535
 127214853.426 6  99128644.819 6  24208198.344                    24208207.254
 112228127.638 7  87450613.47946  21356287.055                    21356294.691
 109038099.009 8  84964851.080 7  20749245.008                    20749252.082
 116560471.550 7  90826390.81045  22180719.852                    22180727.594
 118873987.254 7  92629133.757 7  22620969.289                    22620979.457
 109306625.271 8  85174129.48746  20800341.008                    20800345.992
 11  8 18  1 14  0.0000000  0  8G12G04G17G10G05G30G25G02
 109193048.375 8  85085617.313 7  20778757.422                    20778764.477
 121312395.401 7  94529283.80944  23084963.977                    23084972.289
 127283362.133 6  99182028.201 6  24221234.867                    24221243.887
 112281855.225 7  87492479.14145  21366511.234                    21366518.195
 108985551.831 8  84923905.262 7  20739245.563                    20739252.957
 116499542.182 7  90778913.41945  22169125.180                    22169133.332
 118800634.640 7  92571975.928 7  22607011.070                    22607020.813
 109327717.828 8  85190565.24746  20804354.914                    20804360.004
 11  8 18  1 14 30.0000000  0  8G12G04G17G10G05G30G25G02
 109180014.488 8  85075461.043 7  20776277.453                    20776284.238
 121394808.952 6  94593502.15944  23100647.063                    23100655.500
 127352056.726 6  99235556.441 6  24234306.070                    24234316.020
 112336124.388 7  87534766.79945  21376837.898                    21376845.137
 108933522.290 8  84883362.796 8  20729344.805                    20729351.566
 116439124.644 7  90731834.86545  22157628.375                    22157636.297
 118727690.991 7  92515136.773 7  22593130.156                    22593140.016
 109348995.607 8  85207145.34246  20808403.625                    20808409.387
 11  8 18  1 15  0.0000000  0  8G12G04G17G10G05G30G25G02
 109167556.363 8  85065753.411 7  20773907.031                    20773913.332
 121477220.149 6  94657718.64544  23116329.125                    23116337.563
 127420937.340 6  99289229.625 6  24247414.680                    24247423.922
 112390932.989 7  87577474.81045  21387267.961                    21387275.301
 108882011.947 8  84843224.890 8  20719542.516                    20719550.055
 116379220.964 7  90685156.71845  22146228.750                    22146236.746
 118655158.746 7  92458618.188 7  22579327.555                    22579337.496
 109370457.523 8  85223868.92646  20812487.734                    20812492.898
 11  8 18  1 15 30.0000000  0  8G12G04G17G10G05G30G25G02
 109155674.992 8  85056495.204 7  20771645.445                    20771652.465
 121559627.809 7  94721932.40544  23132010.391                    23132019.395
 127490003.935 7  99343047.714 6  24260557.711                    24260567.199
 112446278.678 7  87620601.31945  21397799.602                    21397807.480
 108831022.592 8  84803492.959 8  20709839.711                    20709846.508
 116319833.176 7  90638880.56245  22134927.695                    22134935.746
 118583040.263 7  92402422.029 7  22565603.836                    22565613.762
 109392102.534 8  85240735.17546  20816606.711                    20816611.504
 11  8 18  1 16  0.0000000  0  8G12G04G17G10G05G30G25G02
 109144370.179 8  85047686.260 8  20769494.484                    20769501.434
 121642030.651 6  94786142.41544  23147691.383                    23147700.164
 127559256.672 7  99397010.871 6  24273735.453                    24273745.422
 112502159.068 7  87664144.48745  21408433.102                    21408440.785
 108780555.457 8  84764167.956 8  20700236.242                    20700243.496
 116260963.085 7  90593007.79145  22123725.219                    22123732.809
 118511337.720 7  92346549.963 7  22551959.133                    22551969.426
 109413929.238 8  85257742.99846  20820760.320                    20820765.254
 11  8 18  1 16 30.0000000  0  8G12G04G17G10G05G30G25G02
 109133642.760 8  85039327.236 7  20767453.242                    20767460.195
 121724427.828 6  94850347.97644  23163371.930                    23163379.535
 127628695.160 6  99451118.802 6  24286949.211                    24286959.113
 112558572.147 7  87708102.74245  21419168.656                    21419176.160
 108730612.394 8  84725251.321 8  20690731.750                    20690739.480
 116202612.754 7  90547540.02645  22112621.867                    22112629.348
 118440053.498 7  92291003.876 7  22538394.250                    22538404.246
 109435936.354 8  85274891.41546  20824948.266                    20824953.145
 11  8 18  1 17  0.0000000  0  8G12G04G17G10G05G30G25G02
 109123493.672 8  85031418.859 7  20765521.859                    20765528.645
 121806818.101 7  94914548.20144  23179050.203                    23179058.109
 127698319.931 6  99505371.887 6  24300198.484                    24300207.387
 112615516.066 7  87752474.63045  21430004.555                    21430012.484
 108681194.858 8  84686744.184 8  20681328.227                    20681335.207
 116144784.398 7  90502478.99245  22101617.438                    22101625.141
 118369190.146 7  92235785.726 7  22524909.180                    22524919.250
 109458123.225 8  85292179.88846  20829170.078                    20829175.227
 11  8 18  1 17 30.0000000  0  9G12G04G17G10G05G30G25G29G02
 109113923.579 8  85023961.647 7  20763700.922                    20763707.547
 121889200.744 7  94978742.45944  23194726.906                    23194734.918
 127768130.809 6  99559769.929 6  24313483.148                    24313492.766
 112672988.740 8  87797258.53645  21440940.945                    21440949.031
 108632304.492 8  84648647.831 8  20672024.641                    20672032.078
 116087480.086 7  90457826.29645  22090712.547                    22090720.469
 118298750.195 7  92180897.485 7  22511504.953                    22511515.277
 129517550.51416 100922827.98215  24646376.164                    24646385.402
 109480488.813 8  85309607.62946  20833426.359                    20833431.102
 11  8 18  1 18  0.0000000  0  9G12G04G17G10G05G30G25G29G02
 109104933.600 7  85016956.474 7  20761990.039                    20761996.625
 121971575.294 7  95042930.40144  23210402.289                    23210410.789
 127838128.353 6  99614313.455 6  24326803.266                    24326812.492
 112730988.429 8  87842453.10345  21451978.453                    21451985.891
 108583943.756 8  84610964.170 8  20662822.008                    20662829.223
 116030702.428 7  90413583.98145  22079908.203                    22079915.703
 118228736.531 7  92126341.430 7  22498182.625                    22498191.426
 129438014.436 6 100860851.918 6  24631241.352                    24631250.918
 109503032.745 8  85327174.33546  20837716.180                    20837720.965
 11  8 18  1 18 30.0000000  0  9G12G04G17G10G05G30G25G29G02
 109096523.867 8  85010403.441 7  20760389.828                    20760396.234
 122053940.528 7  95107111.09244  23226075.594                    23226084.383
 127908312.100 6  99669002.051 6  24340158.922                    24340167.918
 112789513.058 7  87888056.72045  21463114.906                    21463122.457
 108536113.601 8  84573693.952 7  20653719.766                    20653727.359
 115974452.916 7  90369753.18745  22069204.234                    22069211.910
 118159151.162 7  92072119.096 7  22484940.313                    22484949.754
 129358402.126 6 100798816.479 6  24616091.297                    24616100.938
 109525753.391 8  85344878.73846  20842039.656                    20842044.777
 11  8 18  1 19  0.0000000  0  9G12G04G17G10G05G30G25G29G02
 109088694.663 8  85004302.765 7  20758899.789                    20758906.758
 122136294.784 7  95171283.23644  23241747.375                    23241755.832
 127978681.849 6  99723835.600 6  24353549.820                    24353559.539
 112848559.688 8  87934067.08845  21474351.352                    21474358.781
 108488815.338 8  84536838.205 8  20644719.648                    20644727.082
 115918733.386 7  90326335.36245  22058601.023                    22058608.719
 118089996.194 7  92018232.130 7  22471780.789                    22471790.113
 129278713.784 6 100736721.723 6  24600928.250                    24600936.625
 109548649.583 8  85362719.93446  20846396.688                    20846401.785
 11  8 18  1 19 30.0000000  0  9G12G04G17G10G05G30G25G29G02
 109081446.285 8  84998654.690 7  20757520.453                    20757527.621
 122218637.024 7  95235446.01844  23257415.789                    23257424.836
 128049237.462 6  99778813.958 5  24366975.219                    24366985.266
 112908125.672 7  87980482.15045  21485686.320                    21485693.977
 108442049.964 8  84500397.686 8  20635820.359                    20635827.332
 115863545.374 7  90283331.73145  22048099.078                    22048106.719
 118021273.628 7  91964682.113 7  22458703.438                    22458713.152
 129198949.456 6 100674567.785 6  24585748.625                    24585757.641
 109571719.561 8  85380696.53946  20850786.977                    20850792.004
 11  8 18  1 20  0.0000000  0  9G12G04G17G10G05G30G25G29G02
 109074778.970 8  84993459.374 8  20756251.984                    20756258.586
 122300966.369 7  95299598.73344  23273082.656                    23273091.703
 128119979.094 5  99833937.269 5  24380437.078                    24380446.590
 112968209.019 8  88027300.34345  21497119.836                    21497127.426
 108395819.392 8  84464373.896 8  20627022.633                    20627029.977
 115808890.996 7  90240743.89345  22037698.766                    22037706.516
 117952986.035 7  91911471.026 7  22445708.273                    22445718.504
 129119110.123 6 100612355.402 6  24570555.938                    24570564.840
 109594963.030 8  85398808.35846  20855210.133                    20855215.031
 11  8 18  1 20 30.0000000  0  9G12G04G17G10G05G30G25G29G02
 109068692.812 8  84988716.910 7  20755093.789                    20755100.250
 122383281.760 7  95363740.56944  23288747.125                    23288756.082
 128190906.492 5  99889205.346 5  24393934.516                    24393944.547
 113028807.231 7  88074519.73445  21508651.117                    21508658.582
 108350124.754 8  84428767.725 8  20618327.633                    20618334.609
 115754771.924 7  90198573.19345  22027400.445                    22027408.082
 117885135.420 7  91858600.433 7  22432796.664                    22432806.617
 129039196.226 6 100550084.889 6  24555348.398                    24555356.891
 109618378.182 8  85417053.93746  20859665.742                    20859670.969
 11  8 18  1 21  0.0000000  0  9G12G04G17G10G05G30G25G29G02
 109063188.745 8  84984428.035 7  20754046.016                    20754052.992
 122465582.341 6  95427870.86444  23304408.953                    23304417.395
 128262019.883 5  99944618.346 5  24407465.664                    24407477.375
 113089918.227 7  88122138.69545  21520280.055                    21520287.105
 108304967.660 8  84393580.416 8  20609734.438                    20609741.660
 115701190.368 7  90156821.32145  22017204.203                    22017211.535
 117817724.398 7  91806072.373 7  22419968.750                    22419978.742
 128959208.403 7 100487756.772 6  24540127.125                    24540136.297
 109641964.592 8  85435432.97446  20864154.000                    20864158.742
 11  8 18  1 21 30.0000000  0  9G12G04G17G10G05G30G25G29G02
 109058267.107 8  84980592.984 7  20753109.688                    20753116.715
 122547867.275 6  95491988.97243  23320066.609                    23320075.699
 128333319.022 6 100000176.122 5  24421034.672                    24421044.664
 113151539.866 7  88170155.54945  21532006.078                    21532013.969
 108260349.312 8  84358812.897 8  20601243.844                    20601250.949
 115648148.026 7  90115489.61845  22007110.336                    22007117.875
 117750755.211 7  91753888.606 7  22407225.172                    22407235.055
 128879147.292 6 100425371.557 6  24524892.141                    24524901.363
 109665720.960 8  85453944.43346  20868674.844                    20868679.656
 11  8 18  1 22  0.0000000  0  9G12G04G17G10G05G30G25G29G02
 109053928.120 8  84977211.945 7  20752284.258                    20752290.914
 122630135.320 6  95556093.92543  23335722.070                    23335730.234
 128404803.736 6 100055878.510 5  24434637.328                    24434646.961
 113213669.423 7  88218568.19545  21543829.305                    21543836.859
 108216270.938 8  84324466.146 8  20592856.172                    20592862.844
 115595646.520 7  90074579.35845  21997119.648                    21997127.477
 117684229.824 7  91702050.637 7  22394565.797                    22394575.195
 128799012.820 6 100362929.175 6  24509643.305                    24509652.340
 109689645.747 8  85472587.13146  20873227.383                    20873232.508
 11  8 18  1 22 30.0000000  0  9G12G04G17G10G05G30G25G29G02
 109050172.055 7  84974285.150 7  20751569.422                    20751576.168
 122712385.619 6  95620185.07543  23351373.898                    23351381.633
 128476473.979 6 100111725.477 5  24448276.539                    24448285.773
 113276304.740 7  88267374.94345  21555748.328                    21555755.801
 108172734.317 8  84290541.535 8  20584571.477                    20584578.367
 115543687.754 7  90034092.01745  21987232.031                    21987240.066
 117618150.737 7  91650560.444 7  22381991.305                    22382000.945
 128718806.307 6 100300430.635 6  24494380.203                    24494389.219
 109713738.468 8  85491360.67846  20877811.672                    20877817.031
 11  8 18  1 23  0.0000000  0  9G12G04G17G10G05G30G25G29G02
 109046999.080 8  84971812.690 7  20750965.352                    20750972.133
 122794617.420 6  95684261.79243  23367021.109                    23367029.887
 128548329.722 6 100167716.913 5  24461950.344                    24461959.801
 113339443.566 7  88316574.03945  21567763.320                    21567770.508
 108129740.626 8  84257039.989 8  20576389.945                    20576397.094
 115492273.804 7  89994029.22345  21977448.453                    21977455.832
 117552520.316 7  91599419.861 7  22369502.563                    22369511.832
 128638528.355 6 100237876.414 6  24479103.547                    24479112.746
 109737998.244 8  85510264.41646  20882428.508                    20882433.375
 11  8 18  1 23 30.0000000  0  9G12G04G17G10G05G30G25G29G02
 109044409.849 7  84969795.104 7  20750472.797                    20750479.492
 122876829.873 6  95748323.47043  23382666.617                    23382674.887
 128620370.871 6 100223852.882 5  24475659.352                    24475668.367
 113403083.453 8  88366163.56645  21579873.727                    21579881.277
 108087291.162 8  84223962.517 8  20568311.688                    20568319.258
 115441406.305 7  89954392.22845  21967769.016                    21967776.137
 117487340.772 7  91548630.617 7  22357098.938                    22357108.777
 128558179.352 6 100175266.869 6  24463813.789                    24463822.484
 109762424.026 8  85529297.49846  20887076.672                    20887081.391
 11  8 18  1 24  0.0000000  0  9G12G04G17G10G05G30G25G29G02
 109042404.050 8  84968232.143 7  20750091.008                    20750097.863
 122959021.730 6  95812369.08243  23398306.609                    23398315.184
 128692597.515 6 100280133.373 6  24489403.820                    24489413.129
 113467222.168 7  88416141.79045  21592078.766                    21592086.473
 108045386.925 8  84191309.897 8  20560337.656                    20560344.895
 115391086.837 7  89915182.29745  21958193.547                    21958200.836
 117422614.121 7  91498194.283 7  22344781.953                    22344791.602
 128477759.906 6 100112602.432 6  24448510.594                    24448519.234
 109787014.444 8  85548458.86846  20891755.633                    20891760.828
 11  8 18  1 24 30.0000000  0  8G12G04G10G05G30G25G29G02
 109040982.435 7  84967124.382 7  20749820.508                    20749827.238
 123041192.533 6  95876398.29943  23413943.469                    23413951.859
 113531857.481 7  88466506.97945  21604378.625                    21604386.340
 108004029.647 8  84159083.472 8  20552467.391                    20552474.531
 115341317.410 7  89876400.96145  21948722.578                    21948730.078
 117358342.875 7  91448112.810 7  22332551.352                    22332561.621
 128397270.866 6 100049883.785 6  24433193.836                    24433202.281
 109811768.861 8  85567748.03846  20896466.711                    20896471.809
 11  8 18  1 25  0.0000000  0  8G12G04G10G05G30G25G29G02
 109040145.605 8  84966472.308 7  20749661.508                    20749668.148
 123123341.727 6  95940410.66243  23429576.359                    23429584.332
 113596987.391 8  88517257.56645  21616772.250                    21616779.621
 107963220.903 8  84127284.491 8  20544701.914                    20544708.934
 115292100.242 7  89838049.96245  21939356.922                    21939364.441
 117294529.679 7  91398388.263 7  22320408.016                    22320417.988
 128316713.263 6  99987111.663 6  24417864.625                    24417873.410
 109836686.458 8  85587164.34746  20901208.242                    20901213.000
 11  8 18  1 25 30.0000000  0  8G12G04G10G05G30G25G29G02
 109039892.598 8  84966275.155 8  20749613.148                    20749619.898
 123205467.322 6  96004404.64443  23445204.133                    23445212.480
 113662608.398 7  88568390.82745  21629259.672                    21629267.250
 107922960.820 8  84095913.021 8  20537040.688                    20537047.957
 115243435.890 7  89800129.74045  21930095.922                    21930103.723
 117231175.750 7  91349021.591 7  22308352.414                    22308361.793
 128236086.848 6  99924285.990 6  24402521.148                    24402529.871
 109861765.161 8  85606706.19446  20905980.578                    20905985.988
 11  8 18  1 26  0.0000000  0  8G12G04G10G05G30G25G29G02
 109040224.787 8  84966534.008 7  20749675.984                    20749682.957
 123287569.788 6  96068380.60644  23460827.758                    23460836.613
 113728719.273 8  88619905.80245  21641840.367                    21641847.520
 107883251.574 8  84064970.785 8  20529484.133                    20529491.539
 115195326.965 7  89762642.30845  21920941.406                    21920948.867
 117168284.122 7  91300015.162 7  22296384.773                    22296394.102
 128155393.158 6  99861407.830 5  24387165.789                    24387174.176
 109887005.600 8  85626374.08346  20910783.422                    20910789.008
 11  8 18  1 26 30.0000000  0  8G12G04G10G05G30G25G29G02
 109041141.472 8  84967248.310 8  20749850.867                    20749857.543
 123369647.319 7  96132337.16644  23476446.766                    23476454.266
 113795316.609 7  88671799.82045  21654512.695                    21654520.359
 107844093.817 8  84034458.280 8  20522032.742                    20522040.164
 115147774.705 7  89725588.64245  21911892.398                    21911899.707
 117105856.476 7  91251370.281 7  22284504.914                    22284514.551
 128074632.391 6  99798477.418 5  24371796.891                    24371806.156
 109912405.784 8  85646166.43646  20915616.961                    20915622.227
 11  8 18  1 27  0.0000000  0  8G12G04G10G05G30G25G29G02
 109042642.318 8  84968417.812 7  20750136.523                    20750143.324
 123451698.992 7  96196273.54744  23492060.758                    23492068.863
 113862397.635 7  88724070.74945  21667278.414                    21667286.172
 107805488.475 8  84004376.241 8  20514686.156                    20514693.270
 115100780.283 8  89688969.65945  21902949.352                    21902956.859
 117043894.588 7  91203088.328 7  22272713.875                    22272723.551
 127993804.938 6  99735495.068 6  24356416.203                    24356425.156
 109937964.418 8  85666082.26046  20920480.734                    20920485.750
 11  8 18  1 27 30.0000000  0  8G12G04G10G05G30G25G29G02
 109044727.667 8  84970042.763 7  20750533.070                    20750540.063
 123533724.201 7  96260189.31044  23507669.258                    23507677.730
 113929960.338 7  88776717.01845  21680135.086                    21680142.848
 107767436.732 8  83974725.555 8  20507445.320                    20507452.246
 115054345.550 8  89652786.79845  21894113.711                    21894120.461
 116982400.850 7  91155171.168 7  22261012.336                    22261021.871
 127912911.696 6  99672461.409 6  24341022.781                    24341031.449
 109963680.801 8  85686121.02146  20925374.391                    20925379.344
 11  8 18  1 28  0.0000000  0  8G12G04G10G05G30G25G29G02
 109047397.612 8  84972123.236 7  20751041.180                    20751047.656
 123615722.148 7  96324083.80944  23523272.336                    23523281.336
 113998002.082 8  88829736.56045  21693082.766                    21693090.305
 107729939.610 8  83945507.063 8  20500309.594                    20500316.910
 115008472.136 8  89617041.30445  21885383.461                    21885391.180
 116921377.449 7  91107620.507 7  22249399.219                    22249408.883
 127831953.541 6  99609377.186 6  24325618.008                    24325625.684
 109989553.923 8  85706281.89146  20930297.953                    20930303.160
 11  8 18  1 28 30.0000000  0  8G12G04G10G05G30G25G29G02
 109050651.616 8  84974658.843 7  20751660.422                    20751667.262
 123697691.547 6  96387956.07344  23538871.070                    23538879.691
 114066519.960 7  88883127.11345  21706121.445                    21706128.863
 107692997.916 8  83916721.354 8  20493280.000                    20493286.969
 114963161.063 8  89581734.01645  21876761.594                    21876769.266
 116860825.986 7  91060437.600 7  22237877.328                    22237886.879
 127750930.674 6  99546242.542 6  24310199.219                    24310206.988
 110015582.232 8  85726563.70546  20935250.844                    20935256.008
 11  8 18  1 29  0.0000000  0  8G12G04G10G05G30G25G29G02
 109054489.920 8  84977649.736 7  20752391.055                    20752397.816
 123779631.824 6  96451805.63643  23554463.602                    23554472.848
 114135511.583 7  88936886.82145  21719249.945                    21719257.414
 107656612.784 8  83888369.340 8  20486355.984                    20486363.082
 114918414.180 8  89546866.34445  21868246.656                    21868253.922
 116800748.708 8  91013624.185 7  22226444.758                    22226454.184
 127669843.911 6  99483058.092 6  24294768.602                    24294777.340
 110041764.930 8  85746965.81346  20940233.273                    20940238.730
 11  8 18  1 29 30.0000000  0  8G12G04G10G05G30G25G29G02
 109058913.203 8  84981096.459 7  20753232.727                    20753239.336
 123861542.804 6  96515632.35444  23570050.945                    23570059.426
 114204975.204 7  88991014.31745  21732468.742                    21732475.988
 107620785.907 8  83860452.323 8  20479538.328                    20479545.539
 114874233.586 8  89512439.92345  21859839.211                    21859846.809
 116741148.403 7  90967182.418 7  22215102.750                    22215112.727
 127588694.431 7  99419824.808 6  24279326.352                    24279334.758
 110068102.037 8  85767488.24446  20945244.953                    20945250.117
 11  8 18  1 30  0.0000000  0  8G12G04G10G05G30G25G29G02
 109063921.180 8  84984998.790 7  20754185.328                    20754192.262
 123943423.455 6  96579435.47243  23585632.109                    23585640.793
 114274908.324 7  89045507.66045  21745776.227                    21745783.852
 107585518.259 8  83832971.076 8  20472827.125                    20472834.254
 114830620.638 8  89478455.82745  21851539.586                    21851547.383
 116682026.921 8  90921113.776 7  22203852.867                    22203862.035
 127507483.141 6  99356543.305 6  24263872.938                    24263880.797
 110094592.458 8  85788130.13646  20950286.016                    20950291.039
 11  8 18  1 30 30.0000000  0  8G12G04G10G05G30G25G29G02
 109069513.455 8  84989356.415 7  20755249.531                    20755256.172
 124025272.814 6  96643214.18743  23601207.547                    23601216.238
 114345307.534 7  89100364.17645  21759172.734                    21759180.227
 107550810.179 8  83805925.847 8  20466222.914                    20466229.695
 114787576.400 7  89444914.87745  21843348.578                    21843356.336
 116623385.980 8  90875419.568 7  22192693.703                    22192702.707
 127426210.313 6  99293213.871 6  24248406.891                    24248415.527
 110121234.684 8  85808890.32446  20955356.211                    20955360.828
 11  8 18  1 31  0.0000000  0  8G12G04G10G05G30G25G29G02
 109075689.723 8  84994169.089 7  20756425.328                    20756431.793
 124107089.882 6  96706967.73843  23616776.984                    23616785.918
 114416170.296 7  89155581.93545  21772657.820                    21772664.984
 107516662.706 8  83779317.460 8  20459724.422                    20459731.297
 114745102.343 8  89411818.22245  21835266.281                    21835273.648
 116565227.506 8  90830101.301 7  22181626.281                    22181635.527
 127344876.586 6  99229836.992 6  24232928.906                    24232937.754
 110148027.503 8  85829767.84246  20960454.664                    20960459.438
 11  8 18  1 31 30.0000000  0  8G12G04G10G05G30G25G29G02
 109082449.760 8  84999436.657 7  20757711.563                    20757718.422
 124188873.866 6  96770695.49543  23632340.023                    23632349.141
 114487494.213 7  89211159.01145  21786230.141                    21786237.566
 107483076.927 8  83753146.762 8  20453333.484                    20453340.387
 114703199.582 7  89379166.73545  21827292.195                    21827299.789
 116507553.352 7  90785160.435 7  22170651.469                    22170661.156
 127263482.640 6  99166413.195 6  24217440.086                    24217448.891
 110174969.924 8  85850761.95246  20965581.289                    20965586.410
 11  8 18  1 32  0.0000000  0  8G12G04G10G05G30G25G29G02
 109089794.096 8  85005159.519 7  20759109.055                    20759115.797
 124270624.569 7  96834397.32343  23647896.852                    23647905.082
 114559277.429 7  89267094.00045  21799889.898                    21799897.648
 107450053.818 8  83727414.492 8  20447049.273                    20447056.266
 114661870.298 8  89346962.11745  21819427.703                    21819434.984
 116450366.239 8  90740599.066 7  22159768.977                    22159778.383
 127182030.143 6  99102943.779 6  24201940.289                    24201949.371
 110202061.955 8  85871872.63146  20970736.438                    20970741.703
 11  8 18  1 32 30.0000000  0  8G12G04G10G05G30G25G29G02
 109097721.726 8  85011336.892 7  20760617.688                    20760624.293
 124352340.966 7  96898072.41343  23663446.688                    23663455.266
 114631516.513 7  89323384.20445  21813636.602                    21813644.301
 107417594.035 8  83702121.197 8  20440872.180                    20440879.418
 114621115.364 8  89315205.02945  21811672.227                    21811679.625
 116393667.642 8  90696418.379 7  22148979.547                    22148989.203
 127100518.981 6  99039428.640 6  24186428.703                    24186438.395
 110229301.883 8  85893098.56646  20975920.156                    20975925.465
 11  8 18  1 33  0.0000000  0  8G12G04G10G05G30G25G29G02
 109106233.065 8  85017969.091 7  20762237.172                    20762244.133
 124434022.597 7  96961720.42543  23678990.000                    23678998.668
 114704209.397 7  89380028.02245  21827469.586                    21827477.016
 107385698.860 8  83677267.843 8  20434802.906                    20434809.621
 114580936.550 7  89283896.86745  21804026.258                    21804034.125
 116337459.911 8  90652620.161 7  22138283.219                    22138293.305
 127018950.671 6  98975868.968 6  24170907.359                    24170916.121
 110256689.564 8  85914439.61046  20981131.914                    20981137.043
 11  8 18  1 33 30.0000000  0  8G12G04G10G05G30G25G29G02
 109115327.222 8  85025055.440 7  20763967.961                    20763974.566
 124515668.468 7  97025340.55043  23694526.578                    23694535.367
 114777352.956 7  89437023.00845  21841388.289                    21841395.402
 107354368.367 8  83652854.490 8  20428840.648                    20428847.781
 114541334.591 8  89253038.20445  21796490.258                    21796498.020
 116281744.509 8  90609205.575 7  22127681.484                    22127690.867
 126937325.510 6  98912265.004 6  24155374.547                    24155383.418
 110284223.227 8  85935894.41746  20986371.656                    20986376.629
 11  8 18  1 34  0.0000000  0  8G12G04G10G05G30G25G29G02
 109125004.096 8  85032595.859 7  20765809.305                    20765815.984
 124597277.840 7  97088932.28343  23710055.680                    23710065.422
 114850944.475 7  89494367.05745  21855392.438                    21855400.027
 107323603.851 8  83628882.171 8  20422986.383                    20422993.219
 114502311.090 8  89222630.28345  21789064.695                    21789072.148
 116226523.517 8  90566176.241 7  22117172.672                    22117182.703
 126855644.294 6  98848617.380 6  24139830.938                    24139839.938
 110311902.238 7  85957462.48246  20991638.625                    20991643.660
 11  8 18  1 34 30.0000000  0  8G12G04G10G05G30G25G29G02
 109135263.832 8  85040590.441 7  20767761.586                    20767768.320
 124678850.093 7  97152495.04443  23725579.352                    23725588.148
 114924981.932 7  89552058.60345  21869481.227                    21869488.680
 107293406.030 8  83605351.438 8  20417240.180                    20417246.945
 114463867.302 8  89192674.08345  21781748.805                    21781756.043
 116171798.927 8  90523533.716 7  22106759.328                    22106769.074
 126773908.126 6  98784926.921 6  24124277.664                    24124286.031
 110339725.778 8  85979143.16946  20996933.758                    20996938.605
 11  8 18  1 35  0.0000000  0  8G12G04G10G05G30G25G29G02
 109146105.085 8  85049038.157 7  20769824.844                    20769831.160
 124760384.328 7  97216028.17743  23741094.891                    23741103.473
 114999461.977 7  89610094.99845  21883654.227                    21883661.211
 107263775.324 8  83582262.603 8  20411601.359                    20411608.215
 114426004.200 8  89163170.36645  21774543.922                    21774551.328
 116117572.357 8  90481279.236 7  22096440.305                    22096449.785
 126692117.550 6  98721194.064 6  24108712.516                    24108721.563
 110367692.613 8  86000935.52246  21002255.453                    21002260.492
 11  8 18  1 35 30.0000000  0  8G12G04G10G05G30G25G29G02
 109157528.019 8  85057939.135 7  20771998.469                    20772005.039
 124841880.043 7  97279531.29443  23756602.586                    23756611.492
 115074382.125 7  89668474.34945  21897911.234                    21897918.113
 107234712.696 8  83559616.437 8  20406070.758                    20406077.828
 114388723.071 8  89134120.13045  21767449.719                    21767456.688
 116063845.707 8  90439414.330 7  22086216.531                    22086225.824
 126610273.552 6  98657419.593 6  24093138.539                    24093146.945
 110395801.999 8  86022838.94746  21007604.141                    21007609.313
 11  8 18  1 36  0.0000000  0  8G12G04G10G05G30G25G29G02
 109169532.072 8  85067292.927 7  20774282.898                    20774289.695
 124923336.387 6  97343003.73143  23772103.414                    23772111.980
 115149739.808 7  89727194.62845  21912250.742                    21912258.598
 107206218.684 8  83537413.338 8  20400648.578                    20400655.605
 114352025.105 7  89105524.31545  21760465.945                    21760473.332
 116010620.879 8  90397940.430 7  22076088.063                    22076097.477
 126528376.858 6  98593604.043 6  24077554.078                    24077562.598
 110424052.878 8  86044852.63746  21012980.313                    21012985.055
 11  8 18  1 36 30.0000000  0  8G12G04G10G05G30G25G29G02
 109182117.220 8  85077099.523 7  20776677.781                    20776684.219
 125004752.971 6  97406445.24143  23787596.805                    23787604.984
 115225532.408 7  89786253.79045  21926674.031                    21926681.133
 107178294.100 8  83515653.955 8  20395334.719                    20395341.637
 114315911.837 8  89077384.09845  21753593.656                    21753600.898
 115957900.001 8  90356859.236 7  22066055.445                    22066065.230
 126446428.604 6  98529748.318 6  24061959.844                    24061968.445
 110452444.788 8  86066976.21946  21018383.109                    21018387.758
 11  8 18  1 37  0.0000000  0  8G12G04G10G05G30G25G29G02
 109195282.453 8  85087358.128 7  20779182.953                    20779189.684
 125086128.830 7  97469854.99043  23803081.805                    23803090.289
 115301756.913 7  89845649.52445  21941179.094                    21941186.383
 107150939.417 8  83494338.646 8  20390129.125                    20390136.395
 114280383.822 8  89049699.93845  21746832.789                    21746840.199
 115905684.402 8  90316171.753 7  22056119.500                    22056129.297
 126364429.271 7  98465852.772 6  24046356.023                    24046363.813
 110480976.255 8  86089208.53346  21023812.078                    21023817.145
 11  8 18  1 37 30.0000000  0  8G12G04G10G05G30G25G29G02
 109209027.712 8  85098068.710 7  20781798.695                    20781805.270
 125167463.504 7  97533232.64043  23818559.852                    23818567.934
 115378410.649 7  89905379.70145  21955765.469                    21955773.039
 107124155.217 8  83473467.857 8  20385032.500                    20385039.676
 114245442.432 7  89022472.87345  21740183.875                    21740191.410
 115853976.049 8  90275879.526 7  22046279.313                    22046288.969
 126282379.872 7  98401918.204 6  24030742.547                    24030750.887
 110509646.733 8  86111549.17946  21029268.281                    21029273.320
 11  8 18  1 38  0.0000000  0  8G12G04G10G05G30G25G29G02
 109223352.749 8  85109231.059 7  20784524.664                    20784531.344
 125248756.662 6  97596577.95943  23834028.844                    23834037.426
 115455491.723 7  89965442.87745  21970433.383                    21970441.293
 107097942.628 8  83453042.495 8  20380044.125                    20380051.031
 114211089.308 7  88995704.20045  21733647.172                    21733654.070
 115802777.342 8  90235984.445 7  22036536.609                    22036546.551
 126200281.807 7  98337945.772 6  24015119.883                    24015127.559
 110538455.869 8  86133997.86946  21034750.656                    21034755.215
 11  8 18  1 38 30.0000000  0  8G12G04G10G05G30G25G29G02
 109238256.425 8  85120844.305 7  20787360.477                    20787367.270
 125330007.095 7  97659889.97443  23849491.047                    23849499.004
 115532996.487 7  90025836.20145  21985182.406                    21985189.902
 107072301.557 8  83433062.465 8  20375164.773                    20375171.664
 114177324.716 7  88969394.12145  21727221.773                    21727229.109
 115752089.162 8  90196487.161 7  22026891.289                    22026900.398
 126118135.051 7  98273935.321 6  23999488.320                    23999496.035
 110567401.751 8  86156553.11246  21040258.773                    21040263.922
 11  8 18  1 39  0.0000000  0  8G12G04G10G05G30G25G29G02
 109253738.310 8  85132908.105 7  20790306.781                    20790313.445
 125411214.726 7  97723168.68143  23864943.961                    23864952.168
 115610922.464 7  90086557.74645  22000011.188                    22000018.875
 107047233.174 8  83413528.690 8  20370394.469                    20370401.477
 114144150.286 7  88943543.91045  21720908.914                    21720916.293
 115701913.940 8  90157389.592 7  22017342.844                    22017352.742
 126035941.164 6  98209888.161 6  23983847.023                    23983854.535
 110596484.410 8  86179214.93846  21045792.875                    21045797.941
 11  8 18  1 39 30.0000000  0  8G12G04G10G05G30G25G29G02
 109269798.024 8  85145422.164 7  20793362.781                    20793369.746
 125492378.781 7  97786413.39243  23880389.328                    23880397.465
 115689267.062 7  90147605.48645  22014919.500                    22014927.203
 107022737.524 8  83394441.195 8  20365733.063                    20365740.395
 114111566.857 7  88918154.21645  21714708.680                    21714716.023
 115652253.187 8  90118692.902 7  22007892.953                    22007902.695
 125953701.073 6  98145805.008 6  23968196.898                    23968204.680
 110625702.788 8  86201982.50946  21051352.844                    21051357.863
 11  8 18  1 40  0.0000000  0  8G12G04G10G05G30G25G29G02
 109286435.339 8  85158386.310 7  20796528.984                    20796535.406
 125573498.443 6  97849623.55243  23895825.578                    23895834.281
 115768027.482 7  90208977.26045  22029907.773                    22029914.379
 106998815.297 8  83375800.525 8  20361181.000                    20361187.953
 114079575.215 7  88893225.65845  21708620.297                    21708627.949
 115603108.358 8  90080398.245 7  21998541.133                    21998550.531
 125871415.399 6  98081686.307 6  23952538.359                    23952546.465
 110655055.830 8  86224855.02446  21056938.852                    21056943.652
 11  8 18  1 40 30.0000000  0  8G12G04G10G05G30G25G29G02
 109303648.508 8  85171799.170 7  20799803.961                    20799810.996
 125654573.175 6  97912798.68843  23911253.398                    23911262.332
 115847200.594 7  90270670.59445  22044973.922                    22044981.219
 106975466.503 8  83357606.692 8  20356737.750                    20356744.703
 114048176.267 7  88868758.94545  21702645.398                    21702653.016
 115554481.151 8  90042506.920 7  21989287.414                    21989297.266
 125789085.383 6  98017533.063 6  23936871.805                    23936879.832
 110684542.468 8  86247831.63746  21062549.703                    21062554.758
 11  8 18  1 41  0.0000000  0  8G12G04G10G05G30G25G29G02
 109321437.717 8  85185660.903 7  20803189.453                    20803196.133
 125735602.942 6  97975938.77343  23926673.102                    23926681.383
 115926784.350 7  90332683.92045  22060118.086                    22060125.129
 106952692.392 8  83339860.659 8  20352403.828                    20352410.586
 114017371.590 8  88844755.30345  21696783.664                    21696791.340
 115506373.823 8  90005020.701 7  21980133.063                    21980142.535
 125706712.004 7  97953346.000 6  23921196.297                    23921205.340
 110714162.797 8  86270912.42046  21068186.414                    21068190.945
 11  8 18  1 41 30.0000000  0  8G12G04G10G05G30G25G29G02
 109339801.624 8  85199970.439 7  20806683.992                    20806690.738
 125816586.319 6  98039042.74043  23942083.609                    23942091.770
 116006775.181 7  90395014.45045  22075339.492                    22075346.813
 106930492.452 8  83322562.034 8  20348179.523                    20348186.285
 113987161.222 8  88821214.76345  21691034.695                    21691042.164
 115458787.189 8  89967940.222 7  21971077.266                    21971086.945
 125624295.934 6  97889125.692 6  23905512.758                    23905521.773
 110743914.649 8  86294095.68146  21073847.797                    21073852.930
 11  8 18  1 42  0.0000000  0  8G12G04G10G05G30G25G29G02
 109358740.648 8  85214728.132 7  20810287.789                    20810294.934
 125897522.847 6  98102110.18443  23957485.133                    23957493.656
 116087170.602 7  90457660.24245  22090638.188                    22090645.867
 106908867.494 8  83305711.442 8  20344064.570                    20344071.266
 113957546.382 7  88798138.26745  21685399.484                    21685406.609
 115411723.151 8  89931266.947 7  21962121.852                    21962131.113
 125541838.298 6  97824872.962 6  23889821.813                    23889830.051
 110773797.921 8  86317381.35446  21079534.297                    21079539.570
 11  8 18  1 42 30.0000000  0  8G12G04G10G05G30G25G29G02
 109378253.287 8  85229932.794 7  20814001.195                    20814008.203
 125978412.636 6  98165141.22843  23972877.906                    23972886.395
 116167968.116 7  90520619.34445  22106013.820                    22106020.957
 106887818.127 8  83289309.360 8  20340058.656                    20340065.934
 113928528.189 7  88775526.70745  21679877.352                    21679884.449
 115365183.639 8  89895002.417 7  21953265.656                    21953274.980
 125459340.275 6  97760588.776 6  23874123.188                    23874131.953
 110803812.118 8  86340769.04346  21085245.813                    21085251.012
 11  8 18  1 43  0.0000000  0  8G12G04G10G05G30G25G29G02
 109398338.835 8  85245583.884 7  20817823.289                    20817829.922
 126059255.033 6  98228135.32343  23988261.273                    23988270.387
 116249165.240 7  90583889.83445  22121464.656                    22121472.199
 106867344.947 8  83273356.269 8  20336162.969                    20336169.898
 113900107.794 7  88753380.96445  21674468.898                    21674476.574
 115319170.524 8  89859148.056 7  21944509.469                    21944518.902
 125376802.916 6  97696273.944 6  23858415.742                    23858425.668
 110833956.472 8  86364258.15946  21090982.055                    21090987.168
 11  8 18  1 43 30.0000000  0  8G12G04G10G05G30G25G29G02
 109418996.055 8  85261680.420 7  20821754.117                    20821760.770
 126140048.905 6  98291091.55243  24003636.703                    24003644.699
 116330758.283 7  90647468.84145  22136991.102                    22136998.566
 106847447.434 8  83257851.738 8  20332376.594                    20332383.430
 113872285.126 7  88731700.98345  21669174.547                    21669181.969
 115273684.514 8  89823704.429 7  21935853.570                    21935863.301
 125294226.599 6  97631928.772 6  23842703.227                    23842710.953
 110864229.265 8  86387847.35146  21096742.875                    21096747.703
 11  8 18  1 44  0.0000000  0  8G12G04G10G05G30G25G29G02
 109440225.092 8  85278222.534 7  20825793.961                    20825800.383
 126220794.475 6  98354010.19243  24019000.938                    24019010.430
 116412745.575 7  90711355.05845  22152593.266                    22152600.688
 106828126.596 8  83242796.558 8  20328699.945                    20328706.590
 113845061.996 7  88710488.18145  21663994.102                    21664001.449
 115228728.187 8  89788673.546 7  21927298.633                    21927308.590
 125211613.278 7  97567554.750 6  23826982.828                    23826990.453
 110894631.012 8  86411537.02446  21102528.188                    21102532.746
 11  8 18  1 44 30.0000000  0  8G12G04G10G05G30G25G29G02
 109462024.719 8  85295209.262 7  20829941.992                    20829948.695
 126301490.767 6  98416890.39243  24034357.844                    24034366.465
 116495123.345 7  90775545.53145  22168268.914                    22168276.570
 106809382.069 8  83228190.454 8  20325132.688                    20325139.805
 113818438.360 7  88689742.53145  21658927.750                    21658935.180
 115184302.254 8  89754055.961 7  21918844.617                    21918854.320
 125128963.269 7  97503152.152 6  23811254.430                    23811263.035
 110925160.106 8  86435325.93446  21108337.453                    21108342.438
 11  8 18  1 45  0.0000000  0  8G12G04G10G05G30G25G29G02
 109484393.563 8  85312639.533 7  20834198.766                    20834205.973
 126382137.218 6  98479731.75243  24049704.508                    24049713.016
 116577888.756 7  90840038.06945  22184018.344                    22184025.805
 106791214.570 8  83214033.987 8  20321675.594                    20321682.367
 113792415.033 7  88669464.64645  21653976.023                    21653983.113
 115140408.354 8  89719852.952 7  21910491.633                    21910501.539
 125046277.778 7  97438721.907 6  23795520.383                    23795527.637
 110955815.586 8  86459213.32746  21114171.156                    21114176.000
 11  8 18  1 45 30.0000000  0  8G12G04G10G05G30G25G29G02
 109507330.933 8  85330512.802 7  20838563.930                    20838570.715
 126462733.237 6  98542533.83943  24065041.508                    24065050.004
 116661038.922 7  90904830.40745  22199841.594                    22199849.082
 106773623.845 8  83200326.949 8  20318328.484                    20318335.078
 113766992.678 8  88649655.06245  21649138.188                    21649145.609
 115097047.903 8  89686065.614 7  21902240.828                    21902250.414
 124963557.398 7  97374264.507 6  23779778.922                    23779787.000
 110986596.609 8  86483198.54046  21120028.734                    21120033.840
 11  8 18  1 46  0.0000000  0  8G12G04G10G05G30G25G29G02
 109530836.438 8  85348828.774 7  20843036.953                    20843043.391
 126543278.939 6  98605296.69643  24080368.563                    24080377.527
 116744571.735 7  90969920.92744  22215737.070                    22215745.047
 106756610.799 8  83187070.051 8  20315090.750                    20315097.777
 113742172.428 8  88630314.64745  21644414.891                    21644422.379
 115054222.924 8  89652695.535 7  21894091.672                    21894101.332
 124880804.148 7  97309781.500 6  23764031.086                    23764039.457
 111017503.294 8  86507281.67446  21125909.945                    21125914.711
 11  8 18  1 46 30.0000000  0  8G12G04G10G05G30G25G29G02
 109554908.833 8  85367586.476 7  20847617.344                    20847624.152
 126623773.401 6  98668019.65243  24095685.633                    24095694.992
 116828483.975 7  91035307.10345  22231705.133                    22231712.563
 106740174.812 8  83174262.816 8  20311962.836                    20311969.699
 113717954.614 8  88611443.65545  21639806.266                    21639813.879
 115011934.437 8  89619743.494 7  21886044.414                    21886053.801
 124798018.732 7  97245273.428 6  23748278.258                    23748286.164
 111048534.363 8  86531461.73246  21131814.750                    21131819.754
 11  8 18  1 47  0.0000000  0  8G12G04G10G05G30G25G29G02
 109579546.900 8  85386784.964 7  20852305.836                    20852312.715
 126704216.027 6  98730702.16543  24110993.398                    24111002.852
 116912772.763 7  91100986.67245  22247744.992                    22247752.484
 106724316.376 8  83161905.609 8  20308944.969                    20308952.129
 113694339.761 8  88593042.50045  21635312.523                    21635320.090
 114970183.795 8  89587210.565 7  21878099.328                    21878108.785
 124715201.739 7  97180740.781 6  23732518.211                    23732526.086
 111079688.712 8  86555737.85446  21137743.547                    21137748.598
 11  8 18  1 47 30.0000000  0  8G12G04G10G05G30G25G29G02
 109604750.065 8  85406423.776 7  20857102.188                    20857108.836
 126784606.912 6  98793344.38843  24126292.242                    24126300.531
 116997435.461 7  91166957.62945  22263855.711                    22263863.184
 106709035.883 8  83149998.753 8  20306037.680                    20306044.426
 113671328.759 8  88575111.88045  21630933.156                    21630941.121
 114928972.807 8  89555098.127 7  21870257.148                    21870266.844
 124632354.971 7  97116184.927 6  23716752.484                    23716760.656
 111110966.436 8  86580110.11246  21143695.375                    21143700.371
 11  8 18  1 48  0.0000000  0  8G12G04G10G05G30G25G29G02
 109630516.958 8  85426501.855 7  20862005.414                    20862011.867
 126864945.105 7  98855945.58143  24141580.000                    24141588.270
 117082468.793 7  91233217.37845  22280036.867                    22280044.813
 106694332.634 8  83138541.693 8  20303239.570                    20303246.488
 113648921.883 8  88557652.00145  21626669.727                    21626676.934
 114888302.428 8  89523406.962 7  21862517.648                    21862527.191
 124549479.148 7  97051606.441 6  23700982.180                    23700989.969
 111142366.054 8  86604577.36146  21149670.570                    21149675.730
 11  8 18  1 48 30.0000000  0  8G12G04G10G05G30G25G29G02
 109656846.527 8  85447018.393 7  20867015.656                    20867022.672
 126945230.234 7  98918505.39643  24156857.781                    24156865.938
 117167869.963 7  91299763.74045  22296288.484                    22296295.969
 106680207.050 8  83127534.772 8  20300551.344                    20300558.078
 113627119.747 8  88540663.34645  21622520.992                    21622528.195
 114848174.142 8  89492138.202 7  21854881.891                    21854891.148
 124466575.327 6  96987006.133 6  23685205.820                    23685214.500
 111173886.901 8  86629139.06146  21155668.813                    21155673.473
 11  8 18  1 49  0.0000000  0  8G12G04G10G05G30G25G29G02
 109683737.982 8  85467972.742 7  20872133.102                    20872139.895
 127025462.024 6  98981023.66443  24172125.672                    24172133.719
 117253636.578 7  91366594.88444  22312609.250                    22312617.043
 106666659.566 8  83116978.309 8  20297973.539                    20297980.387
 113605922.877 8  88524146.32945  21618487.164                    21618494.664
 114808589.427 8  89461293.001 7  21847348.922                    21847357.711
 124383644.487 6  96922384.795 6  23669423.945                    23669433.047
 111205528.486 8  86653794.85446  21161689.727                    21161694.742
 11  8 18  1 49 30.0000000  0  8G12G04G10G05G30G25G29G02
 109711190.115 8  85489364.011 7  20877356.930                    20877363.879
 127105639.960 6  99043499.93643  24187382.109                    24187391.500
 117339765.833 7  91433708.59144  22328999.180                    22329006.309
 106653690.069 8  83106872.236 8  20295505.383                    20295512.148
 113585331.910 8  88508101.42345  21614568.703                    21614576.234
 114769549.625 8  89430872.402 7  21839919.969                    21839929.273
 124300688.292 7  96857743.679 6  23653638.688                    23653646.164
 111237290.204 8  86678544.25346  21167734.078                    21167739.043
 11  8 18  1 50  0.0000000  0  8G12G04G10G05G30G25G29G02
 109739201.870 8  85511191.328 7  20882687.375                    20882694.590
 127185763.815 6  99105934.09843  24202629.508                    24202638.055
 117426254.641 7  91501102.47644  22345457.148                    22345464.641
 106641298.529 8  83097216.517 8  20293147.555                    20293154.043
 113565347.482 8  88492529.14045  21610765.836                    21610773.246
 114731056.221 8  89400877.564 7  21832594.453                    21832604.242
 124217707.936 7  96793083.743 6  23637848.156                    23637855.848
 111269171.476 8  86703386.81846  21173800.531                    21173805.379
 11  8 18  1 50 30.0000000  0  8G12G04G10G05G30G25G29G02
 109767771.610 7  85533453.444 7  20888123.930                    20888130.566
 127265832.242 6  99168325.07043  24217866.477                    24217874.648
 117513099.193 7  91568773.55344  22361983.484                    22361990.504
 106629483.943 8  83088010.371 8  20290898.883                    20290906.086
 113545968.880 8  88477428.92445  21607078.375                    21607085.793
 114693109.398 8  89371308.639 7  21825373.547                    21825383.430
 124134703.234 7  96728404.836 6  23622052.727                    23622060.328
 111301170.181 8  86728320.89546  21179889.914                    21179894.656
 11  8 18  1 51  0.0000000  0  8G12G04G10G05G30G25G29G02
 109796898.799 8  85556149.947 7  20893666.547                    20893673.383
 127345845.933 6  99230673.39543  24233091.914                    24233101.113
 117600297.815 7  91636720.53644  22378577.016                    22378584.090
 106618247.290 8  83079254.565 8  20288761.086                    20288767.563
 113527197.585 8  88462801.93345  21603506.133                    21603513.820
 114655711.476 8  89342167.415 7  21818257.039                    21818266.367
 124051676.668 7  96663708.897 6  23606253.492                    23606261.207
 111333287.227 7  86753347.17746  21186001.617                    21186006.285
 11  8 18  1 51 30.0000000  0  8G12G04G10G05G30G25G29G02
 109826581.895 8  85579279.625 7  20899315.234                    20899322.145
 127425803.928 6  99292978.28143  24248307.047                    24248316.117
 117687847.337 7  91704940.94844  22395237.188                    22395244.168
 106607587.950 8  83070948.608 8  20286732.453                    20286739.512
 113509033.602 8  88448648.16945  21600049.977                    21600057.004
 114618863.228 8  89313454.518 7  21811244.969                    21811254.441
 123968629.017 7  96598996.501 6  23590449.563                    23590458.094
 111365521.222 8  86778464.60146  21192135.484                    21192140.426
 11  8 18  1 52  0.0000000  0  8G12G04G10G05G30G25G29G02
 109856819.994 8  85602841.764 7  20905069.508                    20905076.133
 127505706.593 6  99355240.07943  24263512.563                    24263520.770
 117775745.376 7  91773432.93244  22411963.242                    22411970.938
 106597506.516 8  83063092.972 8  20284813.703                    20284821.137
 113491477.989 8  88434968.44345  21596709.164                    21596716.512
 114582566.659 8  89285171.483 7  21804337.891                    21804347.668
 123885561.902 7  96534268.949 6  23574642.617                    23574650.574
 111397872.432 8  86803673.36146  21198291.500                    21198296.719
 11  8 18  1 52 30.0000000  0  8G12G04G10G05G30G25G29G02
 109887611.934 8  85626835.475 7  20910928.867                    20910936.156
 127585553.251 6  99417458.24943  24278706.406                    24278715.457
 117863988.617 7  91842193.90244  22428755.461                    22428762.656
 106588002.549 8  83055687.310 8  20283005.398                    20283012.109
 113474530.674 8  88421762.72345  21593484.211                    21593491.496
 114546822.590 8  89257318.961 7  21797535.992                    21797545.652
 123802476.161 7  96469526.848 6  23558831.734                    23558839.367
 111430339.814 7  86828972.64446  21204470.156                    21204474.973
 11  8 18  1 53  0.0000000  0  9G12G04G26G10G05G30G25G29G02
 109918955.530 8  85651259.065 7  20916893.438                    20916900.348
 127665342.478 6  99479631.66843  24293890.266                    24293899.223
 130446240.69616 101646491.89952  24823100.859                    24823111.246
 117952573.214 7  91911220.86844  22445612.555                    22445619.871
 106579074.878 8  83048730.707 8  20281306.313                    20281313.148
 113458190.895 8  88409030.39445  21590374.406                    21590382.063
 114511631.104 8  89229897.012 7  21790839.336                    21790848.828
 123719372.032 7  96404770.435 6  23543017.367                    23543025.633
 111462920.922 7  86854360.54646  21210669.969                    21210674.906
 11  8 18  1 53 30.0000000  0  9G12G04G26G10G05G30G25G29G02
 109950851.045 8  85676112.700 7  20922962.578                    20922969.660
 127745075.790 6  99541761.51343  24309062.586                    24309071.266
 130353826.433 6 101574480.92743  24805515.242                    24805525.617
 118041498.268 7  91980513.13544  22462534.633                    22462541.840
 106570725.411 8  83042224.653 8  20279717.500                    20279724.316
 113442460.852 8  88396773.18745  21587381.680                    21587389.355
 114476995.306 8  89202908.073 7  21784248.430                    21784257.609
 123636252.797 7  96340002.214 6  23527200.375                    23527208.180
 111495617.836 8  86879838.67946  21216891.758                    21216896.449
 11  8 18  1 54  0.0000000  0  9G12G04G26G10G05G30G25G29G02
 109983296.336 8  85701394.752 7  20929136.922                    20929143.871
 127824752.133 6  99603846.96143  24324224.773                    24324233.758
 130261280.642 6 101502367.45143  24787904.578                    24787914.414
 118130759.969 7  92050067.69844  22479520.563                    22479527.309
 106562952.931 8  83036168.203 8  20278238.773                    20278245.469
 113427339.930 8  88384990.61745  21584504.203                    21584511.508
 114442915.429 8  89176352.326 7  21777763.008                    21777772.684
 123553118.804 7  96275222.513 6  23511379.992                    23511388.195
 111528428.833 8  86905405.71546  21223135.844                    21223140.633
 11  8 18  1 54 30.0000000  0  9G12G04G26G10G05G30G25G29G02
 110016290.371 8  85727104.383 7  20935415.734                    20935422.766
 127904370.475 6  99665887.19842  24339375.539                    24339384.426
 130168605.749 6 101430153.37243  24770268.805                    24770278.594
 118220355.260 7  92119882.23244  22496569.711                    22496576.516
 106555756.741 8  83030560.816 8  20276869.336                    20276875.852
 113412827.996 8  88373682.60645  21581742.609                    21581750.105
 114409392.264 8  89150230.361 7  21771384.086                    21771393.477
 123469970.755 7  96210431.859 6  23495558.266                    23495566.281
 111561352.908 8  86931060.85946  21229400.734                    21229405.305
 11  8 18  1 55  0.0000000  0  9G12G04G26G10G05G30G25G29G02
 110049830.956 8  85753239.902 7  20941798.359                    20941805.129
 127983930.653 6  99727882.12342  24354515.844                    24354524.625
 130075804.652 6 101357840.97743  24752608.719                    24752619.305
 118310280.735 7  92189954.03644  22513681.703                    22513689.023
 106549136.194 8  83025401.967 8  20275609.016                    20275615.996
 113398925.049 8  88362849.11345  21579096.672                    21579104.496
 114376426.662 8  89124542.852 7  21765111.055                    21765120.293
 123386809.990 7  96145631.278 6  23479733.148                    23479740.914
 111594389.157 8  86956803.41246  21235687.414                    21235692.332
 11  8 18  1 55 30.0000000  0  9G12G04G26G10G05G30G25G29G02
 110083916.945 8  85779800.413 7  20948284.711                    20948291.449
 128063432.224 6  99789831.42743  24369643.469                    24369653.000
 129982880.223 6 101285432.50243  24734926.203                    24734935.707
 118400533.918 7  92260281.21044  22530856.688                    22530863.863
 106543091.510 8  83020691.853 8  20274458.773                    20274465.473
 113385631.441 8  88352490.44145  21576567.266                    21576574.961
 114344019.904 8  89099290.831 7  21758944.031                    21758953.609
 123303637.795 7  96080821.787 6  23463905.773                    23463913.242
 111627537.128 7  86982633.00646  21241995.516                    21242000.621
 11  8 18  1 56  0.0000000  0  9G12G04G26G10G05G30G25G29G02
 110118547.411 8  85806785.202 7  20954874.453                    20954881.230
 128142875.162 6  99851735.02143  24384761.352                    24384770.430
 129889835.235 6 101212930.09643  24717220.391                    24717230.324
 118491112.276 7  92330861.75544  22548092.797                    22548100.551
 106537622.327 8  83016430.173 8  20273417.805                    20273424.945
 113372947.405 8  88342606.75745  21574153.633                    21574161.211
 114312173.121 8  89074475.146 7  21752883.734                    21752893.422
 123220455.440 7  96016004.385 6  23448076.195                    23448084.574
 111660796.436 7  87008549.36946  21248324.656                    21248329.609
 11  8 18  1 56 30.0000000  0  9G12G04G26G10G05G30G25G29G02
 110153720.602 8  85834192.869 7  20961568.109                    20961574.387
 128222259.305 6  99913592.80143  24399867.984                    24399876.465
 129796672.846 6 101140336.19643  24699492.000                    24699501.559
 118582012.483 7  92401693.07844  22565390.750                    22565398.730
 106532728.647 8  83012616.927 8  20272487.211                    20272493.719
 113360873.105 8  88333198.21545  21571855.789                    21571863.566
 114280887.427 8  89050096.678 7  21746930.336                    21746939.695
 123137264.348 7  95951180.195 6  23432245.734                    23432253.055
 111694166.178 8  87034551.77246  21254674.453                    21254679.422
 11  8 18  1 57  0.0000000  0  9G12G04G26G10G05G30G25G29G02
 110189434.886 8  85862022.182 7  20968364.023                    20968370.895
 128301584.125 6  99975404.33943  24414962.125                    24414971.906
 129703395.858 6 101067652.97743  24681740.867                    24681751.023
 118673231.665 7  92472772.95944  22582749.586                    22582756.410
 106528409.600 8  83009251.463 8  20271665.203                    20271671.918
 113349408.438 8  88324264.70545  21569674.359                    21569681.863
 114250163.588 8  89026156.019 7  21741084.008                    21741093.316
 123054065.592 7  95886350.004 6  23416413.656                    23416421.277
 111727646.119 7  87060640.05746  21261045.203                    21261050.160
 11  8 18  1 57 30.0000000  0  9G12G04G26G10G05G30G25G29G02
 110225689.009 8  85890272.147 7  20975262.859                    20975269.914
 128380849.338 6 100037169.45543  24430046.914                    24430055.570
 129610007.070 6 100994882.68943  24663970.164                    24663980.488
 118764767.133 7  92544099.30844  22600167.789                    22600174.867
 106524664.786 8  83006333.446 8  20270952.266                    20270959.105
 113338553.519 8  88315806.32645  21567608.383                    21567616.313
 114220002.660 8  89002653.991 7  21735344.523                    21735354.094
 122970860.627 7  95821514.992 6  23400579.742                    23400588.297
 111761235.680 7  87086813.75746  21267437.211                    21267442.027
 11  8 18  1 58  0.0000000  0  9G12G04G26G10G05G30G25G29G02
 110262481.508 7  85918941.623 7  20982264.516                    20982271.473
 128460054.686 6 100098887.96243  24445118.547                    24445127.758
 129516509.731 6 100922027.75943  24646177.555                    24646187.840
 118856616.087 7  92615669.91744  22617646.391                    22617652.930
 106521494.149 8  83003862.848 8  20270348.805                    20270355.441
 113328308.457 8  88307823.17245  21565659.336                    21565667.188
 114190405.689 8  88979591.411 7  21729712.453                    21729721.832
 122887650.842 7  95756676.216 6  23384745.484                    23384753.867
 111794934.195 7  87113072.35246  21273849.656                    21273854.805
 11  8 18  1 58 30.0000000  0  9G12G04G26G10G05G30G25G29G02
 110299810.851 8  85948029.418 7  20989367.742                    20989374.434
 128539200.022 6 100160559.69643  24460179.414                    24460188.723
 129422906.353 5 100849090.20742  24628365.906                    24628375.473
 118948775.116 7  92687482.15144  22635183.508                    22635190.586
 106518896.983 8  83001839.106 8  20269854.625                    20269861.754
 113318672.971 8  88300315.01445  21563825.570                    21563833.027
 114161373.375 8  88956968.840 7  21724187.938                    21724197.219
 122804437.485 7  95691834.677 6  23368911.086                    23368918.539
 111828740.946 8  87139415.28146  21280282.953                    21280287.809
 11  8 18  1 59  0.0000000  0  9G12G04G26G10G05G30G25G29G02
 110337675.782 8  85977534.551 7  20996573.164                    20996580.023
 128618284.945 6 100222184.32943  24475228.773                    24475237.613
 129329200.135 6 100776072.51442  24610533.656                    24610543.984
 119041241.960 7  92759534.25444  22652778.500                    22652786.332
 106516873.201 8  83000262.154 8  20269469.531                    20269476.676
 113309647.364 8  88293282.09445  21562108.078                    21562115.805
 114132906.785 8  88934787.085 7  21718770.250                    21718779.770
 122721222.115 7  95626991.578 6  23353075.266                    23353083.645
 111862655.388 7  87165842.13346  21286736.453                    21286741.488
 11  8 18  1 59 30.0000000  0  9G12G04G26G10G05G30G25G29G02
 110376073.997 8  86007455.232 7  21003879.938                    21003887.051
 128697309.074 6 100283761.59743  24490267.148                    24490276.129
 129235393.790 6 100702976.79342  24592683.133                    24592692.785
 119134013.348 7  92831823.63944  22670433.234                    22670440.535
 106515421.677 8  82999131.125 8  20269193.438                    20269200.078
 113301231.162 8  88286724.04145  21560506.391                    21560514.023
 114105006.561 7  88913046.654 7  21713461.422                    21713470.410
 122638005.493 7  95562147.465 6  23337239.594                    23337247.352
 111896676.415 7  87192352.03046  21293210.492                    21293215.504
 11  8 18  2  0  0.0000000  0  9G12G04G26G10G05G30G25G29G02
 110415004.249 8  86037790.490 7  21011288.703                    21011295.414
 128776272.200 6 100345291.35343  24505293.414                    24505302.113
 129141490.520 6 100629805.54842  24574813.797                    24574823.664
 119227086.301 6  92904348.01544  22688144.344                    22688151.578
 106514542.135 8  82998445.781 8  20269026.070                    20269032.691
 113293424.429 8  88280640.89045  21559020.938                    21559028.699
 114077673.596 8  88891748.262 7  21708260.055                    21708269.551
 122554789.153 6  95497303.611 6  23321404.313                    23321412.180
 111930803.962 7  87218944.94546  21299704.781                    21299710.277
 11  8 18  2  0 30.0000000  0  9G12G04G26G10G05G30G25G29G02
 110454465.342 8  86068539.384 7  21018797.414                    21018804.160
 128855174.259 6 100406773.48843  24520308.117                    24520317.184
 129047493.332 6 100556561.05143  24556926.016                    24556936.102
 119320458.086 7  92977105.27444  22705911.852                    22705919.094
 106514234.099 8  82998205.775 8  20268967.391                    20268973.918
 113286227.166 8  88275032.65345  21557651.156                    21557658.645
 114050908.887 8  88870892.663 7  21703167.063                    21703176.340
 122471574.447 7  95432461.003 6  23305568.617                    23305576.824
 111965037.867 8  87245620.72146  21306219.313                    21306224.035
 11  8 18  2  1  0.0000000  0  9G12G04G26G10G05G30G25G29G02
 110494454.995 8  86099700.154 7  21026407.258                    21026413.996
 128934014.952 6 100468207.87943  24535310.258                    24535319.355
 128953405.081 6 100483245.70342  24539021.945                    24539031.605
 119414125.860 7  93050093.12744  22723736.633                    22723744.438
 106514497.038 7  82998410.684 8  20269017.055                    20269023.680
 113279639.090 8  88269899.11345  21556397.641                    21556405.340
 114024713.138 8  88850480.423 7  21698181.805                    21698191.391
 122388362.983 6  95367620.931 6  23289734.469                    23289742.105
 111999377.028 8  87272378.52346  21312753.945                    21312758.918
 11  8 18  2  1 30.0000000  0  9G12G04G26G10G05G30G25G29G02
 110534971.807 8  86131271.688 7  21034117.352                    21034124.391
 129012793.826 6 100529593.99443  24550301.750                    24550310.066
 128859228.726 6 100409861.61443  24521100.609                    24521110.395
 119508086.414 7  93123309.14044  22741616.930                    22741623.828
 106515330.164 7  82999059.905 8  20269175.828                    20269182.563
 113273659.905 8  88265240.02945  21555259.781                    21555267.133
 113999086.926 8  88830511.975 7  21693305.398                    21693315.164
 122305155.957 7  95302784.303 6  23273900.656                    23273908.438
 112033820.887 8  87299217.90046  21319308.352                    21319313.605
 11  8 18  2  2  0.0000000  0  9G12G04G26G10G05G30G25G29G02
 110576014.265 8  86163252.812 7  21041927.648                    21041934.477
 129091510.901 6 100590932.03443  24565280.836                    24565289.297
 128764967.470 6 100336411.43643  24503163.719                    24503173.211
 119602337.161 7  93196751.27244  22759552.070                    22759559.695
 106516733.344 8  83000153.308 8  20269442.898                    20269449.387
 113268289.648 8  88261055.42845  21554237.695                    21554245.367
 113974031.250 8  88810988.111 7  21688537.383                    21688546.723
 122221954.938 7  95237952.373 6  23258067.922                    23258075.445
 112068369.218 7  87326138.69046  21325882.773                    21325887.637
 11  8 18  2  2 30.0000000  0  9G12G04G26G10G05G30G25G29G02
 110617580.709 8  86195642.249 7  21049837.406                    21049844.488
 129170165.767 6 100652221.51943  24580248.570                    24580257.598
 128670624.295 6 100262897.39243  24485210.023                    24485219.707
 119696874.983 6  93270417.09944  22777541.930                    22777549.473
 106518705.488 8  83001690.065 8  20269818.289                    20269824.891
 113263527.852 8  88257344.96145  21553331.688                    21553339.090
 113949546.663 8  88791909.247 7  21683878.508                    21683887.984
 122138761.057 7  95173126.017 6  23242236.453                    23242244.934
 112103021.306 7  87353140.33946  21332476.609                    21332481.398
 11  8 18  2  3  0.0000000  0  9G12G04G26G10G05G30G25G29G02
 110659669.304 8  86228438.547 7  21057846.797                    21057853.473
 129248758.411 6 100713462.54343  24595204.969                    24595213.121
 128576201.926 7 100189321.67543  24467242.711                    24467251.977
 119791697.087 7  93344304.44044  22795586.445                    22795594.031
 106521246.104 8  83003669.790 8  20270301.563                    20270308.344
 113259374.337 8  88254108.46245  21552541.188                    21552548.336
 113925633.940 8  88773275.982 7  21679327.914                    21679337.020
 122055575.984 6  95108306.515 6  23226407.086                    23226414.883
 112137776.557 7  87380222.36746  21339090.406                    21339095.563
 11  8 18  2  3 30.0000000  0  9G12G04G26G10G05G30G25G29G02
 110702277.986 8  86261640.110 7  21065954.453                    21065961.207
 129327288.401 6 100774654.73243  24610147.313                    24610157.094
 128481703.771 6 100115686.90743  24449260.063                    24449269.906
 119886800.598 7  93418411.06144  22813683.750                    22813690.883
 106524354.275 8  83006091.756 8  20270893.008                    20270899.934
 113255828.670 8  88251345.61845  21551866.844                    21551874.137
 113902293.545 8  88755088.704 7  21674886.469                    21674895.520
 121972400.886 7  95043494.786 6  23210579.023                    23210586.852
 112172634.282 7  87407384.24946  21345723.766                    21345728.586
 11  8 18  2  4  0.0000000  0  9G12G04G26G10G05G30G25G29G02
 110745405.514 8  86295245.981 7  21074161.680                    21074168.492
 129405755.802 6 100835798.18443  24625079.625                    24625088.148
 128387132.956 6 100041995.51043  24431263.609                    24431273.305
 119982182.885 6  93492734.92644  22831834.336                    22831841.520
 106528029.927 7  83008955.924 8  20271592.820                    20271599.324
 113252890.926 8  88249056.46945  21551307.500                    21551314.930
 113879526.588 8  88737348.249 7  21670553.852                    21670563.035
 121889237.645 7  94978692.291 6  23194754.094                    23194761.355
 112207594.841 7  87434626.25646  21352376.383                    21352381.203
 11  8 18  2  4 30.0000000  0  9G12G04G26G10G05G30G25G29G02
 110789049.806 8  86329254.509 7  21082466.852                    21082473.875
 129484160.366 6 100896892.65643  24640000.375                    24640008.602
 128292492.319 6  99968249.67643  24413253.633                    24413263.625
 120077840.568 7  93567273.37944  22850037.492                    22850045.086
 106532271.566 7  83012261.122 8  20272399.930                    20272406.543
 113250560.364 7  88247240.44745  21550864.109                    21550871.441
 113857333.274 8  88720054.769 7  21666330.633                    21666340.164
 121806087.022 6  94913899.631 6  23178931.078                    23178938.813
 112242657.109 8  87461947.52746  21359048.500                    21359053.141
 11  8 18  2  5  0.0000000  0  9G12G04G26G10G05G30G25G29G02
 110833209.047 8  86363664.299 7  21090869.953                    21090877.016
 129562501.815 6 100957937.97543  24654907.703                    24654916.840
 128197784.880 6  99894451.84543  24395231.555                    24395240.785
 120173771.084 6  93642024.44544  22868291.961                    22868299.938
 106537078.675 8  83016006.943 8  20273314.203                    20273320.863
 113248836.621 8  88245897.28545  21550535.945                    21550543.477
 113835714.231 8  88703208.776 7  21662216.438                    21662225.656
 121722950.996 7  94849118.345 6  23163110.422                    23163118.414
 112277820.619 7  87489347.68446  21365740.156                    21365744.602
 11  8 18  2  5 30.0000000  0  9G12G04G26G10G05G30G25G29G02
 110877881.705 8  86398474.166 7  21099370.805                    21099378.000
 129640780.057 6 101018934.01342  24669802.078                    24669811.855
 128103013.871 6  99820604.46743  24377196.547                    24377206.391
 120269971.312 6  93716985.66144  22886598.969                    22886605.973
 106542450.697 8  83020192.953 8  20274336.898                    20274343.445
 113247719.457 8  88245026.76145  21550323.461                    21550330.961
 113814670.168 8  88686810.816 7  21658211.727                    21658221.180
 121639830.985 6  94784349.539 6  23147293.508                    23147301.051
 112313085.020 8  87516826.44746  21372450.539                    21372455.465
 11  8 18  2  6  0.0000000  0  8G12G26G10G05G30G25G29G02
 110923066.476 8  86433683.077 7  21107969.477                    21107976.199
 128008182.975 6  99746710.38443  24359151.297                    24359160.859
 120366439.475 7  93792155.69444  22904955.672                    22904962.703
 106548387.117 8  83024818.748 8  20275466.477                    20275473.113
 113247209.071 8  88244629.06045  21550226.141                    21550233.770
 113794202.209 8  88670861.763 7  21654317.383                    21654326.727
 121556728.851 7  94719594.652 6  23131479.219                    23131487.434
 112348450.482 8  87544383.97646  21379180.484                    21379184.859
 11  8 18  2  6 30.0000000  0  8G12G26G10G05G30G25G29G02
 110968760.399 8  86469288.718 7  21116664.984                    21116671.453
 127913294.498 6  99672771.49243  24341094.344                    24341103.945
 120463171.586 6  93867531.30944  22923364.039                    22923370.914
 106554886.362 8  83029883.123 8  20276703.148                    20276709.250
 113247304.072 8  88244703.08245  21550244.195                    21550251.891
 113774310.051 8  88655361.390 7  21650531.797                    21650541.223
 121473645.480 6  94654854.397 6  23115669.094                    23115677.137
 112383915.714 8  87572019.23846  21385929.281                    21385934.039
 11  8 18  2  7  0.0000000  0  8G12G26G10G05G30G25G29G02
 111014961.992 8  86505289.955 7  21125456.539                    21125463.340
 127818351.927 6  99598790.42343  24323026.422                    24323036.926
 120560164.760 7  93943110.41944  22941820.906                    22941827.973
 106561948.016 8  83035385.720 8  20278046.789                    20278053.555
 113248004.143 8  88245248.59645  21550377.484                    21550384.984
 113754994.287 8  88640310.143 7  21646856.117                    21646865.422
 121390582.297 7  94590129.870 6  23099862.688                    23099870.496
 112419480.266 8  87599731.89846  21392696.875                    21392701.641
 11  8 18  2  7 30.0000000  0  8G12G26G10G05G30G25G29G02
 111061669.139 8  86541685.134 7  21134344.711                    21134351.629
 127723358.224 6  99524769.53043  24304950.203                    24304959.863
 120657416.031 7  94018890.64944  22960326.781                    22960334.250
 106569571.156 8  83041325.859 8  20279497.594                    20279504.168
 113249308.739 8  88246265.16345  21550625.734                    21550633.164
 113736255.412 8  88625708.421 7  21643290.070                    21643299.664
 121307540.906 7  94525422.317 6  23084060.313                    23084068.254
 112455143.674 7  87627521.58846  21399483.281                    21399487.566
 11  8 18  2  8  0.0000000  0  8G12G26G10G05G30G25G29G02
 111108880.140 8  86578472.925 7  21143328.953                    21143335.660
 127628316.361 6  99450711.10543  24286864.602                    24286873.992
 120754922.726 7  94094869.87144  22978881.719                    22978889.219
 106577754.716 8  83047702.666 8  20281054.961                    20281061.336
 113251217.412 7  88247752.45045  21550988.766                    21550996.531
 113718093.934 8  88611556.633 7  21639834.023                    21639843.496
 121224522.753 7  94460732.876 6  23068262.594                    23068269.984
 112490905.545 8  87655388.00346  21406288.906                    21406293.352
 11  8 18  2  8 30.0000000  0  8G12G26G10G05G30G25G29G02
 111156592.964 8  86615651.751 7  21152408.227                    21152415.051
 127533229.552 6  99376617.65143  24268769.289                    24268779.359
 120852681.967 7  94171045.91144  22997484.922                    22997491.855
 106586497.929 8  83054515.570 8  20282718.492                    20282725.059
 113253729.559 8  88249709.96345  21551466.898                    21551474.730
 113700510.181 8  88597855.001 7  21636488.141                    21636497.625
 121141529.543 7  94396062.890 6  23052469.367                    23052477.367
 112526765.491 8  87683330.82846  21413112.242                    21413117.520
 11  8 18  2  9  0.0000000  0  8G12G26G10G05G30G25G29G02
 111204805.645 8  86653220.064 7  21161583.016                    21161589.824
 127438100.898 6  99302491.57943  24250666.828                    24250676.863
 120950690.853 7  94247416.48444  23016135.180                    23016142.633
 106595799.466 8  83061763.542 8  20284488.336                    20284495.301
 113256844.328 8  88252137.06545  21552060.164                    21552066.730
 113683504.442 8  88584603.763 7  21633251.961                    21633261.344
 121058562.638 7  94331413.364 6  23036681.375                    23036689.207
 112562723.024 7  87711349.71146  21419955.180                    21419959.926
 11  8 18  2  9 30.0000000  0  8G12G26G10G05G30G25G29G02
 111253516.346 8  86691176.460 7  21170851.758                    21170859.461
 127342933.738 6  99228335.49743  24232557.594                    24232567.234
 121048946.734 6  94323979.48344  23034832.461                    23034840.160
 106605658.925 8  83069446.247 8  20286364.789                    20286371.207
 113260561.299 7  88255033.40945  21552766.781                    21552774.684
 113667077.197 8  88571803.314 7  21630125.945                    21630135.500
 120975623.720 7  94266785.672 6  23020898.859                    23020905.996
 112598777.459 7  87739444.10346  21426815.813                    21426820.680
 11  8 18  2 10  0.0000000  0  8G12G26G10G05G30G25G29G02
 111302722.664 8  86729519.044 7  21180215.648                    21180222.473
 127247731.253 6  99154151.89343  24214441.070                    24214450.418
 121147446.576 6  94400732.62844  23053576.945                    23053583.324
 106616075.036 8  83077562.719 8  20288347.000                    20288353.688
 113264879.642 7  88258398.36045  21553589.211                    21553595.926
 113651228.753 8  88559453.872 7  21627110.156                    21627119.707
 120892714.060 7  94202180.773 6  23005121.578                    23005129.250
 112634928.682 8  87767613.89046  21433695.188                    21433700.473
 11  8 18  2 10 30.0000000  0  8G12G26G10G05G30G25G29G02
 111352422.555 8  86768246.239 7  21189672.984                    21189680.176
 127152496.415 6  99079943.07143  24196318.156                    24196326.945
 121246187.292 6  94477673.44944  23072366.242                    23072373.625
 106627046.538 8  83086111.961 8  20290434.750                    20290440.934
 113269798.697 8  88262231.40645  21554524.430                    21554532.297
 113635959.292 8  88547555.593 7  21624204.266                    21624213.652
 120809835.353 7  94137599.993 7  22989350.141                    22989357.777
 112671176.280 8  87795858.78946  21440592.883                    21440597.566
 11  8 18  2 11  0.0000000  0  8G12G26G10G05G30G25G29G02
 111402614.470 8  86807356.825 7  21199224.641                    21199231.836
 127057232.519 7  99005711.61443  24178189.633                    24178198.539
 121345166.221 6  94554799.87943  23091201.609                    23091208.734
 106638572.640 8  83095093.352 8  20292628.422                    20292634.703
 113275317.762 8  88266531.99645  21555575.070                    21555582.801
 113621269.175 8  88536108.742 7  21621409.148                    21621418.297
 120726989.243 7  94073044.633 6  22973585.242                    22973592.984
 112707519.891 8  87824178.49546  21447508.859                    21447513.809
 11  8 18  2 11 30.0000000  0  8G12G26G10G05G30G25G29G02
 111453295.981 8  86846848.903 7  21208869.148                    21208875.469
 126961942.992 6  98931460.17143  24160056.914                    24160065.270
 121444380.468 6  94632109.68244  23110081.391                    23110088.633
 106650652.222 8  83104506.037 8  20294926.789                    20294933.438
 113281436.107 8  88271299.53945  21556739.188                    21556746.941
 113607158.678 8  88525113.554 7  21618724.063                    21618732.813
 120644177.143 7  94008515.766 6  22957826.133                    22957833.961
 112743959.178 8  87852572.75746  21454442.664                    21454447.719
 11  8 18  2 12  0.0000000  0  8G12G26G10G05G30G25G29G02
 111504464.976 8  86886720.844 7  21218606.422                    21218612.965
 126866630.632 6  98857190.90843  24141918.922                    24141928.367
 121543827.314 6  94709600.74143  23129005.195                    23129012.891
 106663284.285 8  83114349.224 8  20297330.281                    20297336.875
 113288152.971 8  88276533.46645  21558017.492                    21558024.875
 113593628.121 8  88514570.281 7  21616149.289                    21616158.508
 120561400.909 7  93944014.844 7  22942075.055                    22942082.613
 112780493.503 8  87881041.07246  21461395.516                    21461400.039
 11  8 18  2 12 30.0000000  0  8G12G26G10G05G30G25G29G02
 111556119.481 8  86926971.106 7  21228435.352                    21228442.320
 126771298.982 6  98782906.63543  24123777.836                    24123787.418
 121643503.591 6  94787270.54344  23147973.469                    23147980.102
 106676467.552 8  83124621.928 8  20299839.055                    20299845.590
 113295467.507 8  88282233.11345  21559409.125                    21559417.449
 113580677.513 8  88504478.909 7  21613685.000                    21613694.207
 120478661.954 7  93879542.983 6  22926329.922                    22926337.340
 112817122.596 8  87909583.23646  21468365.789                    21468370.344
 11  8 18  2 13  0.0000000  0  8G12G26G10G05G30G25G29G02
 111608257.502 8  86967598.128 7  21238357.227                    21238363.840
 126675951.415 6  98708609.97243  24105634.172                    24105643.383
 121743406.802 6  94865117.22744  23166984.352                    23166991.172
 106690201.212 8  83135323.491 8  20302452.594                    20302459.082
 113303379.041 7  88288397.95045  21560914.867                    21560922.473
 113568307.382 8  88494839.864 7  21611330.813                    21611339.820
 120395961.955 7  93815101.476 6  22910592.477                    22910600.422
 112853846.276 8  87938199.10346  21475353.805                    21475358.730
 11  8 18  2 13 30.0000000  0  8G12G26G10G05G30G25G29G02
 111660876.547 8  87008599.970 7  21248370.156                    21248376.801
 126580591.036 6  98634303.28943  24087487.984                    24087497.305
 121843533.873 7  94943138.31144  23186037.547                    23186045.137
 106704483.895 8  83146452.879 8  20305170.414                    20305176.844
 113311886.604 7  88295027.22245  21562534.000                    21562541.375
 113556517.575 8  88485653.016 7  21609087.313                    21609096.875
 120313302.508 7  93750691.567 7  22894863.094                    22894870.754
 112890663.893 8  87966888.16046  21482359.672                    21482365.039
 11  8 18  2 14  0.0000000  0  8G12G26G10G05G30G25G29G02
 111713974.905 8  87049975.318 7  21258474.461                    21258481.527
 126485221.102 6  98559989.18443  24069339.547                    24069348.262
 121943882.093 7  95021331.71744  23205133.469                    23205141.066
 106719314.751 8  83158009.410 8  20307992.820                    20307998.953
 113320989.501 7  88302120.38445  21564266.477                    21564273.391
 113545308.486 8  88476918.681 7  21606954.172                    21606963.668
 120230685.425 7  93686314.689 6  22879141.688                    22879148.637
 112927575.443 8  87995650.41646  21489384.063                    21489388.617
 11  8 18  2 14 30.0000000  0  8G12G26G10G05G30G25G29G02
 111767550.504 8  87091722.530 7  21268669.484                    21268676.574
 126389844.942 6  98485670.23343  24051189.094                    24051198.816
 122044448.718 7  95099695.30944  23224270.820                    23224277.723
 106734692.652 8  83169992.209 8  20310918.844                    20310924.863
 113330686.711 7  88309676.64945  21566111.211                    21566118.781
 113534680.148 8  88468636.884 7  21604931.133                    21604940.918
 120148112.375 7  93621972.111 6  22863428.320                    22863435.352
 112964580.485 8  88024485.52546  21496425.570                    21496431.129
 11  8 18  2 15  0.0000000  0  8G12G26G10G05G30G25G29G02
 111821600.738 8  87133839.587 7  21278955.172                    21278962.121
 126294465.776 6  98411348.92243  24033039.922                    24033048.762
 122145230.829 6  95178226.79144  23243448.750                    23243456.254
 106750616.089 8  83182400.098 8  20313949.055                    20313955.648
 113340977.072 8  88317695.10445  21568069.469                    21568077.441
 113524632.371 8  88460807.468 7  21603019.406                    21603029.063
 120065584.783 7  93557664.949 6  22847723.531                    22847731.246
 113001678.429 8  88053393.02646  21503485.586                    21503490.090
 11  8 18  2 15 30.0000000  0  8G12G26G10G05G30G25G29G02
 111876123.448 8  87176324.823 7  21289330.445                    21289337.410
 126199086.709 6  98337027.63944  24014889.438                    24014898.316
 122246225.505 7  95256923.92543  23262667.586                    23262674.949
 106767083.512 8  83195231.876 8  20317082.977                    20317089.320
 113351859.740 8  88326175.09345  21570140.719                    21570148.031
 113515165.329 8  88453430.562 7  21601218.016                    21601227.273
 119983104.019 7  93493394.272 6  22832028.289                    22832035.293
 113038869.185 8  88082372.85346  21510562.664                    21510567.230
 11  8 18  2 16  0.0000000  0  8G12G26G10G05G30G25G29G02
 111931116.286 8  87219176.380 7  21299794.945                    21299802.078
 126103711.158 6  98262709.14543  23996739.836                    23996748.598
 122347429.674 6  95335784.29444  23281926.164                    23281933.688
 106784093.581 8  83208486.488 8  20320319.461                    20320326.172
 113363333.537 8  88335115.69745  21572323.688                    21572331.539
 113506278.853 8  88446506.042 7  21599526.883                    21599536.441
 119900672.023 7  93429161.610 6  22816341.789                    22816348.941
 113076152.184 8  88111424.54946  21517657.289                    21517662.008
 11  8 18  2 16 30.0000000  0  8G12G26G10G05G30G25G29G02
 111986577.585 8  87262392.972 7  21310349.016                    21310355.895
 126008342.624 6  98188396.09343  23978591.891                    23978601.223
 122448840.900 7  95414806.03543  23301224.477                    23301230.672
 106801645.938 8  83222163.667 8  20323659.445                    20323666.168
 113375397.882 8  88344516.48145  21574620.156                    21574627.250
 113497973.359 8  88440034.245 7  21597946.289                    21597956.035
 119818290.889 7  93364968.560 6  22800665.242                    22800671.477
 113113527.404 8  88140548.11046  21524769.133                    21524774.508
 11  8 18  2 17  0.0000000  0  8G12G26G10G05G30G25G29G02
 112042504.889 8  87305972.678 7  21320991.891                    21320998.207
 125912984.338 6  98114091.02043  23960446.000                    23960455.371
 122550456.687 6  95493987.17043  23320560.063                    23320567.879
 106819739.214 8  83236262.335 8  20327102.422                    20327109.141
 113388051.698 8  88354376.59045  21577027.672                    21577035.016
 113490248.794 8  88434015.111 7  21596476.523                    21596486.004
 119735962.039 7  93300816.260 6  22784998.281                    22785005.781
 113150994.358 8  88169743.14646  21531898.906                    21531903.621
 11  8 18  2 17 30.0000000  0  8G12G26G10G05G30G25G29G02
 112098895.709 8  87349913.579 7  21331722.508                    21331729.520
 125817639.564 6  98039796.48643  23942302.141                    23942311.672
 122652273.568 7  95573325.02143  23339935.898                    23339942.430
 106838371.474 8  83250781.004 8  20330648.156                    20330654.816
 113401293.540 8  88364694.88745  21579547.555                    21579555.125
 113483104.779 8  88428448.349 7  21595117.000                    21595126.328
 119653686.957 7  93236705.876 6  22769342.000                    22769348.926
 113188552.796 8  88199009.47746  21539046.313                    21539051.246
 11  8 18  2 18  0.0000000  0  8G12G26G10G05G30G25G29G02
 112155747.577 8  87394213.744 7  21342540.719                    21342548.207
 125722311.648 6  97965515.09944  23924162.164                    23924170.461
 122754288.955 7  95652817.54543  23359348.711                    23359356.094
 106857541.621 8  83265718.799 8  20334296.172                    20334302.652
 113415122.356 8  88375470.57245  21582179.141                    21582186.699
 113476541.285 8  88423333.944 7  21593868.203                    21593877.586
 119571467.493 7  93172638.801 6  22753696.453                    22753703.531
 113226202.266 8  88228346.73746  21546210.578                    21546215.500
 11  8 18  2 18 30.0000000  0  8G12G26G10G05G30G25G29G02
 112213058.129 8  87438871.316 7  21353447.016                    21353453.895
 125627003.618 6  97891249.14943  23906025.242                    23906034.082
 122856499.729 7  95732462.31043  23378798.570                    23378805.883
 106877247.714 8  83281074.215 8  20338046.258                    20338052.320
 113429536.910 8  88386702.68045  21584922.086                    21584929.578
 113470557.993 8  88418671.635 7  21592729.500                    21592739.191
 119489305.292 7  93108616.362 6  22738060.906                    22738068.402
 113263942.460 8  88257754.69345  21553392.281                    21553397.254
 11  8 18  2 19  0.0000000  0  8G12G26G10G05G30G25G29G02
 112270825.348 8  87483884.733 7  21364439.492                    21364446.340
 125531719.209 6  97817001.62443  23887893.438                    23887902.277
 122958903.524 7  95812257.49343  23398285.523                    23398292.918
 106897489.144 8  83296846.778 8  20341897.805                    20341904.453
 113444536.333 8  88398390.52845  21587776.523                    21587783.797
 113465155.158 8  88414461.624 7  21591701.344                    21591710.668
 119407202.165 7  93044639.964 7  22722437.203                    22722444.895
 113301773.459 8  88287233.40245  21560591.375                    21560596.203
 11  8 18  2 19 30.0000000  0  8G12G26G10G05G30G25G29G02
 112329047.350 7  87529252.518 7  21375519.234                    21375525.738
 125436461.868 6  97742775.19443  23869766.734                    23869775.375
 123061497.911 7  95892201.18344  23417808.375                    23417816.320
 106918264.923 8  83313035.716 8  20345851.516                    20345857.363
 113460119.599 8  88410533.33245  21590741.836                    21590749.285
 113460332.688 8  88410703.853 7  21590783.305                    21590793.164
 119325160.018 7  92980711.072 7  22706825.336                    22706832.398
 113339694.976 8  88316782.63846  21567807.945                    21567812.223
 11  8 18  2 20  0.0000000  0  8G12G26G10G05G30G25G29G02
 112387720.952 7  87574972.206 7  21386684.133                    21386690.465
 125341234.886 6  97668572.44143  23851644.977                    23851654.172
 123164279.713 7  95972290.87944  23437367.633                    23437374.688
 106939572.947 8  83329639.386 8  20349906.117                    20349912.449
 113476285.127 8  88423129.84145  21593817.922                    21593825.465
 113456090.058 8  88407397.891 7  21589976.492                    21589985.582
 119243180.208 7  92916830.769 7  22691225.273                    22691232.316
 113377706.500 8  88346402.01045  21575041.023                    21575045.676
 11  8 18  2 20 30.0000000  0  8G12G26G10G05G30G25G29G02
 112446844.139 8  87621042.220 7  21397934.734                    21397941.324
 125246041.505 6  97594395.82344  23833530.844                    23833538.914
 123267245.713 7  96052524.09944  23456961.180                    23456968.480
 106961411.469 8  83346656.436 8  20354061.703                    20354068.355
 113493031.726 8  88436179.14545  21597004.867                    21597012.121
 113452427.048 8  88404543.591 7  21589279.234                    21589288.719
 119161264.367 7  92853000.301 7  22675637.094                    22675644.141
 113415807.649 8  88376091.21546  21582291.383                    21582296.129
 11  8 18  2 21  0.0000000  0  8G12G26G10G05G30G25G29G02
 112506414.185 7  87667460.424 7  21409270.641                    21409277.695
 125150885.231 6  97520248.15543  23815423.008                    23815431.406
 123370393.657 7  96132899.08643  23476589.609                    23476597.582
 106983779.679 8  83364086.228 8  20358318.672                    20358324.770
 113510358.268 8  88449680.33645  21600301.930                    21600309.219
 113449343.629 8  88402140.917 7  21588692.555                    21588701.805
 119079414.755 7  92789221.440 7  22660061.398                    22660068.707
 113453998.388 8  88405850.24145  21589558.531                    21589564.008
 11  8 18  2 21 30.0000000  0  8G12G26G10G05G30G25G29G02
 112566428.794 8  87714225.053 7  21420690.914                    21420697.363
 125055769.276 6  97446131.90643  23797322.367                    23797331.609
 123473720.567 7  96213413.54743  23496252.305                    23496259.336
 107006675.704 8  83381927.303 8  20362675.422                    20362681.867
 113528263.236 8  88463632.25945  21603708.875                    21603716.613
 113446839.228 8  88400189.430 7  21588215.750                    21588225.461
 118997632.829 7  92725495.322 7  22644499.047                    22644506.313
 113492278.113 8  88435678.60646  21596843.344                    21596847.875
 11  8 18  2 22  0.0000000  0  8G12G26G10G05G30G25G29G02
 112626885.773 8  87761334.377 7  21432195.516                    21432202.375
 124960697.113 6  97372049.76943  23779230.438                    23779239.211
 123577223.993 6  96294065.54543  23515947.891                    23515955.227
 107030098.186 8  83400178.609 8  20367132.578                    20367138.695
 113546745.440 8  88478033.98545  21607226.133                    21607233.371
 113444913.742 8  88398689.035 7  21587849.469                    21587858.879
 118915920.524 7  92661823.435 7  22628949.242                    22628956.430
 113530646.945 8  88465576.39745  21604144.602                    21604149.227
 11  8 18  2 22 30.0000000  0  8G12G26G10G05G30G25G29G02
 112687782.807 8  87808786.600 7  21443783.977                    21443790.969
 124865672.440 6  97298004.65943  23761148.078                    23761156.867
 123680900.904 6  96374852.68943  23535677.289                    23535685.141
 107054045.594 8  83418838.945 8  20371689.781                    20371696.086
 113565803.657 8  88492884.55045  21610852.766                    21610860.332
 113443566.881 7  88397639.537 7  21587593.273                    21587602.934
 118834279.215 7  92598206.880 7  22613413.664                    22613420.684
 113569104.839 8  88495543.58945  21611462.938                    21611467.789
 11  8 18  2 23  0.0000000  0  8G12G26G10G05G30G25G29G02
 112749117.220 7  87856579.645 7  21455455.555                    21455462.473
 124770698.311 7  97223998.91443  23743075.383                    23743084.445
 123784748.342 7  96455772.71543  23555438.508                    23555446.484
 107078516.405 8  83437907.126 8  20376346.164                    20376352.637
 113585436.374 8  88508182.79245  21614588.609                    21614596.086
 113442798.278 8  88397040.616 7  21587446.883                    21587456.664
 118752711.477 7  92534647.656 7  22597891.609                    22597898.938
 113607651.167 8  88525579.69445  21618797.742                    21618802.434
 11  8 18  2 23 30.0000000  0  8G12G26G10G05G30G25G29G02
 112810886.406 8  87904711.469 7  21467209.555                    21467216.516
 124675778.090 7  97150035.18743  23725012.438                    23725021.027
 123888763.983 7  96536823.84943  23575232.727                    23575239.633
 107103508.943 8  83457381.844 8  20381102.016                    20381108.914
 113605642.173 8  88523927.58445  21618433.547                    21618441.359
 113442607.391 8  88396891.876 7  21587410.570                    21587420.125
 118671218.716 7  92471146.862 7  22582383.781                    22582391.262
 113646285.898 8  88555684.67545  21626149.906                    21626154.551
 11  8 18  2 24  0.0000000  0  9G12G15G26G10G05G30G25G29G02
 112873087.885 7  87953180.155 7  21479046.297                    21479053.215
 129371731.44016 100809180.72516  24618621.508                    24618631.777
 124580915.465 7  97076116.34143  23706960.570                    23706969.332
 123992945.087 7  96618003.92443  23595056.766                    23595064.258
 107129022.087 8  83477262.238 8  20385957.188                    20385963.223
 113626419.759 8  88540117.92545  21622388.125                    21622395.234
 113442993.972 8  88397193.111 7  21587484.266                    21587493.809
 118589802.676 7  92407705.844 7  22566891.422                    22566898.145
 113685008.771 8  88585858.34145  21633518.945                    21633523.578
 11  8 18  2 24 30.0000000  0  9G12G15G26G10G05G30G25G29G02
 112935719.985 7  88001984.387 7  21490964.922                    21490972.031
 129278435.399 6 100736482.649 6  24600868.313                    24600878.500
 124486114.225 6  97002245.33643  23688919.805                    23688929.098
 124097288.973 7  96699310.82743  23614913.438                    23614920.531
 107155054.528 8  83497547.280 8  20390910.766                    20390917.516
 113647767.954 8  88556752.89945  21626450.094                    21626457.422
 113443957.902 8  88397944.247 7  21587667.742                    21587676.805
 118508465.643 7  92344326.376 7  22551412.750                    22551420.254
 113723819.824 8  88616100.72046  21640904.133                    21640908.887
 11  8 18  2 25  0.0000000  0  9G12G15G26G10G05G30G25G29G02
 112998779.346 8  88051121.534 7  21502964.680                    21502971.234
 129185010.942 6 100663684.509 6  24583090.047                    24583099.871
 124391377.206 6  96928424.40144  23670892.727                    23670901.215
 124201792.606 7  96780742.18343  23634799.836                    23634806.875
 107181603.809 8  83518235.042 8  20395963.000                    20395969.484
 113669684.865 8  88573831.02745  21630620.641                    21630627.871
 113445498.315 8  88399144.588 7  21587960.797                    21587970.438
 118427208.969 7  92281009.522 7  22535950.125                    22535957.563
 113762718.833 8  88646411.62545  21648306.656                    21648311.063
 11  8 18  2 25 30.0000000  0  9G12G15G26G10G05G30G25G29G02
 113062263.523 7  88100589.718 7  21515045.188                    21515052.113
 129091460.674 6 100590788.362 6  24565287.938                    24565298.008
 124296708.247 6  96854656.45344  23652878.195                    23652886.520
 124306453.246 7  96862295.89443  23654715.836                    23654723.152
 107208668.639 8  83539324.546 8  20401113.156                    20401119.711
 113692169.139 8  88591351.25945  21634899.453                    21634906.461
 113447614.838 8  88400793.850 7  21588363.516                    21588372.746
 118346034.613 7  92217756.831 7  22520503.375                    22520510.695
 113801705.392 8  88676790.76845  21655725.422                    21655729.699
 11  8 18  2 26  0.0000000  0  9G12G15G26G10G05G30G25G29G02
 113126170.278 8  88150387.184 7  21527206.164                    21527213.016
 128997787.280 6 100517796.211 6  24547462.781                    24547471.801
 124202110.708 6  96780944.18744  23634876.484                    23634885.359
 124411268.374 6  96943970.02143  23674661.469                    23674669.086
 107236247.563 8  83560814.636 8  20406361.273                    20406367.867
 113715219.296 8  88609312.44545  21639285.516                    21639292.734
 113450306.936 8  88402891.612 7  21588875.578                    21588885.152
 118264944.451 7  92154569.737 7  22505072.570                    22505079.918
 113840779.418 8  88707238.05845  21663160.789                    21663165.496
 11  8 18  2 26 30.0000000  0  9G12G15G26G10G05G30G25G29G02
 113190496.866 8  88200511.792 7  21539447.531                    21539454.023
 128903993.248 6 100444710.095 6  24529614.477                    24529623.281
 124107587.984 6  96707290.19744  23616888.953                    23616897.305
 124516235.341 6  97025762.39643  23694636.047                    23694643.992
 107264338.819 8  83582703.952 8  20411706.594                    20411713.066
 113738833.714 8  88627713.29445  21643779.281                    21643786.676
 113453574.003 8  88405437.387 7  21589497.289                    21589506.949
 118183940.323 7  92091449.685 7  22489658.047                    22489664.789
 113879940.536 8  88737753.21245  21670612.805                    21670617.586
 11  8 18  2 27  0.0000000  0  9G12G15G26G10G05G30G25G29G02
 113255241.022 8  88250961.781 7  21551767.492                    21551774.559
 128810081.140 6 100371531.988 6  24511742.641                    24511752.422
 124013143.540 6  96633697.23144  23598916.867                    23598925.539
 124621351.246 7  97107670.88643  23714639.719                    23714646.059
 107292940.679 8  83604991.137 8  20417149.625                    20417156.180
 113763010.750 8  88646552.57045  21648380.258                    21648387.371
 113457415.511 8  88408430.785 7  21590228.148                    21590238.250
 118103024.107 7  92028398.132 7  22474259.703                    22474267.238
 113919188.764 8  88768336.24845  21678081.633                    21678086.336
 11  8 18  2 27 30.0000000  0  9G12G15G26G10G05G30G25G29G02
 113320399.965 7  88301734.975 7  21564166.922                    21564174.035
 128716053.470 6 100298263.803 6  24493850.016                    24493859.188
 123918781.156 6  96560168.18744  23580960.320                    23580968.699
 124726613.601 6  97189693.47443  23734669.727                    23734676.848
 107322051.576 8  83627674.968 8  20422689.320                    20422695.867
 113787749.073 8  88665829.18545  21653087.352                    21653094.516
 113461831.019 8  88411871.451 7  21591068.766                    21591078.590
 118022197.705 7  91965416.562 7  22458879.523                    22458886.641
 113958523.875 8  88798986.98145  21685567.078                    21685571.637
 11  8 18  2 28  0.0000000  0  9G12G15G26G10G05G30G25G29G02
 113385970.547 8  88352828.925 7  21576644.773                    21576651.492
 128621912.303 6 100224907.234 6  24475934.922                    24475944.324
 123824503.847 7  96486705.42544  23563019.719                    23563028.285
 124832019.699 6  97271828.03643  23754727.789                    23754734.938
 107351669.364 8  83650753.780 8  20428325.055                    20428331.672
 113813046.600 8  88685541.55445  21657901.211                    21657908.781
 113466819.536 8  88415758.626 7  21592017.773                    21592027.395
 117941462.822 7  91902506.315 7  22443515.469                    22443522.574
 113997945.767 8  88829705.33745  21693068.531                    21693073.262
 11  8 18  2 28 30.0000000  0  9G12G15G26G10G05G30G25G29G02
 113451950.971 7  88404242.251 7  21589200.656                    21589207.121
 128527660.501 6 100151464.457 6  24457999.984                    24458009.328
 123730315.259 7  96413311.79444  23545096.602                    23545105.156
 124937566.890 7  97354072.54343  23774812.570                    23774820.617
 107381792.381 8  83674226.278 8  20434057.484                    20434064.246
 113838901.956 8  88705688.59145  21662821.594                    21662828.789
 113472380.634 8  88420091.961 7  21593076.109                    21593085.613
 117860821.302 7  91839668.812 7  22428170.086                    22428177.516
 114037454.249 8  88860491.18045  21700586.773                    21700591.445
 11  8 18  2 29  0.0000000  0  9G12G15G26G10G05G30G25G29G02
 113518337.807 7  88455972.255 7  21601833.375                    21601840.109
 128433300.544 6 100077937.346 6  24440044.219                    24440052.961
 123636218.762 7  96339989.92444  23527190.172                    23527198.375
 125043252.293 7  97436424.77043  23794924.742                    23794932.227
 107412418.970 8  83698091.178 8  20439885.961                    20439892.305
 113865313.291 7  88726268.86245  21667847.523                    21667854.617
 113478513.425 8  88424870.768 7  21594243.289                    21594252.770
 117780275.355 7  91776905.800 7  22412842.477                    22412849.465
 114077049.228 7  88891344.41745  21708121.328                    21708126.211
 11  8 18  2 29 30.0000000  0  9G12G15G26G10G05G30G25G29G02
 113585128.852 7  88508017.222 7  21614543.414                    21614550.031
 128338835.153 6 100004328.119 6  24422066.570                    24422076.523
 123542218.273 7  96266742.84244  23509302.297                    23509310.770
 125149073.278 7  97518882.64443  23815061.352                    23815069.070
 107443547.879 8  83722347.487 8  20445809.258                    20445815.629
 113892279.309 7  88747281.34045  21672978.563                    21672986.129
 113485217.573 8  88430094.786 7  21595519.172                    21595528.387
 117699827.056 7  91714218.845 7  22397534.328                    22397540.438
 114116730.679 7  88922265.04345  21715672.727                    21715677.309
 11  8 18  2 30  0.0000000  0  9G12G15G26G10G05G30G25G29G02
 113652321.683 7  88560375.265 7  21627329.570                    21627336.602
 128244266.972 6  99930638.756 5  24404071.398                    24404080.387
 123448317.297 7  96193573.33943  23491433.836                    23491442.102
 125255027.302 6  97601444.22143  23835223.625                    23835231.516
 107475177.166 8  83746993.692 8  20451828.055                    20451834.262
 113919798.182 8  88768724.61945  21678215.391                    21678222.996
 113492492.367 8  88435763.470 7  21596903.031                    21596912.781
 117619478.133 7  91651609.332 7  22382243.867                    22382250.887
 114156498.444 7  88953252.91345  21723239.781                    21723244.527
 11  8 18  2 30 30.0000000  0  9G12G15G26G10G05G30G25G29G02
 113719913.448 7  88613044.169 7  21640191.711                    21640198.715
 128149598.279 6  99856871.096 6  24386056.234                    24386065.555
 123354519.017 6  96120483.83943  23473584.266                    23473592.625
 125361111.764 6  97684107.35843  23855410.273                    23855418.633
 107507304.525 8  83772027.999 8  20457941.359                    20457948.184
 113947867.964 7  88790597.18645  21683557.031                    21683564.508
 113500336.801 8  88441876.043 7  21598395.773                    21598405.652
 117539230.382 7  91589078.673 7  22366973.227                    22366980.484
 114196352.166 7  88984307.77745  21730823.898                    21730828.730
 11  8 18  2 31  0.0000000  0  9G12G15G26G10G05G30G25G29G02
 113787901.640 7  88666021.990 7  21653129.805                    21653136.480
 128054831.949 6  99783027.355 5  24368022.391                    24368032.129
 123260827.345 6  96047477.39643  23455755.703                    23455763.820
 125467323.960 6  97766870.05143  23875622.344                    23875629.715
 107539928.721 8  83797449.468 8  20464149.875                    20464156.438
 113976487.157 7  88812897.85045  21689003.219                    21689010.324
 113508750.287 8  88448432.004 7  21599997.266                    21600006.555
 117459085.969 7  91526628.535 7  22351722.195                    22351729.629
 114236291.960 7  89015429.69645  21738424.227                    21738429.094
 11  8 18  2 31 30.0000000  0  9G12G15G26G10G05G30G25G29G02
 113856283.538 8  88719306.577 7  21666141.984                    21666149.438
 127959970.523 6  99709109.478 6  24349971.469                    24349980.586
 123167245.805 7  95974556.75443  23437947.570                    23437955.387
 125573661.232 6  97849730.26243  23895858.016                    23895865.477
 107573047.869 8  83823256.607 8  20470452.016                    20470458.652
 114005653.997 7  88835625.25745  21694553.703                    21694560.941
 113517732.120 8  88455430.847 7  21601706.414                    21601715.582
 117379046.773 7  91464260.376 7  22336491.328                    22336498.684
 114276317.960 8  89046618.80445  21746040.891                    21746045.516
 11  8 18  2 32  0.0000000  0  9G12G15G26G10G05G30G25G29G02
 113925056.382 7  88772895.802 7  21679229.594                    21679236.457
 127865016.612 6  99635119.567 6  24331902.047                    24331910.695
 123073777.804 7  95901724.59643  23420160.695                    23420169.246
 125680121.037 6  97932685.95543  23916115.500                    23916124.621
 107606660.195 8  83849448.038 8  20476848.258                    20476854.703
 114035366.587 7  88858777.94245  21700207.180                    21700214.883
 113527281.366 8  88462871.819 7  21603523.695                    21603532.977
 117299114.883 7  91401975.822 7  22321280.711                    22321287.695
 114316430.033 7  89077874.97445  21753673.922                    21753678.695
 11  8 18  2 32 30.0000000  0  9G12G15G26G10G05G30G25G29G02
 113994218.052 7  88826788.010 7  21692390.594                    21692397.504
 127769972.833 7  99561059.605 6  24313815.141                    24313824.473
 122980427.064 7  95828983.80443  23402397.172                    23402404.469
 125786700.817 6  98015735.09542  23936398.750                    23936404.863
 107640763.797 8  83876022.283 8  20483338.078                    20483344.086
 114065623.133 7  88882354.47445  21705965.203                    21705972.891
 113537397.217 8  88470754.313 7  21605448.523                    21605457.918
 117219292.246 7  91339776.395 7  22306090.844                    22306097.820
 114356627.839 8  89109197.95845  21761323.383                    21761328.461
 11  8 18  2 33  0.0000000  0  9G12G15G26G10G05G30G25G29G02
 114063764.624 7  88880980.140 7  21705624.461                    21705631.223
 127674841.611 7  99486931.467 6  24295713.094                    24295721.285
 122887196.549 7  95756336.72444  23384655.453                    23384663.746
 125893397.806 6  98098875.61743  23956702.094                    23956708.773
 107675356.424 8  83902977.578 8  20489920.875                    20489927.492
 114096421.399 7  88906353.13045  21711825.930                    21711833.355
 113548078.482 8  88479077.384 7  21607480.742                    21607489.906
 117139580.587 7  91277663.454 7  22290923.000                    22290929.395
 114396910.995 8  89140587.42745  21768988.680                    21768993.313
 11  8 18  2 33 30.0000000  0  9G12G15G26G10G05G30G25G29G02
 114133693.582 8  88935470.219 7  21718932.203                    21718938.809
 127579625.339 7  99412737.087 6  24277593.305                    24277602.641
 122794090.085 7  95683786.28343  23366937.586                    23366945.711
 126000209.347 6  98182105.35543  23977027.117                    23977034.742
 107710435.962 8  83930312.291 8  20496596.125                    20496602.688
 114127759.586 7  88930772.50945  21717789.383                    21717796.719
 113559324.205 8  88487840.291 7  21609620.938                    21609630.094
 117059981.697 7  91215638.387 7  22275775.156                    22275782.699
 114437279.598 8  89172043.50845  21776670.828                    21776675.984
 11  8 18  2 34  0.0000000  0  9G12G15G26G10G05G30G25G29G02
 114204002.776 7  88990256.606 7  21732311.180                    21732317.879
 127484327.350 6  99338479.052 6  24259458.508                    24259467.973
 122701111.713 6  95611335.65343  23349244.813                    23349253.309
 126107133.197 6  98265422.61443  23997373.602                    23997382.117
 107746001.458 8  83958025.674 8  20503364.172                    20503370.730
 114159636.282 7  88955611.49545  21723855.367                    21723862.852
 113571134.028 8  88497042.754 7  21611868.227                    21611877.445
 116980497.878 7  91153702.983 7  22260649.805                    22260657.008
 114477733.861 7  89203566.30545  21784369.555                    21784374.105
 11  8 18  2 34 30.0000000  0  9G12G15G26G10G05G30G25G29G02
 114274689.411 7  89045337.086 7  21745762.484                    21745769.305
 127388949.814 6  99264159.050 6  24241308.703                    24241318.109
 122608264.857 7  95538987.51544  23331576.781                    23331584.500
 126214166.699 6  98348825.34843  24017742.000                    24017749.949
 107782050.587 8  83986115.905 8  20510224.078                    20510230.555
 114192049.310 7  88980868.41045  21730023.305                    21730030.125
 113583506.750 8  88506683.852 7  21614222.602                    21614232.328
 116901131.136 7  91091858.794 7  22245546.797                    22245554.023
 114518273.706 7  89235155.80845  21792083.961                    21792088.422
 11  8 18  2 35  0.0000000  0  9G12G15G26G10G05G30G25G29G02
 114345750.436 7  89100709.308 7  21759284.773                    21759291.555
 127293495.615 7  99189779.322 6  24223144.258                    24223153.656
 122515552.653 6  95466744.28844  23313933.633                    23313942.250
 126321306.970 6  98432311.25643  24038130.719                    24038138.000
 107818581.090 8  84014581.229 8  20517175.555                    20517182.270
 114224996.483 7  89006541.53445  21736293.133                    21736300.043
 113596441.101 8  88516762.579 7  21616684.125                    21616693.465
 116821883.369 7  91030107.314 7  22230466.320                    22230473.773
 114558898.932 7  89266811.84145  21799814.500                    21799818.965
 11  8 18  2 35 30.0000000  0  9G12G15G26G10G05G30G25G29G02
 114417183.304 7  89156371.274 7  21772878.172                    21772884.793
 127197967.270 7  99115341.820 6  24204966.617                    24204974.840
 122422979.129 7  95394609.11944  23296317.852                    23296325.586
 126428551.464 6  98515878.37343  24058537.945                    24058545.844
 107855591.261 8  84043420.337 8  20524218.250                    20524224.711
 114258476.069 8  89032629.53045  21742663.773                    21742670.711
 113609936.349 8  88527278.380 7  21619252.109                    21619261.527
 116742756.794 7  90968450.264 7  22215408.852                    22215416.273
 114599609.452 7  89298534.33245  21807561.102                    21807566.375
 11  8 18  2 36  0.0000000  0  9G12G15G26G10G05G30G25G29G02
 114488985.202 7  89212320.785 7  21786541.516                    21786548.324
 127102367.799 6  99040848.896 6  24186773.094                    24186782.879
 122330547.747 7  95322584.73144  23278728.445                    23278736.641
 126535897.592 6  98599524.70643  24078965.688                    24078973.090
 107893079.531 8  84072631.971 8  20531352.289                    20531358.848
 114292486.315 8  89059131.02245  21749135.977                    21749143.078
 113623991.617 8  88538230.538 7  21621926.664                    21621935.754
 116663753.566 7  90906889.346 7  22200375.039                    22200382.316
 114640405.499 7  89330323.47245  21815324.531                    21815329.352
 11  8 18  2 36 30.0000000  0  9G12G15G26G10G05G30G25G29G02
 114561153.557 7  89268555.859 7  21800274.773                    21800281.648
 127006699.660 6  98966302.431 6  24168568.430                    24168577.074
 122238262.215 7  95250673.96244  23261167.453                    23261174.828
 126643343.045 6  98683248.44043  24099411.703                    24099419.840
 107931043.617 8  84102214.374 8  20538576.617                    20538582.941
 114327024.911 7  89086044.22245  21755708.375                    21755715.059
 113638605.693 8  88549618.143 7  21624707.859                    21624717.695
 116584875.547 7  90845425.975 7  22185365.102                    22185372.207
 114681286.821 7  89362179.04945  21823103.859                    21823108.355
 11  8 18  2 37  0.0000000  0  9G12G15G26G10G05G30G25G29G02
 114633685.420 7  89325074.184 7  21814077.164                    21814083.781
 126910965.201 6  98891704.290 6  24150350.648                    24150360.125
 122146126.073 7  95178879.59644  23243634.508                    23243642.047
 126750885.500 6  98767047.72243  24119876.023                    24119884.566
 107969481.412 7  84132165.910 8  20545891.125                    20545897.328
 114362089.776 7  89113367.49145  21762381.188                    21762388.113
 113653777.366 8  88561440.231 7  21627594.969                    21627604.055
 116506124.499 7  90784061.543 7  22170379.438                    22170386.121
 114722253.049 7  89394100.78745  21830899.766                    21830904.500
 11  8 18  2 37 30.0000000  0  9G12G15G26G10G05G30G25G29G02
 114706577.707 7  89381873.351 7  21827948.023                    21827954.703
 126815167.595 6  98817056.957 6  24132120.844                    24132129.445
 122054142.742 7  95107204.33944  23226130.180                    23226138.395
 126858522.067 6  98850920.34343  24140359.422                    24140366.930
 108008391.061 7  84162485.124 8  20553294.953                    20553301.926
 114397679.028 7  89141099.37845  21769153.492                    21769160.527
 113669505.649 8  88573696.054 7  21630587.398                    21630597.121
 116427502.728 7  90722797.848 7  22155417.906                    22155425.000
 114763304.864 7  89426089.22945  21838711.430                    21838716.078
 11  8 18  2 38  0.0000000  0  9G12G15G26G10G05G30G25G29G02
 114779828.108 7  89438951.581 7  21841886.688                    21841893.789
 126719309.317 6  98742362.342 6  24113879.516                    24113887.891
 121962316.274 7  95035651.32044  23208656.422                    23208664.367
 126966250.531 6  98934864.63342  24160859.047                    24160866.410
 108047770.950 8  84193170.746 8  20560789.063                    20560795.285
 114433790.843 8  89169238.45645  21776025.281                    21776032.320
 113685789.744 8  88586384.961 7  21633686.742                    21633695.582
 116349012.531 7  90661636.692 7  22140481.656                    22140489.059
 114804442.284 8  89458144.36745  21846539.406                    21846544.500
 11  8 18  2 38 30.0000000  0  9G12G15G26G10G05G30G25G29G02
 114853433.176 7  89496306.161 7  21855893.570                    21855900.934
 126623393.002 7  98667622.495 6  24095628.141                    24095635.668
 121870649.787 7  94964222.93844  23191212.773                    23191220.688
 127074068.106 6  99018878.37142  24181375.117                    24181382.977
 108087618.283 8  84224220.620 8  20568371.383                    20568378.160
 114470422.469 7  89197782.57245  21782995.977                    21783002.871
 113702627.806 8  88599505.547 7  21636890.547                    21636899.859
 116270655.550 7  90600579.355 7  22125570.984                    22125578.234
 114845664.686 7  89490265.71745  21854384.008                    21854388.480
 11  8 18  2 39  0.0000000  0  9G12G15G26G10G05G30G25G29G02
 114927390.370 7  89553935.113 7  21869966.820                    21869974.414
 126527421.654 6  98592839.764 6  24077364.727                    24077372.770
 121779147.061 7  94892922.16744  23173800.523                    23173808.289
 127181972.110 6  99102959.44942  24201909.383                    24201917.336
 108127931.497 8  84255633.517 8  20576042.859                    20576049.473
 114507572.085 7  89226730.32745  21790065.195                    21790072.566
 113720019.026 8  88613057.157 7  21640200.445                    21640209.332
 116192434.185 7  90539627.676 7  22110685.875                    22110692.840
 114886972.156 7  89522453.36045  21862244.586                    21862249.219
 11  8 18  2 39 30.0000000  0  9G12G15G26G10G05G30G25G29G02
 115001696.657 7  89611836.098 7  21884107.766                    21884114.422
 126431397.591 7  98518015.944 6  24059091.898                    24059099.754
 121687811.610 7  94821751.74044  23156419.680                    23156428.063
 127289960.349 6  99187106.14443  24222458.266                    24222466.719
 108168708.188 8  84287407.566 8  20583802.391                    20583808.840
 114545237.486 7  89256079.98445  21797232.797                    21797240.258
 113737962.027 8  88627038.720 7  21643614.594                    21643623.617
 116114350.258 7  90478783.097 7  22095826.992                    22095833.906
 114928364.942 7  89554707.48145  21870121.117                    21870126.082
 11  8 18  2 40  0.0000000  0  9G12G15G26G10G05G30G25G29G02
 115076349.474 7  89670007.112 7  21898313.203                    21898319.883
 126335323.892 7  98443153.412 5  24040809.625                    24040816.801
 121596647.195 7  94750714.57344  23139071.688                    23139079.828
 127398030.210 6  99271316.36143  24243023.883                    24243031.359
 108209946.463 8  84319541.294 8  20591649.703                    20591656.152
 114583416.569 7  89285829.91545  21804497.789                    21804505.031
 113756455.811 8  88641449.468 7  21647133.773                    21647143.344
 116036405.676 7  90418047.094 7  22080994.695                    22081001.762
 114969843.016 7  89587028.05245  21878014.914                    21878018.406
 11  8 18  2 40 30.0000000  0  9G12G15G26G10G05G30G25G29G02
 115151345.778 7  89728445.794 7  21912584.375                    21912591.734
 126239203.177 7  98368254.211 5  24022518.484                    24022525.543
 121505657.449 7  94679813.52344  23121757.086                    23121764.797
 127506179.279 6  99355588.39442  24263604.305                    24263611.504
 108251644.336 7  84352033.148 8  20599584.922                    20599591.508
 114622107.232 7  89315978.47145  21811860.414                    21811867.340
 113775498.832 8  88656288.190 7  21650757.375                    21650766.434
 115958602.859 7  90357421.577 7  22066189.227                    22066196.223
 115011406.287 7  89619415.01945  21885923.680                    21885928.516
 11  8 18  2 41  0.0000000  0  9G12G15G26G10G05G30G25G29G02
 115226682.692 7  89787149.858 7  21926920.938                    21926927.832
 126143038.133 7  98293320.498 5  24004218.648                    24004226.074
 121414845.925 7  94609051.36344  23104475.570                    23104484.500
 127614404.942 6  99439920.11742  24284199.000                    24284206.023
 108293799.381 8  84384881.238 8  20607606.875                    20607612.617
 114661307.055 8  89346523.79045  21819320.109                    21819327.184
 113795089.884 8  88671553.936 7  21654485.734                    21654494.672
 115880943.681 7  90296907.987 7  22051410.688                    22051417.852
 115053054.833 8  89651868.41945  21893849.211                    21893854.133
 11  8 18  2 41 30.0000000  0  9G12G15G26G10G05G30G25G29G02
 115302357.742 7  89846117.434 7  21941321.023                    21941327.891
 126046831.793 6  98218354.611 6  23985911.336                    23985918.707
 121324216.652 7  94538431.18644  23087229.648                    23087237.867
 127722704.726 6  99524309.64043  24304808.172                    24304814.477
 108336410.015 7  84418084.339 8  20615715.273                    20615721.637
 114701014.228 7  89377464.43845  21826876.180                    21826883.148
 113815227.958 8  88687245.953 7  21658317.938                    21658327.227
 115803430.574 7  90236508.212 7  22036661.086                    22036667.559
 115094788.764 8  89684388.37245  21901790.766                    21901795.570
 11  8 18  2 42  0.0000000  0  9G12G15G26G10G05G30G25G29G02
 115378367.687 7  89905345.954 7  21955785.547                    21955792.313
 125950586.772 6  98143358.587 6  23967595.984                    23967604.313
 121233773.078 7  94467955.73544  23070018.031                    23070027.047
 127831076.617 6  99608755.32442  24325430.180                    24325436.426
 108379474.405 8  84451641.011 8  20623909.984                    20623916.379
 114741226.411 8  89408798.61145  21834528.313                    21834535.313
 113835911.663 8  88703363.125 7  21662253.648                    21662263.199
 115726065.572 7  90176223.843 7  22021939.203                    22021945.770
 115136608.455 8  89716975.14745  21909749.063                    21909753.238
 11  8 18  2 42 30.0000000  0  9G12G15G26G10G05G30G25G29G02
 115454709.620 7  89964833.161 7  21970313.063                    21970319.883
 125854305.754 6  98068334.506 6  23949274.414                    23949282.625
 121143518.430 7  94397627.50244  23052844.414                    23052852.195
 127939518.039 6  99693255.19143  24346066.203                    24346072.348
 108422989.707 8  84485549.054 8  20632191.031                    20632197.000
 114781941.057 7  89440524.31445  21842275.766                    21842282.914
 113857139.383 8  88719904.208 7  21666293.164                    21666302.637
 115648850.553 7  90116056.353 7  22007245.391                    22007252.145
 115178513.140 7  89749628.16145  21917723.219                    21917727.703
 11  8 18  2 43  0.0000000  0  9G12G15G26G10G05G30G25G29G02
 115531380.823 8  90024576.936 7  21984902.930                    21984909.918
 125757991.698 6  97993284.711 6  23930947.055                    23930954.926
 121053456.786 7  94327449.64044  23035705.992                    23035713.777
 128048026.387 6  99777807.13143  24366714.352                    24366720.809
 108466954.139 8  84519807.057 8  20640556.555                    20640563.156
 114823156.152 8  89472639.97145  21850118.883                    21850126.418
 113878909.960 8  88736868.301 7  21670435.773                    21670445.785
 115571787.907 7  90056007.601 7  21992580.609                    21992587.574
 115220503.377 7  89782347.83145  21925713.313                    21925717.844
 11  8 18  2 43 30.0000000  0  9G12G15G26G10G05G30G25G29G02
 115608378.363 7  90084575.008 7  21999555.688                    21999562.047
 125661647.379 6  97918211.326 6  23912611.953                    23912621.582
 120963591.927 7  94257425.13744  23018605.289                    23018613.266
 128156599.108 6  99862409.23143  24387375.609                    24387382.191
 108511365.633 8  84554413.419 8  20649008.172                    20649014.203
 114864869.494 8  89505143.88345  21858056.727                    21858064.426
 113901222.073 8  88754254.353 7  21674681.805                    21674691.148
 115494879.903 7  89996079.339 7  21977945.477                    21977952.258
 115262579.287 8  89815134.24445  21933719.906                    21933725.445
 11  8 18  2 44  0.0000000  0  9G12G15G26G10G05G30G25G29G02
 115685699.296 7  90144825.089 7  22014268.602                    22014275.262
 125565275.696 6  97843116.607 6  23894272.867                    23894282.367
 120873927.444 7  94187556.76444  23001543.047                    23001550.723
 128265234.136 6  99947059.88843  24408047.094                    24408055.383
 108556222.018 8  84589366.458 8  20657543.852                    20657550.574
 114907078.616 8  89538034.11345  21866088.578                    21866096.301
 113924074.245 8  88772061.239 7  21679030.672                    21679039.848
 115418128.400 7  89936273.024 7  21963340.328                    21963347.059
 115304740.792 8  89847987.37345  21941743.727                    21941747.945
 11  8 18  2 44 30.0000000  0  9G12G15G26G10G05G30G25G29G02
 115763340.425 7  90205324.675 7  22029042.945                    22029050.242
 125468879.212 6  97768002.542 6  23875929.789                    23875938.477
 120784466.577 7  94117847.04744  22984518.438                    22984526.355
 128373928.550 6 100031756.79043  24428731.383                    24428739.414
 108601520.638 7  84624664.094 8  20666163.820                    20666170.824
 114949781.040 8  89571308.73445  21874214.797                    21874222.336
 113947464.809 8  88790287.657 7  21683481.641                    21683490.695
 115341535.504 7  89876590.299 7  21948764.773                    21948772.078
 115346987.801 7  89880907.12645  21949783.164                    21949787.133
 11  8 18  2 45  0.0000000  0  9G12G15G26G10G05G30G25G29G02
 115841298.963 7  90266071.571 7  22043878.711                    22043885.273
 125372461.057 6  97692871.633 6  23857581.313                    23857590.105
 120695213.554 7  94048299.29244  22967534.188                    22967542.582
 128482680.108 6 100116498.24143  24449425.281                    24449433.672
 108647259.865 8  84660305.050 8  20674867.820                    20674874.078
 114992974.672 8  89604966.10645  21882434.055                    21882441.414
 113971392.584 8  88808932.664 7  21688035.047                    21688043.969
 115265103.743 7  89817033.137 7  21934220.500                    21934227.422
 115389320.835 7  89913893.90845  21957838.359                    21957842.750
 11  8 18  2 45 30.0000000  0 10G12G15G26G10G05G30G25G29G21G02
 115919572.394 7  90327063.847 7  22058773.398                    22058780.270
 125276023.883 6  97617725.860 6  23839230.477                    23839238.961
 120606171.745 7  93978916.12344  22950590.336                    22950598.270
 128591486.795 6 100201282.64743  24470131.414                    24470138.652
 108693437.438 8  84696287.584 8  20683655.023                    20683661.602
 115036656.902 8  89639004.20745  21890746.406                    21890754.098
 113995855.856 8  88827994.954 7  21692690.617                    21692699.383
 115188835.002 7  89757602.990 7  21919707.078                    21919713.984
 132312587.62815                  25178217.633
 115431739.875 8  89946947.72045  21965910.086                    21965915.102
 11  8 18  2 46  0.0000000  0 10G12G15G26G10G05G30G25G29G21G02
 115998157.795 7  90388299.220 7  22073727.734                    22073734.613
 125179570.955 6  97542567.831 6  23820876.078                    23820884.164
 120517345.317 7  93909700.77844  22933686.820                    22933695.180
 128700346.442 5 100286108.32342  24490846.141                    24490854.121
 108740051.740 8  84732610.430 8  20692525.141                    20692531.863
 115080825.977 7  89673421.65945  21899152.000                    21899159.348
 114020853.746 8  88847473.842 7  21697446.734                    21697455.816
 115112731.894 7  89698301.912 7  21905224.891                    21905231.930
 132255976.219 5                  25167444.234
 115474245.293 7  89980068.83145  21973998.938                    21974003.680
 11  8 18  2 46 30.0000000  0 10G12G15G26G10G05G30G25G29G21G02
 116077052.201 7  90449775.365 7  22088740.602                    22088747.688
 125083104.985 7  97467399.627 6  23802518.938                    23802527.180
 120428737.770 7  93840655.98044  22916825.547                    22916833.629
 128809256.421 5 100370973.14942  24511572.250                    24511579.449
 108787100.323 7  84769271.668 8  20701478.680                    20701485.039
 115125479.375 7  89708216.51345  21907648.867                    21907656.641
 114046384.498 8  88867367.929 7  21702305.516                    21702314.988
 115036796.484 7  89639131.487 7  21890775.055                    21890781.789
 132199376.384 5 103012415.74752  25156673.484                    25156683.160
 115516837.032 7  90013257.19445  21982104.141                    21982108.484
 11  8 18  2 47  0.0000000  0 10G12G15G26G10G05G30G25G29G21G02
 116156251.968 7  90511489.475 7  22103812.156                    22103818.973
 124986628.411 7  97392223.148 6  23784160.109                    23784168.285
 120340352.226 7  93771784.19444  22900006.617                    22900014.195
 128918214.075 5 100455875.19142  24532305.180                    24532313.160
 108834580.145 8  84806268.951 8  20710514.063                    20710520.180
 115170614.085 7  89743386.41545  21916238.328                    21916245.734
 114072446.053 8  88887675.654 7  21707264.586                    21707273.855
 114961030.584 7  89580093.162 7  21876356.914                    21876363.887
 132142786.668 6 102968319.89142  25145905.672                    25145914.344
 115559514.828 7  90046512.62445  21990224.969                    21990229.922
 11  8 18  2 47 30.0000000  0 10G12G15G26G10G05G30G25G29G21G02
 116235754.594 8  90573439.559 7  22118940.531                    22118947.656
 124890144.066 7  97317040.621 6  23765800.109                    23765807.316
 120252192.385 7  93703088.25944  22883229.820                    22883237.098
 129027217.199 6 100540812.68242  24553048.656                    24553055.230
 108882489.178 8  84843600.678 8  20719630.375                    20719636.793
 115216227.637 7  89778929.45045  21924917.664                    21924925.273
 114099036.811 8  88908395.726 7  21712324.734                    21712334.254
 114885436.238 7  89521188.513 7  21861972.273                    21861978.875
 132086206.642 6 102924231.61043  25135138.266                    25135147.098
 115602278.421 7  90079834.89845  21998363.016                    21998367.609
 11  8 18  2 48  0.0000000  0 10G12G15G26G10G05G30G25G29G21G02
 116315556.640 7  90635622.951 7  22134126.453                    22134133.496
 124793654.685 7  97241854.146 6  23747438.836                    23747446.555
 120164262.087 7  93634571.21144  22866497.781                    22866505.367
 129136263.482 6 100625783.78843  24573798.484                    24573806.293
 108930825.332 8  84881265.229 8  20728828.563                    20728834.848
 115262317.691 7  89814843.78145  21933688.727                    21933695.914
 114126155.230 8  88929526.956 7  21717485.391                    21717494.625
 114810015.569 7  89462419.180 7  21847619.664                    21847626.461
 132029635.856 6 102880150.53743  25124374.359                    25124381.734
 115645128.509 7  90113224.57345  22006516.563                    22006521.285
 11  8 18  2 48 30.0000000  0  9G12G15G26G05G30G25G29G21G02
 116395656.645 7  90698038.514 7  22149369.391                    22149376.297
 124697164.536 7  97166667.081 6  23729077.008                    23729084.836
 120076566.048 7  93566236.66944  22849809.352                    22849817.020
 108979587.671 8  84919261.867 8  20738107.977                    20738114.230
 115308882.927 7  89851128.38545  21942549.359                    21942557.074
 114153800.856 8  88951069.020 7  21722745.953                    21722755.281
 114734772.344 7  89403788.114 7  21833301.570                    21833308.762
 131973075.043 6 102836077.25343  25113610.266                    25113618.453
 115688066.146 7  90146682.48145  22014687.484                    22014692.055
 11  8 18  2 49  0.0000000  0  9G12G15G26G05G30G25G29G21G02
 116476050.868 7  90760683.327 7  22164667.758                    22164674.609
 124600675.966 7  97091481.242 6  23710715.531                    23710723.852
 119989107.522 7  93498087.21744  22833166.242                    22833174.043
 109028773.318 8  84957588.359 7  20747467.297                    20747473.980
 115355920.345 7  89887780.92045  21951500.180                    21951507.797
 114181971.572 8  88973020.226 7  21728106.938                    21728115.793
 114659707.953 7  89345296.391 7  21819017.031                    21819024.117
 131916522.791 6 102792010.61043  25102848.859                    25102856.750
 115731090.936 7  90180208.28345  22022874.664                    22022879.094
 11  8 18  2 49 30.0000000  0  9G12G15G26G05G30G25G29G21G02
 116556735.491 7  90823554.450 7  22180021.563                    22180028.777
 124504190.730 7  97016297.992 6  23692355.391                    23692362.887
 119901889.251 7  93430124.95544  22816569.477                    22816577.098
 109078378.795 8  84996241.992 7  20756907.133                    20756913.328
 115403426.498 7  89924798.69945  21960540.758                    21960548.043
 114210664.647 8  88995378.473 7  21733566.906                    21733576.098
 114584823.701 7  89286945.038 7  21804767.531                    21804773.930
 131859977.899 6 102747949.73643  25092089.188                    25092096.762
 115774202.124 7  90213801.40145  22031078.773                    22031083.234
 11  8 18  2 50  0.0000000  0  9G12G15G26G05G30G25G29G21G02
 116637708.121 7  90886649.970 7  22195430.367                    22195437.137
 124407712.340 6  96941120.092 6  23673995.539                    23674003.934
 119814915.361 7  93362353.12644  22800019.070                    22800026.563
 109128402.812 8  85035221.753 8  20766426.461                    20766432.602
 115451399.289 7  89962180.10045  21969669.867                    21969676.969
 114239878.953 8  89018142.875 7  21739126.508                    21739135.336
 114510122.334 7  89228736.201 7  21790552.414                    21790558.949
 131803440.198 6 102703894.46843  25081329.406                    25081337.828
 115817400.142 7  90247462.20645  22039298.711                    22039303.016
 11  8 18  2 50 30.0000000  0  9G12G15G26G05G30G25G29G21G02
 116718965.428 7  90949967.342 7  22210893.047                    22210899.617
 124311243.536 6  96865949.641 6  23655638.242                    23655645.926
 119728189.423 7  93294774.52844  22783515.328                    22783523.176
 109178842.741 8  85074525.606 7  20776024.422                    20776031.027
 115499836.086 7  89999923.06645  21978886.742                    21978893.973
 114269612.598 8  89041311.947 7  21744784.383                    21744793.613
 114435606.132 7  89170671.637 7  21776371.844                    21776378.957
 131746908.860 6 102659844.19143  25070572.727                    25070580.594
 115860685.039 7  90281190.68345  22047536.039                    22047540.480
 11  8 18  2 51  0.0000000  0  9G12G15G26G05G30G25G29G21G02
 116800504.205 7  91013504.025 7  22226409.250                    22226416.379
 124214786.926 6  96790788.687 6  23637284.367                    23637291.172
 119641714.646 7  93227391.61544  22767059.547                    22767067.332
 109229695.664 8  85114151.269 8  20785701.484                    20785707.676
 115548734.007 7  90038025.34445  21988191.742                    21988199.582
 114299863.541 8  89064884.109 7  21750541.016                    21750549.770
 114361276.678 8  89112752.574 7  21762227.328                    21762234.621
 131690383.055 6 102615798.20543  25059816.219                    25059823.930
 115904056.953 7  90314986.98245  22055789.359                    22055794.016
 11  8 18  2 51 30.0000000  0  9G12G15G26G05G30G25G29G21G02
 116882321.768 7  91077257.940 7  22241978.602                    22241985.523
 124118345.517 6  96715639.575 6  23618930.859                    23618938.473
 119555495.066 7  93160207.57944  22750652.672                    22750660.063
 109280959.716 8  85154097.298 8  20795457.008                    20795463.094
 115598090.659 7  90076485.06245  21997584.016                    21997591.273
 114330630.249 8  89088858.170 7  21756395.758                    21756404.875
 114287136.591 8  89054981.089 7  21748118.867                    21748126.305
 131633862.467 6 102571756.32443  25049059.977                    25049068.258
 115947516.151 7  90348851.29245  22064059.266                    22064064.184
 11  8 18  2 52  0.0000000  0  9G12G15G26G05G30G25G29G21G02
 116964415.420 7  91141227.004 7  22257600.563                    22257607.484
 124021922.652 6  96640504.921 6  23600582.352                    23600590.039
 119469534.659 7  93093225.47744  22734295.125                    22734302.488
 109332632.898 7  85194362.126 7  20805289.938                    20805296.621
 115647903.699 7  90115300.40945  22007063.023                    22007070.547
 114361911.179 8  89113232.918 7  21762348.156                    21762357.438
 114213188.343 8  88997359.106 7  21734047.305                    21734054.797
 131577346.632 6 102527718.13343  25038305.836                    25038313.695
 115991062.795 8  90382783.73645  22072346.320                    22072350.590
 11  8 18  2 52 30.0000000  0  9G12G15G26G05G30G25G29G21G02
 117046781.319 7  91205408.214 7  22273274.594                    22273281.535
 123925520.753 6  96565386.595 6  23582237.141                    23582244.949
 119383836.606 7  93026447.80444  22717986.891                    22717994.789
 109384712.546 8  85234943.682 7  20815200.156                    20815206.680
 115698170.028 7  90154468.97345  22016628.391                    22016635.605
 114393704.086 8  89138006.595 7  21768398.039                    21768407.375
 114139433.819 8  88939888.058 7  21720012.289                    21720019.516
 131520834.953 6 102483683.17143  25027550.609                    25027559.453
 116034696.830 7  90416784.28445  22080649.344                    22080653.988
 11  8 18  2 53  0.0000000  0  9G12G15G26G05G30G25G29G21G02
 117129417.308 7  91269799.868 7  22288999.797                    22289006.449
 123829143.302 6  96490287.333 6  23563897.781                    23563905.516
 119298405.119 7  92959877.85044  22701730.359                    22701737.625
 109437196.781 8  85275840.492 8  20825187.703                    20825194.063
 115748887.755 7  90193989.26045  22026279.789                    22026286.945
 114426007.667 8  89163178.216 7  21774545.406                    21774554.484
 114065875.926 8  88882570.226 7  21706014.570                    21706022.008
 131464326.783 6 102439651.00843  25016797.258                    25016806.145
 116078418.901 7  90450853.41445  22088969.648                    22088974.156
 11  8 18  2 53 30.0000000  0  9G12G15G26G05G30G25G29G21G02
 117212320.097 7  91334399.422 7  22304775.492                    22304782.375
 123732792.996 7  96415209.228 6  23545562.992                    23545570.156
 119213243.605 7  92893518.26644  22685523.938                    22685531.816
 109490083.088 8  85317050.609 7  20835251.703                    20835257.883
 115800053.893 7  90233858.97545  22036016.211                    22036023.574
 114458819.852 8  89188746.149 7  21780788.961                    21780798.207
 113992516.481 8  88825407.054 7  21692054.852                    21692061.805
 131407821.540 6 102395621.07242  25006044.672                    25006053.039
 116122228.930 7  90484991.08845  22097306.180                    22097310.969
 11  8 18  2 54  0.0000000  0  9G12G15G26G05G30G25G29G21G02
 117295486.096 7  91399204.074 7  22320601.188                    22320608.348
 123636472.606 7  96340154.432 6  23527234.594                    23527241.816
 119128355.491 7  92827371.71344  22669370.563                    22669377.684
 109543368.830 8  85358571.976 7  20845391.656                    20845398.066
 115851665.490 7  90274075.78745  22045837.820                    22045845.223
 114492138.448 8  89214708.682 7  21787129.594                    21787138.988
 113919357.397 8  88768400.011 7  21678133.445                    21678140.004
 131351318.754 6 102351593.07342  24995292.563                    24995301.105
 116166126.928 7  90519197.30745  22105659.422                    22105664.359
 11  8 18  2 54 30.0000000  0  9G12G15G26G05G30G25G29G21G02
 117378912.950 7  91464211.977 7  22336476.719                    22336484.000
 123540185.135 7  96265125.292 6  23508910.680                    23508918.262
 119043744.778 7  92761441.32844  22653269.023                    22653277.215
 109597051.618 8  85400402.722 7  20855607.070                    20855613.488
 115903720.134 7  90314637.82245  22055743.195                    22055750.699
 114525961.933 8  89241064.638 7  21793566.148                    21793575.332
 113846401.480 8  88711551.281 7  21664249.859                    21664257.105
 131294817.586 6 102307566.36342  24984540.508                    24984549.406
 116210113.295 7  90553472.38045  22114029.852                    22114034.883
 11  8 18  2 55  0.0000000  0  9G12G15G26G05G30G25G29G21G02
 117462597.881 7  91529420.985 7  22352402.227                    22352408.789
 123443934.012 7  96190124.470 6  23490594.281                    23490601.926
 118959415.343 7  92695730.11444  22637222.125                    22637229.809
 109651130.033 8  85442541.749 8  20865897.797                    20865903.910
 115956215.555 7  90355543.33545  22065732.930                    22065740.281
 114560288.734 8  89267812.774 7  21800098.297                    21800107.344
 113773651.187 8  88654862.786 7  21650406.086                    21650413.203
 131238318.178 6 102263541.01842  24973789.250                    24973797.563
 116254188.371 7  90587816.59945  22122417.695                    22122421.828
 11  8 18  2 55 30.0000000  0  9G12G15G26G05G30G25G29G21G02
 117546537.280 7  91594828.289 7  22368375.227                    22368381.895
 123347722.006 7  96115154.157 6  23472286.133                    23472293.586
 118875370.561 7  92630240.70944  22621228.945                    22621236.426
 109705601.350 8  85484986.942 7  20876263.266                    20876270.039
 116009148.687 7  90396789.90145  22075806.008                    22075813.086
 114595116.538 8  89294951.306 7  21806725.656                    21806735.070
 113701108.265 8  88598335.881 7  21636601.586                    21636608.461
 131181819.358 5 102219516.11242  24963038.734                    24963045.883
 116298352.318 7  90622230.05145  22130820.977                    22130825.762
 11  8 18  2 56  0.0000000  0  9G12G15G26G05G30G25G29G21G02
 117630728.275 7  91660431.648 7  22384395.953                    22384402.758
 123251551.779 7  96040216.371 6  23453985.508                    23453993.332
 118791614.270 7  92564976.09344  22605290.195                    22605298.480
 109760462.735 8  85527736.071 7  20886703.148                    20886709.285
 116062516.820 7  90438375.45145  22085961.633                    22085968.727
 114630443.367 8  89322478.682 7  21813448.195                    21813457.242
 113628775.306 8  88541972.582 7  21622836.969                    21622843.598
 131125320.523 6 102175491.15742  24952286.617                    24952294.391
 116342605.193 7  90656712.79945  22139242.453                    22139247.336
 11  8 18  2 56 30.0000000  0  9G12G15G26G05G30G25G29G21G02
 117715168.133 7  91726228.911 7  22400464.406                    22400471.344
 123155426.819 7  95965313.855 6  23435693.938                    23435701.172
 118708150.279 7  92499939.26144  22589407.656                    22589415.980
 109815712.671 8  85570787.974 7  20897216.734                    20897223.070
 116116317.563 8  90480298.09345  22096199.211                    22096206.520
 114666267.646 8  89350393.703 7  21820264.883                    21820274.414
 113556654.850 8  88485774.861 7  21609113.023                    21609119.715
 131068821.679 5 102131466.20042  24941535.156                    24941543.426
 116386947.297 7  90691265.07845  22147680.180                    22147685.070
 11  8 18  2 57  0.0000000  0  9G12G15G26G05G30G25G29G21G02
 117799852.932 7  91792217.042 7  22416579.500                    22416586.258
 123059349.541 7  95890448.534 6  23417410.609                    23417417.973
 118624981.725 7  92435132.64044  22573581.109                    22573588.957
 109871347.787 8  85614140.001 8  20907803.805                    20907810.277
 116170547.611 7  90522555.24845  22106519.555                    22106526.438
 114702586.717 8  89378694.258 7  21827176.727                    21827185.801
 113484748.553 8  88429744.035 7  21595429.531                    21595436.406
 131012321.614 6 102087440.33842  24930783.219                    24930791.695
 116431378.657 7  90725886.91245  22156135.203                    22156139.910
 11  8 18  2 57 30.0000000  0  9G12G15G26G05G30G25G29G21G02
 117884780.199 7  91858394.120 7  22432740.789                    22432747.355
 122963323.127 6  95815622.818 6  23399137.453                    23399144.961
 118542112.669 7  92370559.39744  22557811.750                    22557819.625
 109927366.246 8  85657790.759 7  20918463.430                    20918469.766
 116225204.296 7  90565144.85145  22116919.961                    22116927.137
 114739398.803 8  89407378.980 7  21834181.789                    21834191.164
 113413058.965 8  88373882.064 7  21581787.648                    21581794.328
 130955819.984 6 102043413.21542  24920031.758                    24920039.836
 116475899.679 7  90760578.61645  22164607.555                    22164612.547
 11  8 18  2 58  0.0000000  0  9G12G15G26G05G30G25G29G21G02
 117969947.109 7  91924757.931 7  22448946.961                    22448953.469
 122867350.531 6  95740839.045 6  23380873.898                    23380881.641
 118459546.804 7  92306222.40644  22542099.406                    22542107.621
 109983765.864 8  85701738.514 7  20929196.164                    20929202.418
 116280285.267 7  90608065.06545  22127401.430                    22127409.168
 114776702.162 8  89436446.511 7  21841280.672                    21841289.805
 113341588.564 8  88318190.889 7  21568186.992                    21568193.914
 130899316.446 6 101999384.60643  24909279.000                    24909287.023
 116520510.829 7  90795340.53445  22173096.516                    22173101.199
 11  8 18  2 58 30.0000000  0  9G12G15G26G05G30G25G29G21G02
 118055350.189 7  91991305.754 7  22465199.023                    22465205.621
 122771434.776 6  95666099.572 6  23362621.781                    23362629.527
 118377287.701 7  92242124.43144  22526446.547                    22526453.949
 110040543.753 7  85745981.031 7  20940000.688                    20940007.242
 116335787.447 7  90651313.50545  22137962.984                    22137970.594
 114814494.538 8  89465895.096 7  21848471.813                    21848481.441
 113270339.331 8  88262672.044 7  21554628.445                    21554635.789
 130842810.208 6 101955353.92643  24898526.102                    24898534.031
 116565211.942 8  90830172.56545  22181603.125                    22181607.941
 11  8 18  2 59  0.0000000  0  9G12G15G26G05G30G25G29G21G02
 118140986.582 7  92058035.379 7  22481494.633                    22481502.117
 122675578.912 7  95591406.767 6  23344381.477                    23344388.551
 118295338.681 7  92178268.08944  22510852.156                    22510859.727
 110097697.454 8  85790516.388 7  20950876.859                    20950883.230
 116391707.881 7  90694887.84545  22148604.398                    22148612.203
 114852773.706 8  89495723.004 7  21855756.336                    21855765.531
 113199313.582 8  88207327.338 7  21541113.273                    21541119.801
 130786300.744 6 101911320.71643  24887772.773                    24887780.289
 116610003.228 7  90865074.87045  22190126.727                    22190131.504
 11  8 18  2 59 30.0000000  0  9G12G15G26G05G30G25G29G21G02
 118226853.137 7  92124944.366 7  22497834.695                    22497841.813
 122579785.697 7  95516762.775 6  23326152.008                    23326160.188
 118213703.754 7  92114656.50445  22495317.430                    22495325.750
 110155224.857 8  85835342.938 7  20961823.914                    20961830.418
 116448043.947 7  90738786.06645  22159324.883                    22159332.316
 114891537.692 8  89525928.683 7  21863133.133                    21863141.832
 113128513.800 8  88152158.715 7  21527640.367                    21527647.184
 130729787.707 6 101867284.71643  24877019.016                    24877025.926
 116654884.990 7  90900047.65245  22198667.297                    22198671.875
 11  8 18  3  0  0.0000000  0  9G12G15G26G05G30G25G29G21G02
 118312946.984 7  92192030.479 7  22514218.242                    22514224.859
 122484058.771 7  95442170.423 6  23307936.234                    23307943.641
 118132386.776 7  92051292.65044  22479843.539                    22479851.496
 110213123.985 8  85880459.142 7  20972841.313                    20972847.875
 116504793.203 7  90783006.23645  22170123.391                    22170131.805
 114930784.767 8  89556510.810 7  21870601.336                    21870610.863
 113057942.819 8  88097168.378 7  21514210.758                    21514217.676
 130673270.580 6 101823245.50943  24866264.141                    24866271.082
 116699857.638 8  90935091.27745  22207225.344                    22207229.906
 11  8 18  3  0 30.0000000  0  9G12G15G26G05G30G25G29G21G02
 118399265.156 7  92259291.364 7  22530643.664                    22530650.957
 122388400.448 6  95367631.543 6  23289732.617                    23289740.359
 118051391.353 7  91988179.39345  22464430.484                    22464438.273
 110271392.117 8  85925862.884 7  20983929.750                    20983935.984
 116561952.470 7  90827545.90645  22181000.953                    22181008.313
 114970512.483 8  89587467.445 7  21878161.359                    21878170.461
 112987602.371 8  88042357.664 7  21500825.430                    21500832.539
 130616748.679 6 101779202.63743  24855508.063                    24855515.250
 116744921.529 8  90970205.99545  22215800.914                    22215805.340
 11  8 18  3  1  0.0000000  0  9G12G15G26G05G30G25G29G21G02
 118485804.240 7  92326724.397 7  22547111.477                    22547118.500
 122292814.164 7  95293148.802 6  23271542.727                    23271550.766
 117970720.770 7  91925319.23344  22449079.453                    22449087.117
 110330026.190 8  85971551.770 7  20995087.805                    20995093.496
 116619518.857 7  90872402.81845  22191955.383                    22191962.902
 115010718.613 8  89618796.885 7  21885812.422                    21885821.594
 112917495.022 8  87987728.590 7  21487484.477                    21487491.508
 130560221.007 6 101735155.24043  24844750.258                    24844758.055
 116790076.711 7  91005391.84245  22224393.102                    22224398.164
 11  8 18  3  1 30.0000000  0  9G12G15G26G05G30G25G29G21G02
 118572561.331 7  92394327.306 7  22563621.516                    22563628.125
 122197302.867 7  95218724.492 6  23253367.805                    23253375.438
 117890378.854 7  91862715.17344  22433791.109                    22433798.516
 110389024.335 8  86017524.341 7  21006314.336                    21006320.648
 116677489.581 7  90917574.78345  22202987.430                    22202994.543
 115051401.099 8  89650497.513 7  21893554.133                    21893563.254
 112847622.852 8  87933282.763 7  21474188.461                    21474195.043
 130503687.688 6 101691103.43143  24833993.336                    24834000.055
 116835323.241 7  91040648.85945  22233003.852                    22233008.223
 11  8 18  3  2  0.0000000  0  9G12G15G26G05G30G25G29G21G02
 118659533.195 7  92462097.585 7  22580170.977                    22580177.973
 122101869.540 7  95144360.921 6  23235208.156                    23235215.168
 117810369.276 7  91800370.08644  22418565.836                    22418572.961
 110448384.447 8  86063778.964 7  21017610.281                    21017616.664
 116735861.796 7  90963059.61245  22214094.906                    22214102.777
 115092557.795 8  89682567.661 7  21901386.055                    21901395.027
 112777988.134 8  87879021.956 7  21460937.211                    21460944.371
 130447148.010 6 101647046.69443  24823233.797                    24823241.063
 116880661.791 7  91075977.60445  22241630.695                    22241635.617
 11  8 18  3  2 30.0000000  0  9G12G15G26G05G30G25G29G21G02
 118746716.772 7  92530032.830 7  22596761.969                    22596768.613
 122006517.293 7  95070060.525 6  23217062.375                    23217070.074
 117730695.394 7  91738286.57345  22403403.922                    22403411.715
 110508103.471 8  86110313.265 7  21028974.414                    21028980.938
 116794632.321 7  91008854.81345  22225278.602                    22225286.215
 115134186.181 8  89715005.346 7  21909307.375                    21909316.680
 112708593.290 8  87824948.063 7  21447731.852                    21447739.211
 130390601.055 6 101602984.20443  24812472.891                    24812480.672
 116926092.309 7  91111377.99145  22250276.570                    22250281.078
 11  8 18  3  3  0.0000000  0  9G12G15G26G05G30G25G29G21G02
 118834109.203 7  92598130.813 7  22613392.031                    22613398.379
 121911248.987 7  94995825.575 6  23198933.523                    23198941.215
 117651361.090 7  91676467.68045  22388307.359                    22388314.730
 110568179.479 8  86157125.735 7  21040406.281                    21040412.805
 116853798.674 7  91054958.44745  22236537.672                    22236544.641
 115176284.375 8  89747809.122 7  21917318.109                    21917327.484
 112639440.478 8  87771062.767 7  21434572.336                    21434579.086
 130334046.774 6 101558916.10843  24801710.664                    24801718.270
 116971615.427 7  91146850.53645  22258938.680                    22258943.859
 11  8 18  3  3 30.0000000  0  9G12G15G26G05G30G25G29G21G02
 118921707.270 7  92666389.015 7  22630060.758                    22630068.199
 121816067.820 7  94921658.482 6  23180820.859                    23180828.941
 117572370.182 7  91614916.35645  22373275.648                    22373283.059
 110628610.204 8  86204214.605 7  21051905.766                    21051912.512
 116913357.979 7  91101368.27645  22247871.523                    22247878.668
 115218850.245 8  89780977.331 7  21925418.508                    21925427.742
 112570532.432 8  87717368.190 7  21421459.656                    21421466.566
 130277484.556 6 101514841.77143  24790946.547                    24790954.461
 117017231.377 7  91182395.41645  22267619.375                    22267623.867
 11  8 18  3  4  0.0000000  0  9G12G15G26G05G30G25G29G21G02
 119009508.251 7  92734805.349 7  22646769.438                    22646776.195
 121720977.063 7  94847561.848 6  23162725.594                    23162733.363
 117493726.144 7  91553635.31045  22358310.258                    22358317.848
 110689392.744 8  86251577.631 7  21063472.188                    21063478.648
 116973307.306 7  91148082.02445  22259279.063                    22259287.215
 115261881.544 8  89814508.219 7  21933607.367                    21933616.473
 112501871.485 8  87663866.156 7  21408394.406                    21408401.066
 130220913.961 6 101470760.89943  24780182.117                    24780189.648
 117062940.152 7  91218012.64045  22276317.531                    22276322.359
 11  8 18  3  4 30.0000000  0  9G12G15G26G05G30G25G29G21G02
 119097508.701 7  92803377.118 7  22663515.039                    22663522.230
 121625979.454 7  94773537.778 6  23144648.625                    23144656.293
 117415432.325 7  91492627.16845  22343411.633                    22343418.828
 110750524.634 8  86299212.860 7  21075105.461                    21075111.934
 117033643.472 7  91195097.19845  22270761.172                    22270768.668
 115305375.651 8  89848399.722 7  21941883.641                    21941893.199
 112433459.797 8  87610558.347 7  21395375.898                    21395382.648
 130164334.161 6 101426672.84543  24769414.703                    24769422.465
 117108742.141 7  91253702.48945  22285033.109                    22285038.309
 11  8 18  3  5  0.0000000  0  9G12G15G26G05G30G25G29G21G02
 119185705.455 7  92872101.841 7  22680298.359                    22680305.578
 121531078.037 7  94699588.658 6  23126589.320                    23126597.098
 117337492.358 7  91431894.77345  22328580.016                    22328587.590
 110812003.393 8  86347118.393 7  21086804.758                    21086811.348
 117094363.518 7  91242411.50845  22282315.336                    22282323.070
 115349330.294 8  89882650.092 7  21950247.727                    21950257.352
 112365299.500 8  87557446.426 7  21382405.031                    21382411.859
 130107744.577 6 101382577.20943  24758646.156                    24758654.191
 117154637.497 7  91289465.09045  22293767.281                    22293772.000
 11  8 18  3  5 30.0000000  0  9G12G15G26G05G30G25G29G21G02
 119274095.658 7  92940977.299 7  22697118.594                    22697125.504
 121436276.095 7  94625717.065 6  23108549.047                    23108556.551
 117259910.250 7  91371441.22345  22313816.648                    22313824.133
 110873827.103 8  86395292.710 7  21098569.570                    21098575.945
 117155464.917 7  91290022.97745  22293942.484                    22293950.234
 115393743.636 8  89917257.866 7  21958699.672                    21958709.148
 112297393.579 8  87504532.727 7  21369483.086                    21369489.992
 130051145.207 6 101338473.90943  24747875.484                    24747883.379
 117200626.908 7  91325300.98145  22302518.398                    22302522.863
 11  8 18  3  6  0.0000000  0  9G12G15G26G05G30G25G29G21G02
 119362676.364 7  93010001.199 7  22713974.898                    22713981.996
 121341576.667 7  94551925.371 6  23090528.039                    23090535.730
 117182689.423 7  91311269.18345  22299121.969                    22299129.563
 110935993.118 8  86443733.756 7  21110399.055                    21110405.336
 117216944.562 7  91337929.17345  22305641.688                    22305649.680
 115438613.098 8  89952221.083 7  21967237.961                    21967247.555
 112229744.034 8  87451818.796 7  21356609.922                    21356616.391
 129994535.180 6 101294362.33543  24737103.461                    24737110.879
 117246710.572 7  91361210.32245  22311288.297                    22311292.563
 11  8 18  3  6 30.0000000  0  9G12G15G26G05G30G25G29G21G02
 119451444.493 7  93079171.157 7  22730866.992                    22730874.129
 121246982.873 7  94478215.969 6  23072527.563                    23072535.414
 117105833.639 7  91251381.59045  22284496.906                    22284503.945
 110998499.209 8  86492439.808 7  21122293.914                    21122300.012
 117278799.558 7  91386127.86845  22317412.523                    22317419.957
 115483936.475 8  89987537.983 7  21975862.750                    21975872.133
 112162353.609 8  87399306.782 7  21343785.945                    21343792.988
 129937914.178 6 101250242.16643  24726328.672                    24726335.859
 117292888.971 7  91397193.48345  22320075.508                    22320079.875
 11  8 18  3  7  0.0000000  0  9G12G15G26G05G30G25G29G21G02
 119540396.682 7  93148484.535 7  22747793.781                    22747800.723
 121152497.675 7  94404591.190 6  23054547.352                    23054555.035
 117029346.332 7  91191781.13745  22269941.781                    22269948.797
 111061342.484 8  86541408.588 7  21134252.539                    21134258.414
 117341026.807 7  91434616.62045  22329253.953                    22329261.566
 115529711.281 8  90023206.649 7  21984573.141                    21984582.852
 112095224.395 8  87346998.316 7  21331011.633                    21331018.219
 129881281.476 6 101206112.89843  24715551.508                    24715559.078
 117339162.038 7  91433250.39945  22328880.586                    22328885.598
 11  8 18  3  7 30.0000000  0  9G12G15G26G05G30G25G29G21G02
 119629530.095 7  93217939.120 6  22764755.484                    22764763.125
 121058123.917 7  94331053.249 6  23036589.102                    23036596.355
 116953231.064 7  91132470.56745  22255457.445                    22255465.324
 111124520.696 8  86590638.370 7  21146274.727                    21146281.109
 117403623.352 7  91483393.13645  22341166.047                    22341173.121
 115575935.042 8  90059225.147 7  21993369.367                    21993378.926
 112028358.390 8  87294894.942 7  21318287.578                    21318294.199
 129824636.609 6 101161974.18643  24704771.641                    24704779.824
 117385530.247 7  91469381.46045  22337704.992                    22337709.387
 11  8 18  3  8  0.0000000  0  9G12G15G26G05G30G25G29G21G02
 119718841.342 7  93287532.287 7  22781751.086                    22781758.141
 120963864.821 7  94257604.639 6  23018652.156                    23018659.270
 116877491.062 7  91073452.41745  22241044.602                    22241051.977
 111188031.054 8  86640126.968 7  21158360.141                    21158367.043
 117466585.904 7  91532454.85445  22353146.781                    22353154.488
 115622605.240 8  90095591.533 7  22002250.609                    22002260.090
 111961757.969 8  87242998.516 7  21305614.008                    21305620.379
 129767978.826 6 101117825.28143  24693992.242                    24693997.734
 117431993.747 7  91505586.77445  22346546.523                    22346551.207
 11  8 18  3  8 30.0000000  0  9G12G15G26G05G30G25G29G21G02
 119808327.468 7  93357261.719 7  22798779.320                    22798786.445
 120869723.557 7  94184247.866 6  23000737.227                    23000744.625
 116802130.127 7  91014729.64645  22226703.492                    22226711.254
 111251871.354 8  86689872.654 7  21170508.836                    21170515.227
 117529911.637 7  91581799.56845  22365197.813                    22365205.469
 115669719.612 8  90132304.008 7  22011216.094                    22011225.242
 111895425.771 8  87191311.091 7  21292991.469                    21292997.922
 129711307.874 6 101073666.22743  24683206.617                    24683213.398
 117478552.911 7  91541866.62145  22355406.438                    22355410.500
 11  8 18  3  9  0.0000000  0  9G12G15G26G05G30G25G29G21G02
 119897985.493 7  93427125.097 6  22815840.844                    22815847.914
 120775703.039 7  94110985.177 6  22982845.945                    22982853.359
 116727151.620 7  90956304.86145  22212435.703                    22212443.285
 111316038.951 8  86739873.391 7  21182719.266                    21182725.859
 117593597.417 7  91631424.82745  22377316.852                    22377324.402
 115717275.538 8  90169360.565 7  22020265.383                    22020274.836
 111829363.700 8  87139834.162 7  21280420.016                    21280426.348
 129654623.014 6 101029496.31043  24672419.484                    24672427.063
 117525207.976 7  91578221.20745  22364284.633                    22364288.934
 11  8 18  3  9 30.0000000  0 10G12G15G26G18G05G30G25G29G21G02
 119987812.188 7  93497119.916 7  22832934.352                    22832941.191
 120681806.367 7  94037818.983 6  22964978.180                    22964985.512
 116652559.211 7  90898180.94345  22198241.289                    22198248.719
 129656961.37615                  24672909.805
 111380531.483 8  86790127.306 7  21194992.000                    21194998.320
 117657640.343 7  91681328.39545  22389503.719                    22389510.992
 115765270.748 8  90206759.409 7  22029398.547                    22029408.109
 111763574.503 8  87088569.860 7  21267900.734                    21267907.098
 129597923.934 6 100985315.31143  24661630.117                    24661636.930
 117571959.381 7  91614650.86145  22373181.063                    22373185.758
 11  8 18  3 10  0.0000000  0 10G12G15G26G18G05G30G25G29G21G02
 120077804.077 7  93567243.457 7  22850059.000                    22850065.945
 120588036.350 7  93964751.493 6  22947133.531                    22947141.383
 116578355.978 7  90840360.28545  22184120.766                    22184128.566
 129567287.385 6 100961590.65852  24655844.742                    24655852.813
 111445346.091 8  86840632.197 7  21207325.891                    21207332.316
 117722036.882 7  91731507.49345  22401758.469                    22401765.453
 115813702.270 8  90244498.247 7  22038614.961                    22038624.285
 111698059.965 8  87037519.586 7  21255434.211                    21255440.848
 129541209.685 6 100941122.49643  24650837.836                    24650844.637
 117618806.928 7  91651155.42445  22382095.289                    22382100.484
 11  8 18  3 10 30.0000000  0 10G12G15G26G18G05G30G25G29G21G02
 120167957.925 7  93637493.193 6  22867214.984                    22867221.957
 120494396.469 7  93891785.409 6  22929314.328                    22929321.793
 116504545.859 7  90782845.94545  22170075.047                    22170082.258
 129477776.673 6 100891842.28642  24638810.633                    24638819.793
 111510480.455 8  86891386.246 7  21219720.680                    21219726.828
 117786784.288 7  91781960.01845  22414079.125                    22414086.699
 115862567.958 8  90282575.382 7  22047914.000                    22047923.359
 111632822.746 8  86986685.404 7  21243019.336                    21243025.816
 129484480.100 6 100896917.70743  24640042.242                    24640048.906
 117665751.150 7  91687735.30545  22391028.867                    22391033.887
 11  8 18  3 11  0.0000000  0 10G12G15G26G18G05G30G25G29G21G02
 120258271.613 7  93707867.494 7  22884401.242                    22884408.008
 120400889.882 7  93818923.191 6  22911521.305                    22911528.051
 116431132.799 7  90725641.00045  22156104.734                    22156112.512
 129388431.039 6 100822222.55543  24621809.055                    24621817.266
 111575932.665 8  86942387.976 7  21232175.609                    21232181.633
 117851880.142 7  91832684.04245  22426466.750                    22426473.988
 115911865.901 8  90320989.345 7  22057294.789                    22057304.348
 111567865.711 8  86936069.535 7  21230658.500                    21230665.227
 129427734.904 6 100852700.78343  24629244.063                    24629250.645
 117712792.938 7  91724391.23245  22399981.117                    22399985.680
 11  8 18  3 11 30.0000000  0 10G12G15G26G18G05G30G25G29G21G02
 120348741.811 6  93778363.733 7  22901617.172                    22901624.324
 120307519.533 6  93746167.132 6  22893753.023                    22893760.582
 116358120.181 7  90668748.07244  22142210.648                    22142218.816
 129299251.371 6 100752732.07142  24604838.180                    24604847.395
 111641700.020 7  86993635.266 7  21244690.914                    21244697.160
 117917320.976 7  91883676.88544  22438919.492                    22438926.926
 115961593.264 7  90359737.913 7  22066758.180                    22066767.430
 111503191.112 7  86885673.766 7  21218351.266                    21218358.008
 129370973.632 6 100808471.27642  24618442.594                    24618449.219
 117759932.563 7  91761123.40044  22408951.008                    22408955.582
 11  8 18  3 12  0.0000000  0 10G12G15G26G18G05G30G25G29G21G02
 120439365.310 7  93848979.428 7  22918862.180                    22918869.129
 120214288.514 7  93673519.616 6  22876012.234                    22876019.105
 116285511.223 7  90612169.69545  22128394.508                    22128401.891
 129210238.990 6 100683372.03943  24587899.891                    24587908.449
 111707779.620 8  87045125.879 7  21257265.422                    21257271.391
 117983103.665 7  91934936.12445  22451437.188                    22451444.656
 116011747.374 8  90398819.012 7  22076302.148                    22076311.527
 111438801.116 8  86835499.752 7  21206098.344                    21206105.086
 129314195.444 6 100764228.62743  24607637.938                    24607644.879
 117807170.232 7  91797931.95545  22417940.016                    22417944.852
 11  8 18  3 12 30.0000000  0 10G12G15G26G18G05G30G25G29G21G02
 120530139.490 7  93919712.549 7  22936135.875                    22936142.977
 120121200.275 7  93600983.369 6  22858297.578                    22858305.051
 116213309.673 7  90555908.80145  22114654.570                    22114662.414
 129121395.388 6 100614143.44043  24570993.836                    24571001.434
 111774169.627 8  87096858.351 7  21269898.469                    21269904.969
 118049225.441 7  91986459.57845  22464020.414                    22464027.098
 116062326.110 7  90438231.008 7  22085926.805                    22085936.492
 111374698.313 8  86785549.522 7  21193900.141                    21193906.500
 129257400.390 6 100719972.80243  24596830.180                    24596837.184
 117854506.353 7  91834817.22145  22426947.820                    22426953.090
 11  8 18  3 13  0.0000000  0 10G12G15G26G18G05G30G25G29G21G02
 120621060.763 7  93990560.275 6  22953437.680                    22953444.676
 120028257.403 7  93528560.411 6  22840611.484                    22840618.453
 116141518.819 7  90499967.89545  22100993.188                    22101000.613
 129032721.477 6 100545047.10043  24554118.969                    24554127.477
 111840867.551 8  87148830.758 7  21282591.078                    21282597.469
 118115683.002 7  92038244.69445  22476666.516                    22476674.133
 116113326.611 8  90477971.643 7  22095631.922                    22095640.930
 111310885.085 8  86735824.943 7  21181756.648                    21181763.488
 129200587.801 6 100675703.31443  24586019.109                    24586025.953
 117901941.399 7  91871779.57145  22435974.352                    22435979.289
 11  8 18  3 13 30.0000000  0 10G12G15G26G18G05G30G25G29G21G02
 120712126.739 7  94061520.775 6  22970766.688                    22970774.133
 119935463.942 7  93456253.872 7  22822953.063                    22822960.711
 116070142.484 7  90444349.99645  22087411.094                    22087418.156
 128944219.168 6 100476084.42943  24537276.883                    24537285.949
 111907871.126 8  87201041.346 7  21295341.156                    21295347.648
 118182473.693 7  92090289.38545  22489376.055                    22489383.668
 116164746.725 8  90518039.236 7  22105417.125                    22105426.621
 111247363.992 8  86686328.005 7  21169669.195                    21169675.543
 129143757.076 6 100631419.70443  24575204.984                    24575211.891
 117949475.890 7  91908819.40845  22445020.227                    22445024.910
 11  8 18  3 14  0.0000000  0 10G12G15G26G18G05G30G25G29G21G02
 120803333.965 7  94132591.303 6  22988123.094                    22988130.469
 119842822.469 7  93384065.752 7  22805323.914                    22805331.262
 115999184.011 7  90389057.72345  22073907.250                    22073915.395
 128855889.308 6 100407256.21043  24520468.625                    24520477.254
 111975177.618 8  87253487.966 7  21308149.328                    21308155.594
 118249594.169 7  92142591.05145  22502149.086                    22502156.406
 116216583.698 8  90558431.669 7  22115280.906                    22115290.109
 111184137.189 8  86637060.372 7  21157637.359                    21157644.293
 129086907.868 6 100587121.71643  24564386.750                    24564393.102
 117997110.089 7  91945936.94245  22454084.281                    22454089.180
 11  8 18  3 14 30.0000000  0 10G12G15G26G18G05G30G25G29G21G02
 120894678.926 7  94203769.170 6  23005505.445                    23005512.711
 119750335.795 7  93311998.263 7  22787724.328                    22787732.137
 115928646.797 7  90334093.68645  22060485.008                    22060492.406
 128767733.189 6 100338563.33043  24503692.570                    24503701.027
 112042784.237 8  87306168.451 7  21321014.172                    21321020.887
 118317041.109 7  92195147.10245  22514983.758                    22514991.145
 116268834.718 8  90599146.741 7  22125224.445                    22125233.246
 111121206.700 8  86588023.637 7  21145662.367                    21145668.926
 129030039.666 6 100542808.85943  24553564.672                    24553571.816
 118044843.891 7  91983132.08345  22463168.023                    22463172.836
 11  8 18  3 15  0.0000000  0 10G12G15G26G18G05G30G25G29G21G02
 120986159.086 7  94275052.411 6  23022913.547                    23022920.566
 119658007.584 7  93240054.263 7  22770154.938                    22770161.984
 115858534.331 7  90279460.63145  22047142.664                    22047150.258
 128679752.212 6 100270006.92143  24486950.570                    24486958.160
 112110689.126 8  87359081.348 7  21333936.555                    21333942.484
 118384811.701 7  92247955.33545  22527879.781                    22527887.645
 116321497.495 8  90640182.643 7  22135245.734                    22135254.730
 111058575.449 8  86539220.076 7  21133743.430                    21133750.426
 128973152.063 6 100498480.92543  24542739.781                    24542746.895
 118092678.109 7  92020405.45845  22472270.500                    22472275.113
 11  8 18  3 15 30.0000000  0 10G12G15G26G18G05G30G25G29G21G02
 121077771.116 7  94346438.395 6  23040346.875                    23040353.652
 119565840.585 7  93168235.866 7  22752615.727                    22752623.074
 115788849.866 7  90225161.07645  22033882.422                    22033889.961
 128591947.412 6 100201587.78942  24470240.742                    24470249.961
 112178889.131 8  87412224.215 7  21346914.414                    21346920.867
 118452902.507 7  92301013.08544  22540836.328                    22540844.598
 116374569.047 8  90681537.088 7  22145345.164                    22145354.125
 110996245.238 8  86490651.089 7  21121882.305                    21121889.313
 128916244.297 6 100454137.24243  24531910.523                    24531916.621
 118140612.933 7  92057757.26145  22481392.234                    22481397.227
 11  8 18  3 16  0.0000000  0 10G12G15G26G18G05G30G25G29G21G02
 121169512.043 7  94417924.809 6  23057805.156                    23057811.609
 119473837.754 7  93096545.393 7  22735108.648                    22735115.910
 115719596.914 7  90171197.75645  22020704.227                    22020710.973
 128504319.849 6 100133306.80842  24453565.898                    24453575.086
 112247381.979 8  87465595.275 7  21359948.109                    21359954.605
 118521310.397 7  92354317.90745  22553853.914                    22553861.926
 116428046.769 8  90723208.011 7  22155521.516                    22155530.633
 110934218.629 8  86442318.679 7  21110079.836                    21110086.156
 128859316.178 6 100409777.75843  24521077.102                    24521083.996
 118188648.795 7  92095187.77245  22490533.109                    22490538.027
 11  8 18  3 16 30.0000000  0 10G12G15G26G18G05G30G25G29G21G02
 121261378.692 7  94489509.187 6  23075286.391                    23075293.465
 119382002.321 7  93024985.364 7  22717633.109                    22717640.273
 115650778.660 7  90117573.17845  22007608.195                    22007615.715
 128416871.065 6 100065165.09842  24436925.320                    24436933.617
 112316165.320 8  87519192.688 7  21373037.516                    21373043.613
 118590032.421 7  92407867.52445  22566931.828                    22566939.836
 116481928.117 8  90765193.465 7  22165774.445                    22165783.762
 110872497.916 8  86394224.631 7  21098334.016                    21098340.965
 128802367.089 6 100365401.89143  24510239.453                    24510246.883
 118236786.032 7  92132697.27545  22499693.711                    22499698.363
 11  8 18  3 17  0.0000000  0 10G12G15G26G18G05G30G25G29G21G02
 121353368.065 7  94561189.189 6  23092791.133                    23092798.297
 119290337.562 7  92953558.331 7  22700189.516                    22700196.711
 115582398.894 7  90064290.25945  21994595.969                    21994603.457
 128329602.193 6  99997163.60442  24420319.148                    24420326.727
 112385236.559 8  87573014.435 7  21386180.969                    21386187.617
 118659065.395 7  92461659.43945  22580068.688                    22580076.379
 116536210.427 8  90807491.353 7  22176104.047                    22176113.219
 110811085.572 8  86346370.870 7  21086648.234                    21086654.836
 128745396.840 6 100321009.55243  24499398.453                    24499405.395
 118285024.983 7  92170286.02245  22508872.656                    22508878.328
 11  8 18  3 17 30.0000000  0 10G12G15G26G18G05G30G25G29G21G02
 121445477.658 7  94632962.877 6  23110319.227                    23110326.145
 119198846.923 7  92882266.978 6  22682779.664                    22682786.625
 115514461.088 7  90011351.72345  21981667.883                    21981675.453
 128242515.018 6  99929303.70142  24403746.891                    24403754.301
 112454593.486 8  87627058.784 7  21399379.000                    21399385.371
 118728406.649 7  92515691.57245  22593263.930                    22593271.730
 116590891.508 8  90850099.989 7  22186509.359                    22186518.977
 110749984.585 8  86298759.730 7  21075020.836                    21075027.430
 128688404.992 6 100276600.37643  24488553.391                    24488560.688
 118333366.159 7  92207954.44145  22518072.117                    22518076.961
 11  8 18  3 18  0.0000000  0 10G12G15G26G18G05G30G25G29G21G02
 121537703.703 7  94704827.309 6  23127869.570                    23127875.926
 119107533.253 7  92811113.500 6  22665402.953                    22665410.020
 115446968.298 7  89958759.96845  21968824.719                    21968831.965
 128155609.926 6  99861585.60542  24387208.273                    24387216.211
 112524233.575 8  87681323.793 7  21412631.242                    21412637.734
 118798052.624 7  92569961.14045  22606517.352                    22606524.180
 116645968.259 7  90893016.906 7  22196990.383                    22196999.891
 110689196.705 8  86251392.564 7  21063453.117                    21063459.930
 128631390.916 6 100232173.88743  24477705.070                    24477710.996
 118381810.079 7  92245702.91945  22527291.203                    22527295.852
 11  8 18  3 18 30.0000000  0 10G12G15G26G18G05G30G25G29G21G02
 121630043.529 7  94776780.396 6  23145441.023                    23145447.809
 119016399.236 7  92740100.020 7  22648060.656                    22648067.578
 115379924.035 7  89906517.71145  21956066.156                    21956073.434
 128068888.222 6  99794010.47142  24370706.070                    24370712.918
 112594154.385 8  87735807.537 7  21425936.633                    21425942.770
 118868000.083 7  92624465.66444  22619827.555                    22619834.805
 116701437.801 7  90936239.922 7  22207545.453                    22207555.270
 110628724.193 8  86204271.142 7  21051945.516                    21051952.238
 128574354.376 6 100187729.91043  24466850.180                    24466856.664
 118430356.732 7  92283531.44445  22536529.359                    22536533.695
 11  8 18  3 19  0.0000000  0 10G12G15G26G18G05G30G25G29G21G02
 121722493.277 7  94848819.166 6  23163033.180                    23163040.215
 118925447.909 7  92669228.899 6  22630752.641                    22630760.145
 115313331.178 7  89854627.20145  21943394.188                    21943401.363
 127982350.828 6  99726578.90143  24354238.188                    24354245.461
 112664352.945 8  87790507.715 7  21439295.023                    21439301.387
 118938245.538 7  92679202.36745  22633194.680                    22633202.578
 116757297.212 7  90979766.704 7  22218175.344                    22218185.172
 110568569.230 8  86157397.168 7  21040498.672                    21040505.051
 128517294.492 6 100143267.74343  24455992.203                    24455999.301
 118479006.700 7  92321440.48245  22545786.445                    22545791.383
 11  8 18  3 19 30.0000000  0 10G12G15G26G18G05G30G25G29G21G02
 121815050.846 7  94920941.935 6  23180646.422                    23180653.594
 118834683.086 7  92598503.102 7  22613481.227                    22613488.414
 115247193.812 7  89803091.61145  21930808.508                    21930816.141
 127895999.571 6  99659292.33743  24337805.977                    24337813.594
 112734827.222 8  87845422.739 7  21452706.203                    21452712.230
 119008786.473 7  92734169.32744  22646618.078                    22646626.305
 116813544.433 7  91023595.701 7  22228879.086                    22228888.684
 110508734.696 8  86110772.877 7  21029112.438                    21029119.090
 128460211.077 6 100098787.19843  24445129.766                    24445136.430
 118527760.492 7  92359430.40845  22555064.492                    22555069.313
 11  8 18  3 20  0.0000000  0 10G12G15G26G18G05G30G25G29G21G02
 121907712.915 7  94993146.130 6  23198279.656                    23198286.863
 118744107.801 7  92527924.994 7  22596245.422                    22596251.816
 115181514.963 7  89751913.30145  21918310.875                    21918317.574
 127809835.556 6  99592151.71343  24321409.477                    24321417.211
 112805574.897 8  87900550.800 7  21466168.742                    21466174.902
 119079619.758 7  92789364.10044  22660097.477                    22660105.293
 116870176.668 7  91067724.685 7  22239655.813                    22239665.207
 110449222.794 8  86064399.984 7  21017787.805                    21017794.605
 128403103.789 6 100054288.10343  24434262.227                    24434269.180
 118576618.344 7  92397501.42045  22564361.414                    22564367.113
